[[{"header":{"parameterUnit":"m.s-1","parameterCategory":1,"la1":31.0,"la2":29.5877,"lo1":-88.7671,"lo2":-86.6584,"dy":0.0162,"dx":0.0185,"nx":115,"ny":88,"refTime":"2023-11-01T12:00:00:Z","depth":0,"parameterNumber":2,"parameterNumberName":"U-component_of_WINDS"},"data":[0.0,0.0,0.0,0.0,0.0,0.0,0.0,0.0,0.0,0.0,0.0,0.0,0.0,0.0,0.0,0.0,0.0,0.0,0.0,0.0,0.0,0.0,0.0,0.0,0.0,0.0,0.0,0.0,0.0,0.0,0.0,0.0,0.0,0.0,0.0,0.0,0.0,0.0,0.0,0.0,0.0,0.0,0.0,0.0,0.0,0.0,0.0,0.0,0.0,0.0,0.0,0.0,0.0,0.0,0.0,0.0,0.0,0.0,0.0,0.0,0.0,0.0,0.0,0.0,0.0,0.0,0.0,0.0,0.0,0.0,0.0,0.0,0.0,0.0,0.0,0.0,0.0,0.0,0.0,0.0,0.0,0.0,0.0,0.0,0.0,0.0,0.0,0.0,0.0,0.0,0.0,0.0,0.0,0.0,0.0,0.0,0.0,0.0,0.0,0.0,0.0,0.0,0.0,0.0,0.0,0.0,0.0,0.0,0.0,0.0,0.0,0.0,0.0,0.0,0.0,0.0,0.0,0.0,0.0,0.0,0.0,0.0,0.0,0.0,0.0,0.0,0.0,0.0,0.0,0.0,0.0,0.0,0.0,0.0,0.0,0.0,0.0,0.0,0.0,0.0,0.0,0.0,0.0,0.0,0.0,0.0,0.0,0.0,0.0,0.0,0.0,0.0,0.0,0.0,0.0,0.0,0.0,0.0,0.0,0.0,0.0,0.0,0.0,0.0,0.0,0.0,0.0,0.0,0.0,0.0,0.0,0.0,0.0,0.0,0.0,0.0,0.0,0.0,0.0,0.0,0.0,0.0,0.0,0.0,0.0,0.0,0.0,0.0,0.0,0.0,0.0,0.0,0.0,0.0,0.0,0.0,0.0,0.0,0.0,0.0,0.0,0.0,0.0,0.0,0.0,0.0,0.0,0.0,0.0,0.0,0.0,0.0,0.0,0.0,0.0,0.0,0.0,0.0,0.0,0.0,0.0,0.0,0.0,0.0,0.0,0.0,0.0,0.0,0.0,0.0,0.0,0.0,0.0,0.0,0.0,0.0,0.0,0.0,0.0,0.0,0.0,0.0,0.0,0.0,0.0,0.0,0.0,0.0,0.0,0.0,0.0,0.0,0.0,0.0,0.0,0.0,0.0,0.0,0.0,0.0,0.0,0.0,0.0,0.0,0.0,0.0,0.0,0.0,0.0,0.0,0.0,0.0,0.0,0.0,0.0,0.0,0.0,0.0,0.0,0.0,0.0,0.0,0.0,0.0,0.0,0.0,0.0,0.0,0.0,0.0,0.0,0.0,0.0,0.0,0.0,0.0,0.0,0.0,0.0,0.0,0.0,0.0,0.0,0.0,0.0,0.0,0.0,0.0,0.0,0.0,0.0,0.0,0.0,0.0,0.0,0.0,0.0,0.0,0.0,0.0,0.0,0.0,0.0,0.0,0.0,0.0,0.0,0.0,0.0,0.0,0.0,0.0,0.0,0.0,0.0,0.0,0.0,0.0,0.0,0.0,0.0,0.0,0.0,0.0,0.0,0.0,0.0,0.0,0.0,0.0,0.0,0.0,0.0,0.0,0.0,0.0,0.0,0.0,0.0,0.0,0.0,0.0,0.0,0.0,0.0,0.0,0.0,0.0,0.0,0.0,0.0,0.0,0.0,0.0,0.0,0.0,0.0,0.0,0.0,0.0,0.0,0.0,0.0,0.0,0.0,0.0,0.0,0.0,0.0,0.0,0.0,0.0,0.0,0.0,0.0,0.0,0.0,0.0,0.0,0.0,0.0,0.0,0.0,0.0,0.0,0.0,0.0,0.0,0.0,0.0,0.0,0.0,0.0,0.0,0.0,0.0,0.0,0.0,0.0,0.0,0.0,0.0,0.0,0.0,0.0,0.0,0.0,0.0,0.0,0.0,0.0,0.0,0.0,0.0,0.0,0.0,0.0,0.0,0.0,0.0,0.0,0.0,0.0,0.0,0.0,0.0,0.0,0.0,0.0,0.0,0.0,0.0,0.0,0.0,0.0,0.0,0.0,0.0,0.0,0.0,0.0,0.0,0.0,0.0,0.0,0.0,0.0,0.0,0.0,0.0,0.0,0.0,0.0,0.0,0.0,0.0,0.0,0.0,0.0,0.0,0.0,0.0,0.0,0.0,0.0,0.0,0.0,0.0,0.0,0.0,0.0,0.0,0.0,0.0,0.0,0.0,0.0,0.0,0.0,0.0,0.0,0.0,0.0,0.0,0.0,0.0,0.0,0.0,0.0,0.0,0.0,0.0,0.0,0.0,0.0,0.0,0.0,0.0,0.0,0.0,0.0,0.0,0.0,0.0,0.0,0.0,0.0,0.0,0.0,0.0,0.0,0.0,0.0,0.0,0.0,0.0,0.0,0.0,0.0,0.0,0.0,0.0,0.0,0.0,0.0,0.0,0.0,0.0,0.0,0.0,0.0,0.0,0.0,0.0,0.0,0.0,0.0,0.0,0.0,0.0,0.0,0.0,0.0,0.0,0.0,0.0,0.0,0.0,0.0,0.0,0.0,0.0,0.0,0.0,0.0,0.0,0.0,0.0,0.0,0.0,0.0,0.0,0.0,0.0,0.0,0.0,0.0,0.0,0.0,0.0,0.0,0.0,0.0,0.0,0.0,0.0,0.0,0.0,0.0,0.0,0.0,0.0,0.0,0.0,0.0,0.0,0.0,0.0,0.0,0.0,0.0,0.0,0.0,0.0,0.0,0.0,0.0,0.0,0.0,0.0,0.0,0.0,0.0,0.0,0.0,0.0,0.0,0.0,0.0,0.0,0.0,0.0,0.0,0.0,0.0,0.0,0.0,0.0,0.0,0.0,0.0,0.0,0.0,0.0,0.0,0.0,0.0,0.0,0.0,0.0,0.0,0.0,0.0,0.0,0.0,0.0,0.0,0.0,0.0,0.0,0.0,0.0,0.0,0.0,0.0,0.0,0.0,0.0,0.0,0.0,0.0,0.0,0.0,0.0,0.0,0.0,0.0,0.0,0.0,0.0,0.0,0.0,0.0,0.0,0.0,0.0,0.0,0.0,0.0,0.0,0.0,0.0,0.0,0.0,0.0,0.0,0.0,0.0,0.0,0.0,0.0,0.0,0.0,0.0,0.0,0.0,0.0,0.0,0.0,0.0,0.0,0.0,0.0,0.0,0.0,0.0,0.0,0.0,0.0,0.0,0.0,0.0,0.0,0.0,0.0,0.0,0.0,0.0,0.0,0.0,0.0,0.0,0.0,0.0,0.0,0.0,0.0,0.0,0.0,0.0,0.0,0.0,0.0,0.0,0.0,0.0,0.0,0.0,0.0,0.0,0.0,0.0,0.0,0.0,0.0,0.0,0.0,0.0,0.0,0.0,0.0,0.0,0.0,0.0,0.0,0.0,0.0,0.0,0.0,0.0,0.0,0.0,0.0,0.0,0.0,0.0,0.0,0.0,0.0,0.0,0.0,0.0,0.0,0.0,0.0,0.0,0.0,0.0,0.0,0.0,0.0,0.0,0.0,0.0,0.0,0.0,0.0,0.0,0.0,0.0,0.0,0.0,0.0,0.0,0.0,0.0,0.0,0.0,0.0,0.0,0.0,0.0,0.0,0.0,0.0,0.0,0.0,0.0,0.0,0.0,0.0,0.0,0.0,0.0,0.0,0.0,0.0,0.0,0.0,0.0,0.0,0.0,0.0,0.0,0.0,0.0,0.0,0.0,0.0,0.0,0.0,0.0,0.0,0.0,0.0,0.0,0.0,0.0,0.0,0.0,0.0,0.0,0.0,0.0,0.0,0.0,0.0,0.0,0.0,0.0,0.0,0.0,0.0,0.0,0.0,0.0,0.0,0.0,0.0,0.0,0.0,0.0,0.0,0.0,0.0,0.0,0.0,0.0,0.0,0.0,0.0,0.0,0.0,0.0,0.0,0.0,0.0,0.0,0.0,0.0,0.0,0.0,0.0,0.0,0.0,0.0,0.0,0.0,0.0,0.0,0.0,0.0,0.0,0.0,0.0,0.0,0.0,0.0,0.0,0.0,0.0,0.0,0.0,0.0,0.0,0.0,0.0,0.0,0.0,0.0,0.0,0.0,0.0,0.0,0.0,0.0,0.0,0.0,0.0,0.0,0.0,0.0,0.0,0.0,0.0,0.0,0.0,0.0,0.0,0.0,0.0,0.0,0.0,0.0,0.0,0.0,0.0,0.0,0.0,0.0,0.0,0.0,0.0,0.0,0.0,0.0,0.0,0.0,0.0,0.0,0.0,0.0,0.0,0.0,0.0,0.0,6.3343,0.0,0.0,0.0,0.0,0.0,0.0,0.0,0.0,0.0,0.0,0.0,0.0,0.0,0.0,0.0,0.0,0.0,0.0,0.0,0.0,0.0,0.0,0.0,0.0,0.0,0.0,0.0,0.0,0.0,0.0,0.0,0.0,0.0,0.0,0.0,0.0,0.0,0.0,0.0,0.0,0.0,0.0,0.0,0.0,0.0,0.0,0.0,0.0,0.0,0.0,0.0,0.0,0.0,0.0,0.0,0.0,0.0,0.0,0.0,0.0,0.0,0.0,0.0,0.0,0.0,0.0,0.0,0.0,0.0,0.0,0.0,0.0,0.0,0.0,0.0,0.0,0.0,0.0,0.0,0.0,0.0,0.0,0.0,0.0,0.0,0.0,0.0,0.0,0.0,0.0,0.0,0.0,0.0,0.0,0.0,0.0,0.0,0.0,0.0,0.0,0.0,0.0,0.0,0.0,0.0,0.0,0.0,0.0,0.0,0.0,6.5743,6.5421,6.4962,6.4542,6.4247,0.0,0.0,0.0,0.0,0.0,0.0,0.0,0.0,0.0,0.0,0.0,0.0,0.0,0.0,0.0,0.0,0.0,0.0,0.0,0.0,0.0,0.0,0.0,0.0,0.0,0.0,0.0,0.0,0.0,0.0,0.0,0.0,0.0,0.0,0.0,0.0,0.0,0.0,0.0,0.0,0.0,0.0,0.0,0.0,0.0,0.0,0.0,0.0,0.0,0.0,0.0,0.0,0.0,0.0,0.0,0.0,0.0,0.0,0.0,0.0,0.0,0.0,0.0,0.0,0.0,0.0,0.0,0.0,0.0,0.0,0.0,0.0,0.0,0.0,0.0,0.0,0.0,0.0,0.0,0.0,0.0,0.0,0.0,0.0,0.0,0.0,0.0,0.0,0.0,0.0,0.0,0.0,0.0,0.0,0.0,0.0,0.0,0.0,0.0,0.0,0.0,0.0,0.0,0.0,0.0,0.0,0.0,0.0,0.0,0.0,0.0,0.0,6.5457,6.4895,6.4608,0.0,0.0,0.0,0.0,0.0,0.0,0.0,0.0,0.0,0.0,0.0,0.0,0.0,0.0,0.0,0.0,0.0,0.0,0.0,0.0,0.0,0.0,0.0,0.0,0.0,0.0,0.0,0.0,0.0,0.0,0.0,0.0,0.0,0.0,0.0,0.0,0.0,0.0,0.0,0.0,0.0,0.0,0.0,0.0,0.0,0.0,0.0,0.0,0.0,0.0,0.0,0.0,0.0,0.0,0.0,0.0,0.0,0.0,0.0,0.0,0.0,0.0,0.0,0.0,0.0,0.0,0.0,0.0,0.0,0.0,0.0,0.0,0.0,0.0,0.0,0.0,0.0,0.0,0.0,0.0,0.0,0.0,0.0,0.0,0.0,0.0,0.0,0.0,0.0,0.0,0.0,0.0,0.0,0.0,0.0,0.0,0.0,0.0,0.0,0.0,0.0,0.0,0.0,0.0,0.0,0.0,0.0,0.0,0.0,0.0,6.638,6.7157,6.6403,0.0,6.3933,0.0,0.0,0.0,0.0,0.0,0.0,0.0,0.0,0.0,0.0,0.0,0.0,0.0,0.0,0.0,0.0,0.0,0.0,0.0,0.0,0.0,0.0,0.0,0.0,0.0,0.0,0.0,0.0,0.0,0.0,0.0,0.0,0.0,0.0,0.0,0.0,0.0,0.0,0.0,0.0,0.0,0.0,0.0,0.0,0.0,0.0,0.0,0.0,0.0,0.0,0.0,0.0,0.0,0.0,0.0,0.0,0.0,0.0,0.0,0.0,0.0,0.0,0.0,0.0,0.0,0.0,0.0,0.0,0.0,0.0,0.0,0.0,0.0,0.0,0.0,0.0,0.0,0.0,0.0,0.0,0.0,0.0,0.0,0.0,0.0,0.0,0.0,0.0,0.0,0.0,0.0,0.0,0.0,0.0,0.0,0.0,0.0,0.0,0.0,0.0,0.0,0.0,0.0,0.0,0.0,0.0,0.0,0.0,0.0,0.0,6.6179,6.6601,6.6347,6.5424,0.0,0.0,0.0,0.0,0.0,0.0,0.0,0.0,0.0,0.0,0.0,0.0,0.0,0.0,0.0,0.0,0.0,0.0,0.0,0.0,0.0,0.0,0.0,0.0,0.0,0.0,0.0,0.0,0.0,0.0,0.0,0.0,0.0,0.0,0.0,0.0,0.0,0.0,0.0,0.0,0.0,0.0,0.0,0.0,0.0,0.0,0.0,0.0,0.0,0.0,0.0,0.0,0.0,0.0,0.0,0.0,0.0,0.0,0.0,0.0,0.0,0.0,0.0,0.0,0.0,0.0,0.0,0.0,0.0,0.0,0.0,0.0,0.0,0.0,0.0,0.0,0.0,0.0,0.0,0.0,0.0,0.0,0.0,0.0,0.0,0.0,0.0,0.0,0.0,0.0,0.0,0.0,0.0,0.0,0.0,0.0,0.0,0.0,0.0,0.0,0.0,0.0,0.0,0.0,0.0,0.0,0.0,0.0,0.0,0.0,6.6626,6.6426,6.6471,6.6358,6.5571,6.4105,0.0,0.0,0.0,0.0,0.0,0.0,0.0,0.0,0.0,0.0,0.0,0.0,0.0,0.0,0.0,0.0,0.0,0.0,0.0,0.0,0.0,0.0,0.0,0.0,0.0,0.0,0.0,0.0,0.0,0.0,0.0,0.0,0.0,0.0,0.0,0.0,0.0,0.0,0.0,0.0,0.0,0.0,0.0,0.0,0.0,0.0,0.0,0.0,0.0,0.0,0.0,0.0,0.0,0.0,0.0,0.0,0.0,0.0,0.0,0.0,0.0,0.0,0.0,0.0,0.0,0.0,0.0,0.0,0.0,0.0,0.0,0.0,0.0,0.0,0.0,0.0,0.0,0.0,0.0,0.0,0.0,0.0,0.0,0.0,0.0,0.0,0.0,0.0,0.0,0.0,0.0,0.0,0.0,0.0,0.0,0.0,0.0,0.0,0.0,0.0,0.0,0.0,0.0,0.0,0.0,0.0,0.0,0.0,6.957,6.8196,6.7415,6.7418,6.665,6.5801,0.0,0.0,0.0,0.0,0.0,0.0,0.0,0.0,0.0,0.0,0.0,0.0,0.0,0.0,0.0,0.0,0.0,0.0,0.0,0.0,0.0,0.0,0.0,0.0,0.0,0.0,0.0,0.0,0.0,0.0,0.0,0.0,0.0,0.0,0.0,0.0,0.0,0.0,0.0,0.0,0.0,0.0,0.0,0.0,0.0,0.0,0.0,0.0,0.0,0.0,0.0,0.0,0.0,0.0,0.0,0.0,0.0,0.0,0.0,0.0,0.0,0.0,0.0,0.0,0.0,0.0,0.0,0.0,0.0,0.0,0.0,0.0,0.0,0.0,0.0,0.0,0.0,0.0,0.0,0.0,0.0,0.0,0.0,0.0,0.0,0.0,0.0,0.0,0.0,0.0,0.0,0.0,0.0,0.0,0.0,0.0,0.0,0.0,0.0,0.0,0.0,0.0,0.0,0.0,0.0,0.0,0.0,0.0,0.0,6.909,6.8068,6.7789,6.8331,6.7015,6.6108,0.0,0.0,0.0,0.0,0.0,0.0,0.0,0.0,0.0,0.0,0.0,0.0,0.0,0.0,0.0,0.0,0.0,0.0,0.0,0.0,0.0,0.0,0.0,0.0,0.0,0.0,0.0,0.0,0.0,0.0,0.0,0.0,0.0,0.0,0.0,0.0,0.0,0.0,0.0,0.0,0.0,0.0,0.0,0.0,0.0,0.0,0.0,0.0,0.0,0.0,0.0,0.0,0.0,0.0,0.0,0.0,0.0,0.0,0.0,0.0,0.0,0.0,0.0,0.0,0.0,0.0,0.0,0.0,0.0,0.0,0.0,0.0,0.0,0.0,0.0,0.0,0.0,0.0,0.0,0.0,0.0,0.0,0.0,0.0,0.0,0.0,0.0,0.0,0.0,0.0,0.0,0.0,0.0,0.0,0.0,0.0,0.0,0.0,0.0,0.0,0.0,0.0,0.0,0.0,0.0,0.0,0.0,0.0,0.0,6.9161,0.0,6.8488,6.8798,6.7443,6.6534,0.0,0.0,0.0,0.0,0.0,0.0,0.0,0.0,0.0,0.0,0.0,0.0,0.0,0.0,0.0,0.0,0.0,0.0,0.0,0.0,0.0,0.0,0.0,0.0,0.0,0.0,0.0,0.0,0.0,0.0,0.0,0.0,0.0,0.0,0.0,0.0,0.0,0.0,0.0,0.0,0.0,0.0,0.0,0.0,0.0,0.0,0.0,0.0,0.0,0.0,0.0,0.0,0.0,0.0,0.0,0.0,0.0,0.0,0.0,0.0,0.0,0.0,0.0,0.0,0.0,0.0,0.0,0.0,0.0,0.0,0.0,0.0,0.0,0.0,0.0,0.0,0.0,0.0,0.0,0.0,0.0,0.0,0.0,0.0,0.0,0.0,0.0,0.0,0.0,0.0,0.0,0.0,0.0,0.0,0.0,0.0,0.0,0.0,0.0,0.0,0.0,0.0,0.0,0.0,0.0,0.0,0.0,0.0,7.006,7.0022,6.9983,6.9672,6.8893,6.8005,6.7112,0.0,0.0,0.0,0.0,0.0,0.0,0.0,0.0,0.0,0.0,0.0,0.0,0.0,0.0,0.0,0.0,0.0,0.0,0.0,0.0,0.0,0.0,0.0,0.0,0.0,0.0,0.0,0.0,0.0,0.0,0.0,0.0,0.0,0.0,0.0,0.0,0.0,0.0,0.0,0.0,0.0,0.0,0.0,0.0,0.0,0.0,0.0,0.0,0.0,0.0,0.0,0.0,0.0,0.0,0.0,0.0,0.0,0.0,0.0,0.0,0.0,0.0,0.0,0.0,0.0,0.0,0.0,0.0,0.0,0.0,0.0,0.0,0.0,0.0,0.0,0.0,0.0,0.0,0.0,0.0,0.0,0.0,0.0,0.0,0.0,0.0,0.0,0.0,0.0,0.0,0.0,0.0,0.0,0.0,0.0,0.0,0.0,0.0,0.0,0.0,0.0,0.0,0.0,0.0,0.0,0.0,0.0,0.0,0.0,7.1002,7.0927,7.108,7.1381,6.8874,6.7926,0.0,0.0,0.0,0.0,0.0,0.0,0.0,0.0,0.0,0.0,0.0,0.0,0.0,0.0,0.0,0.0,0.0,0.0,0.0,0.0,0.0,0.0,0.0,0.0,0.0,0.0,0.0,0.0,0.0,0.0,0.0,0.0,0.0,0.0,0.0,0.0,0.0,0.0,0.0,0.0,0.0,0.0,0.0,0.0,0.0,0.0,0.0,0.0,0.0,0.0,0.0,0.0,0.0,0.0,0.0,0.0,0.0,0.0,0.0,0.0,0.0,0.0,0.0,0.0,0.0,0.0,0.0,0.0,0.0,0.0,0.0,0.0,0.0,0.0,0.0,0.0,0.0,0.0,0.0,0.0,0.0,0.0,0.0,0.0,0.0,0.0,0.0,0.0,0.0,0.0,0.0,0.0,0.0,0.0,0.0,0.0,0.0,0.0,0.0,0.0,0.0,0.0,0.0,0.0,0.0,0.0,0.0,0.0,0.0,7.3198,7.3114,7.3241,7.3508,7.1073,6.969,6.9509,0.0,0.0,0.0,0.0,0.0,0.0,0.0,0.0,0.0,0.0,0.0,0.0,0.0,0.0,0.0,0.0,0.0,0.0,0.0,0.0,0.0,0.0,0.0,0.0,0.0,0.0,0.0,0.0,0.0,0.0,0.0,0.0,0.0,0.0,0.0,0.0,0.0,0.0,0.0,0.0,0.0,0.0,0.0,0.0,0.0,0.0,0.0,0.0,0.0,0.0,0.0,0.0,0.0,0.0,0.0,0.0,0.0,0.0,0.0,0.0,0.0,0.0,0.0,0.0,0.0,0.0,0.0,0.0,0.0,0.0,0.0,0.0,0.0,0.0,0.0,0.0,0.0,0.0,0.0,0.0,0.0,0.0,0.0,0.0,0.0,0.0,0.0,0.0,0.0,0.0,0.0,0.0,0.0,0.0,0.0,0.0,0.0,0.0,0.0,0.0,0.0,0.0,0.0,0.0,0.0,0.0,0.0,0.0,7.6421,7.6607,7.6217,7.5094,7.4063,7.2168,0.0,0.0,0.0,0.0,0.0,0.0,0.0,0.0,0.0,0.0,0.0,0.0,0.0,0.0,0.0,0.0,0.0,0.0,0.0,0.0,0.0,0.0,0.0,0.0,0.0,0.0,0.0,0.0,0.0,0.0,0.0,0.0,0.0,0.0,0.0,0.0,0.0,0.0,0.0,0.0,0.0,0.0,0.0,0.0,0.0,0.0,0.0,0.0,0.0,0.0,0.0,0.0,0.0,0.0,0.0,0.0,0.0,0.0,0.0,0.0,0.0,0.0,0.0,0.0,0.0,0.0,0.0,0.0,0.0,0.0,0.0,0.0,0.0,0.0,0.0,0.0,0.0,0.0,0.0,0.0,0.0,0.0,0.0,0.0,0.0,0.0,0.0,0.0,0.0,0.0,0.0,0.0,0.0,0.0,0.0,0.0,0.0,0.0,0.0,0.0,0.0,0.0,0.0,0.0,0.0,0.0,0.0,0.0,0.0,8.1421,8.2564,8.1274,7.738,7.4784,7.3087,0.0,0.0,0.0,0.0,0.0,0.0,0.0,0.0,0.0,0.0,0.0,0.0,0.0,0.0,0.0,0.0,0.0,0.0,0.0,0.0,0.0,0.0,0.0,0.0,0.0,0.0,0.0,0.0,0.0,0.0,0.0,0.0,0.0,0.0,0.0,0.0,0.0,0.0,0.0,0.0,0.0,0.0,0.0,0.0,0.0,0.0,0.0,0.0,0.0,0.0,0.0,0.0,0.0,0.0,0.0,0.0,0.0,0.0,0.0,0.0,0.0,0.0,0.0,0.0,0.0,0.0,0.0,0.0,0.0,0.0,0.0,0.0,0.0,0.0,0.0,0.0,0.0,0.0,0.0,0.0,0.0,0.0,0.0,0.0,0.0,0.0,0.0,0.0,0.0,0.0,0.0,0.0,0.0,0.0,0.0,0.0,0.0,0.0,0.0,0.0,0.0,0.0,0.0,0.0,0.0,0.0,0.0,0.0,8.1652,8.3321,8.5343,8.4648,8.1052,7.8068,7.5546,0.0,0.0,0.0,0.0,0.0,0.0,0.0,0.0,0.0,0.0,0.0,0.0,0.0,0.0,0.0,0.0,0.0,0.0,0.0,0.0,0.0,0.0,0.0,0.0,0.0,0.0,0.0,0.0,0.0,0.0,0.0,0.0,0.0,0.0,0.0,0.0,0.0,0.0,0.0,0.0,0.0,0.0,0.0,0.0,0.0,0.0,0.0,0.0,0.0,0.0,0.0,0.0,0.0,0.0,0.0,0.0,0.0,0.0,0.0,0.0,0.0,0.0,0.0,0.0,0.0,0.0,0.0,0.0,0.0,0.0,0.0,0.0,0.0,0.0,0.0,0.0,0.0,0.0,0.0,0.0,0.0,0.0,0.0,0.0,0.0,0.0,0.0,0.0,0.0,0.0,0.0,0.0,0.0,0.0,0.0,0.0,0.0,0.0,0.0,0.0,0.0,0.0,0.0,0.0,0.0,0.0,0.0,0.0,8.2812,8.3691,8.6442,8.7114,8.5411,8.2426,7.8575,0.0,0.0,0.0,0.0,0.0,0.0,0.0,0.0,0.0,0.0,0.0,0.0,0.0,0.0,0.0,0.0,0.0,0.0,0.0,0.0,0.0,0.0,0.0,0.0,0.0,0.0,0.0,0.0,0.0,0.0,0.0,0.0,0.0,0.0,0.0,0.0,0.0,0.0,0.0,0.0,0.0,0.0,0.0,0.0,0.0,0.0,0.0,0.0,0.0,0.0,0.0,0.0,0.0,0.0,0.0,0.0,0.0,0.0,0.0,0.0,0.0,0.0,0.0,0.0,0.0,0.0,0.0,0.0,0.0,0.0,0.0,0.0,0.0,0.0,0.0,0.0,0.0,0.0,0.0,0.0,0.0,0.0,0.0,0.0,0.0,0.0,0.0,0.0,0.0,0.0,0.0,0.0,0.0,0.0,0.0,0.0,0.0,0.0,0.0,0.0,0.0,0.0,0.0,0.0,0.0,0.0,0.0,0.0,8.4964,8.6818,8.9217,8.9923,8.877,8.3487,7.9193,0.0,0.0,0.0,0.0,0.0,0.0,0.0,0.0,0.0,0.0,0.0,0.0,0.0,0.0,0.0,0.0,0.0,0.0,0.0,0.0,0.0,0.0,0.0,0.0,0.0,0.0,0.0,0.0,0.0,0.0,0.0,0.0,0.0,0.0,0.0,0.0,0.0,0.0,0.0,0.0,0.0,0.0,0.0,0.0,0.0,0.0,0.0,0.0,7.2038,0.0,0.0,0.0,0.0,0.0,0.0,0.0,0.0,0.0,0.0,0.0,0.0,0.0,0.0,0.0,0.0,0.0,0.0,0.0,0.0,0.0,0.0,0.0,0.0,0.0,0.0,0.0,0.0,0.0,0.0,0.0,0.0,0.0,0.0,0.0,0.0,0.0,0.0,0.0,0.0,0.0,0.0,0.0,0.0,0.0,0.0,0.0,0.0,0.0,0.0,0.0,0.0,0.0,0.0,0.0,0.0,0.0,0.0,0.0,8.6183,8.8317,9.0225,9.0773,8.9695,8.5233,8.107,0.0,0.0,0.0,0.0,0.0,0.0,0.0,0.0,0.0,0.0,0.0,0.0,0.0,0.0,0.0,0.0,0.0,0.0,0.0,0.0,0.0,0.0,0.0,0.0,0.0,0.0,0.0,0.0,0.0,0.0,0.0,0.0,0.0,0.0,0.0,0.0,0.0,0.0,0.0,0.0,0.0,0.0,0.0,0.0,0.0,0.0,0.0,0.0,0.0,0.0,0.0,0.0,0.0,0.0,0.0,0.0,0.0,0.0,0.0,0.0,0.0,0.0,0.0,0.0,0.0,0.0,0.0,0.0,0.0,0.0,0.0,0.0,0.0,0.0,0.0,0.0,0.0,0.0,0.0,0.0,0.0,0.0,0.0,0.0,0.0,0.0,0.0,0.0,0.0,0.0,0.0,0.0,0.0,0.0,0.0,0.0,0.0,0.0,0.0,0.0,0.0,0.0,0.0,0.0,0.0,0.0,0.0,8.4306,8.7044,8.9418,9.0659,9.093,9.0175,8.6953,8.3083,0.0,0.0,0.0,0.0,0.0,0.0,0.0,0.0,0.0,0.0,0.0,0.0,0.0,0.0,0.0,0.0,0.0,0.0,0.0,0.0,0.0,0.0,0.0,0.0,0.0,0.0,0.0,0.0,0.0,0.0,0.0,0.0,0.0,0.0,0.0,0.0,0.0,0.0,0.0,7.1518,7.2793,0.0,0.0,0.0,0.0,0.0,0.0,0.0,0.0,7.4658,0.0,0.0,0.0,0.0,0.0,0.0,0.0,0.0,0.0,0.0,0.0,0.0,0.0,0.0,0.0,0.0,0.0,0.0,0.0,0.0,0.0,0.0,0.0,0.0,0.0,0.0,0.0,0.0,0.0,0.0,0.0,0.0,0.0,0.0,0.0,0.0,0.0,0.0,0.0,0.0,0.0,0.0,0.0,0.0,0.0,0.0,0.0,0.0,0.0,0.0,0.0,0.0,0.0,0.0,0.0,0.0,8.2643,8.5294,8.828,9.1632,9.1982,9.2029,9.1773,8.7619,8.365,8.0202,0.0,0.0,0.0,0.0,0.0,0.0,0.0,0.0,0.0,0.0,0.0,0.0,0.0,0.0,0.0,0.0,0.0,0.0,0.0,0.0,0.0,0.0,0.0,0.0,0.0,0.0,0.0,0.0,0.0,0.0,0.0,0.0,0.0,0.0,0.0,0.0,0.0,0.0,0.0,7.3461,7.3891,0.0,0.0,0.0,0.0,0.0,0.0,0.0,0.0,7.3812,0.0,0.0,0.0,0.0,0.0,0.0,0.0,0.0,0.0,0.0,0.0,0.0,0.0,0.0,0.0,0.0,0.0,0.0,0.0,0.0,0.0,0.0,0.0,0.0,0.0,0.0,0.0,0.0,0.0,0.0,0.0,0.0,0.0,0.0,0.0,0.0,0.0,0.0,0.0,0.0,0.0,0.0,0.0,0.0,0.0,0.0,0.0,0.0,0.0,0.0,0.0,0.0,0.0,0.0,0.0,8.3663,8.6935,9.0033,9.2851,9.2977,9.2753,9.2222,8.8125,8.4551,0.0,0.0,0.0,0.0,0.0,0.0,0.0,0.0,0.0,0.0,0.0,0.0,0.0,0.0,0.0,0.0,0.0,0.0,0.0,0.0,0.0,0.0,0.0,0.0,0.0,0.0,0.0,0.0,0.0,0.0,0.0,0.0,0.0,0.0,0.0,0.0,0.0,0.0,0.0,0.0,7.4621,7.5106,7.5678,0.0,0.0,0.0,0.0,0.0,0.0,7.4815,7.5333,0.0,0.0,0.0,0.0,0.0,0.0,0.0,0.0,0.0,0.0,0.0,0.0,0.0,0.0,0.0,0.0,0.0,0.0,0.0,0.0,0.0,0.0,0.0,0.0,0.0,0.0,0.0,0.0,0.0,0.0,0.0,0.0,0.0,0.0,0.0,0.0,0.0,0.0,0.0,0.0,0.0,0.0,0.0,0.0,0.0,0.0,0.0,0.0,0.0,0.0,0.0,0.0,0.0,0.0,0.0,8.4806,8.8416,9.1435,9.3719,9.3704,9.3166,9.2263,8.8511,8.5259,0.0,0.0,0.0,0.0,0.0,0.0,0.0,0.0,0.0,0.0,0.0,0.0,0.0,0.0,0.0,0.0,0.0,0.0,0.0,0.0,0.0,0.0,0.0,0.0,0.0,0.0,0.0,0.0,0.0,0.0,0.0,0.0,0.0,0.0,0.0,0.0,0.0,0.0,0.0,0.0,0.0,7.6903,7.7311,7.6724,0.0,0.0,0.0,0.0,7.4776,7.6697,0.0,0.0,0.0,0.0,0.0,0.0,0.0,0.0,0.0,0.0,0.0,0.0,0.0,0.0,0.0,0.0,0.0,0.0,0.0,0.0,0.0,0.0,0.0,0.0,0.0,0.0,0.0,0.0,0.0,0.0,0.0,0.0,0.0,0.0,0.0,0.0,0.0,0.0,0.0,0.0,0.0,0.0,0.0,0.0,0.0,0.0,0.0,0.0,0.0,0.0,0.0,0.0,0.0,0.0,0.0,0.0,8.6352,8.8845,9.159,9.4433,9.3972,9.3173,9.2301,8.8703,8.5223,0.0,0.0,0.0,0.0,0.0,0.0,0.0,0.0,0.0,0.0,0.0,0.0,0.0,0.0,0.0,0.0,0.0,0.0,0.0,0.0,0.0,0.0,0.0,0.0,0.0,0.0,0.0,0.0,0.0,0.0,0.0,0.0,0.0,0.0,0.0,0.0,0.0,0.0,0.0,0.0,0.0,7.9292,7.915,7.8537,7.7693,0.0,0.0,0.0,7.6258,7.8204,0.0,0.0,0.0,0.0,0.0,0.0,0.0,0.0,0.0,0.0,0.0,0.0,0.0,0.0,0.0,0.0,0.0,0.0,0.0,0.0,0.0,0.0,0.0,0.0,0.0,0.0,0.0,0.0,0.0,0.0,0.0,0.0,0.0,0.0,0.0,0.0,0.0,0.0,0.0,0.0,0.0,0.0,0.0,0.0,0.0,0.0,0.0,0.0,0.0,0.0,0.0,0.0,0.0,0.0,0.0,0.0,8.6747,9.0227,9.297,9.4692,9.4462,9.3666,9.2333,8.8607,8.5281,0.0,0.0,0.0,0.0,0.0,0.0,0.0,0.0,0.0,0.0,0.0,0.0,0.0,0.0,0.0,0.0,0.0,0.0,0.0,0.0,0.0,0.0,0.0,0.0,0.0,0.0,0.0,0.0,0.0,0.0,0.0,0.0,0.0,0.0,0.0,0.0,0.0,0.0,0.0,0.0,0.0,0.0,7.9489,7.9616,0.0,0.0,0.0,7.8466,7.7446,0.0,0.0,0.0,0.0,0.0,0.0,0.0,0.0,0.0,0.0,0.0,0.0,0.0,0.0,0.0,0.0,0.0,0.0,0.0,0.0,0.0,0.0,0.0,0.0,0.0,0.0,0.0,0.0,0.0,0.0,0.0,0.0,0.0,0.0,0.0,0.0,0.0,0.0,0.0,0.0,0.0,0.0,0.0,0.0,0.0,0.0,0.0,0.0,0.0,0.0,0.0,0.0,0.0,0.0,0.0,0.0,0.0,8.7091,9.1537,9.4196,9.4765,9.5024,9.4228,9.2304,8.875,0.0,0.0,0.0,0.0,0.0,0.0,0.0,0.0,0.0,0.0,0.0,0.0,0.0,0.0,0.0,0.0,0.0,0.0,0.0,0.0,0.0,0.0,0.0,0.0,0.0,0.0,0.0,0.0,0.0,0.0,0.0,0.0,0.0,0.0,0.0,0.0,0.0,0.0,0.0,0.0,0.0,0.0,8.1189,8.0138,8.0964,8.1364,0.0,0.0,8.0364,7.9259,8.0844,8.1067,0.0,0.0,0.0,0.0,0.0,0.0,0.0,0.0,0.0,0.0,0.0,0.0,0.0,0.0,0.0,0.0,0.0,0.0,0.0,0.0,0.0,0.0,0.0,0.0,0.0,0.0,0.0,0.0,0.0,0.0,0.0,0.0,0.0,0.0,0.0,0.0,0.0,0.0,0.0,0.0,0.0,0.0,0.0,0.0,0.0,0.0,0.0,0.0,0.0,0.0,0.0,0.0,0.0,0.0,0.0,8.7994,9.2414,9.4724,9.48,9.5586,9.4828,9.2336,8.926,8.6464,0.0,0.0,0.0,0.0,0.0,0.0,0.0,0.0,0.0,0.0,0.0,0.0,0.0,0.0,0.0,0.0,0.0,0.0,0.0,0.0,0.0,0.0,0.0,0.0,0.0,0.0,0.0,0.0,0.0,0.0,0.0,0.0,0.0,0.0,0.0,0.0,0.0,0.0,0.0,0.0,0.0,8.2772,8.1765,8.3084,8.4012,0.0,0.0,8.175,8.2197,8.3614,8.3314,7.9389,0.0,0.0,0.0,0.0,0.0,0.0,0.0,0.0,0.0,0.0,0.0,0.0,0.0,0.0,0.0,0.0,0.0,0.0,0.0,0.0,0.0,0.0,0.0,0.0,0.0,0.0,0.0,0.0,0.0,0.0,0.0,0.0,0.0,0.0,0.0,0.0,0.0,0.0,0.0,0.0,0.0,0.0,0.0,0.0,0.0,0.0,0.0,0.0,0.0,0.0,0.0,0.0,0.0,8.7192,8.7907,9.2974,9.5362,9.4875,9.5662,9.49,9.2367,8.9757,8.7035,0.0,0.0,0.0,0.0,0.0,0.0,0.0,0.0,0.0,0.0,0.0,0.0,0.0,0.0,0.0,0.0,0.0,0.0,0.0,0.0,0.0,0.0,0.0,0.0,0.0,0.0,0.0,0.0,6.5916,6.6945,6.8091,0.0,0.0,0.0,0.0,0.0,0.0,0.0,0.0,0.0,0.0,8.3389,8.3814,8.4973,0.0,0.0,8.4942,8.4326,8.3542,8.3392,8.2415,7.9517,7.783,0.0,0.0,0.0,0.0,0.0,0.0,0.0,0.0,0.0,0.0,0.0,0.0,0.0,0.0,0.0,0.0,0.0,0.0,0.0,0.0,0.0,0.0,0.0,0.0,0.0,0.0,0.0,0.0,0.0,0.0,0.0,0.0,0.0,0.0,0.0,0.0,0.0,0.0,0.0,0.0,0.0,0.0,0.0,0.0,0.0,0.0,0.0,0.0,0.0,0.0,0.0,0.0,8.7982,8.8575,9.3784,9.6037,9.521,9.5999,9.5128,9.2374,8.9986,8.7364,0.0,0.0,0.0,0.0,0.0,0.0,0.0,0.0,0.0,0.0,0.0,0.0,0.0,0.0,0.0,0.0,0.0,0.0,0.0,0.0,0.0,0.0,0.0,0.0,0.0,0.0,0.0,0.0,6.7094,6.8045,6.901,0.0,0.0,0.0,0.0,0.0,0.0,0.0,0.0,0.0,0.0,8.407,8.48,8.566,8.6139,8.5725,8.5317,8.4766,8.4009,8.3163,8.1756,7.9432,0.0,0.0,0.0,0.0,0.0,0.0,0.0,0.0,0.0,0.0,0.0,0.0,0.0,0.0,0.0,0.0,0.0,0.0,0.0,0.0,0.0,0.0,0.0,0.0,0.0,0.0,0.0,0.0,0.0,0.0,0.0,0.0,0.0,0.0,0.0,0.0,0.0,0.0,0.0,0.0,0.0,0.0,0.0,0.0,0.0,0.0,0.0,0.0,0.0,0.0,0.0,0.0,0.0,0.0,9.0274,9.4841,9.6868,9.6113,9.6833,9.5662,9.2412,8.9907,8.7405,8.4793,0.0,0.0,0.0,0.0,0.0,0.0,0.0,0.0,0.0,0.0,0.0,0.0,0.0,0.0,0.0,0.0,0.0,0.0,0.0,0.0,0.0,0.0,0.0,0.0,0.0,0.0,6.7047,6.8093,6.8783,0.0,0.0,0.0,0.0,0.0,0.0,0.0,0.0,0.0,0.0,8.2705,8.4922,8.4356,8.4982,8.5319,8.4416,8.309,8.2514,8.3774,8.3232,8.1829,0.0,0.0,0.0,0.0,0.0,0.0,0.0,0.0,0.0,0.0,0.0,0.0,0.0,0.0,0.0,0.0,0.0,0.0,0.0,0.0,0.0,0.0,0.0,0.0,0.0,0.0,0.0,0.0,0.0,0.0,0.0,0.0,0.0,0.0,0.0,0.0,0.0,0.0,0.0,0.0,7.5593,7.6183,0.0,0.0,0.0,0.0,0.0,0.0,0.0,0.0,0.0,0.0,0.0,0.0,8.8936,9.0286,9.4845,9.6906,9.6113,9.6378,9.5431,9.3204,9.1274,8.8006,8.3292,0.0,0.0,0.0,0.0,0.0,0.0,0.0,0.0,0.0,0.0,0.0,0.0,0.0,0.0,0.0,0.0,0.0,0.0,0.0,0.0,0.0,0.0,0.0,0.0,0.0,6.7266,0.0,0.0,0.0,0.0,0.0,0.0,0.0,0.0,0.0,0.0,0.0,7.7081,8.054,8.2633,8.431,8.5625,8.6492,8.7083,0.0,0.0,0.0,0.0,0.0,0.0,0.0,0.0,0.0,0.0,0.0,0.0,0.0,0.0,7.8963,7.6889,7.616,7.5813,7.5728,0.0,0.0,0.0,0.0,0.0,0.0,0.0,0.0,0.0,0.0,0.0,0.0,0.0,0.0,0.0,0.0,7.0216,0.0,0.0,0.0,0.0,0.0,0.0,0.0,0.0,7.6341,7.7008,7.6994,7.7813,7.7997,0.0,7.7425,7.7473,0.0,0.0,0.0,0.0,0.0,0.0,0.0,0.0,8.9253,9.0966,9.502,9.6961,9.6523,9.6527,9.5434,9.3204,9.0581,8.7125,8.2758,8.0154,7.783,0.0,0.0,0.0,0.0,0.0,0.0,0.0,0.0,0.0,0.0,0.0,0.0,0.0,0.0,0.0,0.0,0.0,0.0,0.0,0.0,0.0,0.0,0.0,6.8715,0.0,0.0,0.0,0.0,0.0,0.0,0.0,0.0,0.0,7.537,7.6475,7.8634,8.2329,8.3857,8.5034,8.6075,0.0,0.0,0.0,0.0,0.0,0.0,0.0,8.2662,8.2093,8.0832,8.0235,8.126,8.1372,8.1378,8.1628,0.0,0.0,7.8382,7.7735,7.7461,7.7382,7.84,7.9183,7.8665,7.9561,8.0465,0.0,0.0,0.0,0.0,0.0,0.0,0.0,0.0,6.9559,7.0106,0.0,0.0,0.0,0.0,0.0,0.0,0.0,0.0,0.0,0.0,7.7135,7.776,7.7838,7.8762,7.9131,0.0,8.0084,8.0144,7.9241,7.573,0.0,0.0,0.0,0.0,0.0,0.0,8.9503,9.252,9.5367,9.701,9.7255,9.7192,9.5604,9.2349,8.8183,8.5185,8.3326,8.0762,7.8623,7.7127,7.5494,0.0,0.0,0.0,0.0,0.0,0.0,0.0,0.0,0.0,0.0,0.0,0.0,0.0,0.0,0.0,0.0,0.0,0.0,0.0,0.0,6.9973,0.0,0.0,0.0,0.0,0.0,0.0,0.0,0.0,0.0,0.0,7.7311,7.8957,8.1223,8.4238,0.0,0.0,0.0,0.0,8.5866,8.3771,8.3392,8.3395,8.3293,8.3147,8.2998,8.2892,0.0,0.0,8.2636,8.2008,8.1727,8.2348,8.1773,8.1101,8.1177,8.0413,7.9853,7.9928,8.0484,8.0926,8.1058,8.1642,8.2391,7.4362,0.0,0.0,0.0,0.0,7.2752,7.3339,7.3553,7.3891,7.3953,7.381,7.2833,0.0,0.0,0.0,0.0,0.0,0.0,7.7758,7.8738,8.0324,8.0974,8.0904,8.1752,8.1552,8.0457,8.019,7.9942,7.9614,7.8131,7.8181,7.978,0.0,0.0,0.0,0.0,9.1119,9.3574,9.52,9.6295,9.6976,9.5846,9.4225,9.2075,9.0227,8.7875,8.4952,8.2852,8.0762,7.8575,7.6381,0.0,0.0,0.0,0.0,0.0,0.0,0.0,0.0,0.0,0.0,0.0,0.0,0.0,0.0,0.0,0.0,0.0,0.0,0.0,6.9872,7.0205,7.0334,0.0,0.0,0.0,0.0,0.0,0.0,0.0,0.0,0.0,8.07,8.0359,8.0967,0.0,0.0,8.5093,8.4679,8.5853,8.6614,8.629,0.0,0.0,0.0,8.5989,8.529,8.5746,8.531,8.4873,8.4868,8.4589,8.4245,8.3907,8.4053,8.412,8.3442,8.182,8.0822,8.1299,8.2007,8.2722,8.328,8.4027,8.4648,7.7798,7.5119,7.4853,7.4518,7.4283,7.5271,7.5721,7.5858,7.6019,7.6008,7.5784,7.4658,7.407,7.3931,7.4113,0.0,0.0,0.0,7.9471,8.0927,8.2189,8.2908,8.3186,8.3646,8.3353,8.2435,8.1937,8.153,8.1236,8.1279,8.1607,0.0,0.0,0.0,8.6302,8.9179,9.1647,9.3587,9.475,9.5657,9.6359,9.4778,9.3272,9.1955,9.0732,8.878,8.6052,8.4125,8.2017,7.9714,7.781,7.6202,0.0,0.0,0.0,0.0,0.0,0.0,0.0,0.0,0.0,0.0,0.0,6.7597,0.0,0.0,0.0,0.0,7.0474,7.1035,7.0704,7.1058,0.0,0.0,0.0,0.0,0.0,0.0,0.0,7.7324,7.8963,8.0706,8.2671,8.2645,8.3142,8.5145,8.5594,8.5681,8.5518,0.0,8.7959,8.8046,8.8129,8.8304,8.8727,8.7496,8.6504,8.665,8.6325,8.5984,8.5734,8.5172,8.4599,8.4525,8.4785,8.4971,8.4484,8.3407,8.2779,8.3336,8.4079,8.4766,8.5218,8.5958,8.6657,8.0795,8.0005,7.8252,7.7469,7.7413,7.7413,7.7532,7.7615,7.6852,7.6856,7.7362,7.5858,7.5572,7.6211,7.646,0.0,0.0,7.9799,8.1,8.2521,8.3242,8.3976,8.4682,8.4678,8.4641,8.4572,8.4609,8.4238,8.3654,8.467,8.5366,8.5544,8.5127,8.589,8.7767,8.9805,9.1529,9.303,9.4167,9.5007,9.5435,9.4006,9.2802,9.186,9.0224,8.8527,8.6787,8.485,8.2835,8.0746,7.9594,7.8023,7.5973,0.0,0.0,0.0,0.0,0.0,0.0,0.0,0.0,0.0,0.0,0.0,0.0,0.0,0.0,0.0,7.1596,0.0,7.163,7.243,0.0,0.0,0.0,7.4714,7.5507,7.7008,7.8569,8.0013,0.0,0.0,0.0,0.0,8.6805,8.7556,8.7841,8.7855,8.7483,8.8699,8.9505,8.8985,8.9005,8.9008,8.895,8.7974,8.7046,8.647,8.6211,8.6217,8.5934,8.4822,8.4079,8.4562,8.4674,8.4711,8.4636,8.5227,8.5788,8.5747,8.6267,8.6704,8.6724,8.7433,8.8223,8.3059,8.343,8.2952,8.1734,8.0067,8.0067,8.0462,8.0938,8.0163,7.9617,7.9143,7.8148,7.748,7.7069,7.7743,7.8941,8.0517,8.1325,8.2851,8.4874,8.5123,8.5306,8.5535,8.5494,8.5205,8.4646,8.4609,8.4792,8.5278,8.6121,8.6955,8.7775,8.8971,8.9715,8.9968,9.1235,9.2554,9.402,9.391,9.3937,9.4126,9.3796,9.2861,9.1409,9.0844,8.9487,8.7238,8.6098,8.4634,8.2762,8.086,7.9254,7.8021,7.639,0.0,0.0,0.0,0.0,0.0,0.0,0.0,0.0,0.0,6.8568,6.8843,0.0,7.0955,0.0,7.1948,7.2842,7.3883,7.3635,0.0,0.0,7.5427,7.6499,7.8551,7.9481,8.0384,8.1466,8.3216,8.4763,8.5935,8.7475,8.8823,8.9639,8.9222,8.879,8.8705,8.963,9.0083,8.9503,8.9722,8.9863,8.9323,8.8664,8.7995,8.7678,8.7613,8.7619,8.7505,8.7196,8.6791,8.6416,8.6791,8.6899,8.6305,8.6903,8.7423,8.746,8.7159,8.6999,8.7625,8.8428,8.9036,8.4201,8.4609,8.4609,8.4017,8.3104,8.2733,8.2843,8.3214,8.2806,8.1966,8.0803,7.9625,7.9062,7.9014,7.9837,8.1081,8.2623,8.3438,8.4723,8.6297,8.671,8.6669,8.6371,8.6705,8.6444,8.5702,8.5669,8.6077,8.6857,8.7321,8.8224,8.9592,9.1031,9.1858,9.2133,9.277,9.3711,9.4974,9.4344,9.391,9.3625,9.3629,9.2993,9.1691,9.1238,8.9993,8.7887,8.701,8.5589,8.3584,8.1917,8.0161,7.8338,7.6958,7.5255,0.0,0.0,0.0,0.0,0.0,0.0,0.0,0.0,0.0,0.0,0.0,7.2709,0.0,0.0,0.0,7.5918,7.5832,7.6095,7.6998,7.7335,7.8312,8.0348,8.1144,8.2115,8.3686,8.537,8.6741,8.7625,8.924,9.0487,9.0986,9.0909,9.0628,9.0129,9.0724,9.1245,9.1092,9.0936,9.0397,8.9197,8.8714,8.8417,8.8128,8.7757,8.7531,8.7493,8.7196,8.6829,8.6412,8.6977,8.7382,8.6932,8.7427,8.8052,8.8333,8.8055,8.79,8.83,8.8813,8.9258,8.4825,8.4903,8.4898,8.5306,8.5898,8.5196,8.4866,8.4756,8.4641,8.3801,8.2415,8.1024,8.0795,8.1485,8.2186,8.3324,8.4792,8.5567,8.6371,8.717,8.7871,8.7867,8.7353,8.7912,8.7871,8.7312,8.7308,8.7679,8.8349,8.8459,8.9359,9.103,9.2029,9.3066,9.4135,9.4389,9.4821,9.5479,9.4938,9.4279,9.3503,9.3462,9.3055,9.2196,9.1363,9.0228,8.8645,8.7601,8.6061,8.3973,8.2802,8.0946,7.8245,7.7281,7.5836,0.0,7.3457,0.0,0.0,0.0,0.0,0.0,0.0,0.0,0.0,7.3418,7.4644,7.6269,7.6925,7.7426,7.78,7.8329,7.8683,7.876,7.9281,8.0248,8.1842,8.2686,8.3943,8.6135,8.7395,8.8302,8.907,9.0716,9.1804,9.1906,9.2389,9.2299,9.142,9.1636,9.22,9.2815,9.1809,9.0175,8.8827,8.8466,8.8357,8.8072,8.7568,8.6973,8.7081,8.6527,8.6007,8.6082,8.6612,8.6964,8.6935,8.7388,8.7955,8.8601,8.8692,8.8778,8.8983,8.9284,8.9716,8.5963,8.6546,8.6546,8.6615,8.6762,8.6615,8.6187,8.5531,8.4866,8.4425,8.4127,8.3838,8.376,8.3907,8.4091,8.4682,8.5608,8.6407,8.7211,8.7981,8.8133,8.8459,8.889,8.8418,8.8454,8.8923,8.8923,8.9033,8.9184,8.9849,9.0683,9.1725,9.2673,9.4003,0.0,0.0,0.0,0.0,9.447,9.4067,9.3292,9.3255,9.2882,9.2062,9.1075,0.0,8.9144,8.7667,8.6362,8.5239,8.3284,0.0,0.0,0.0,0.0,0.0,0.0,0.0,0.0,0.0,0.0,0.0,7.6013,7.5428,7.4254,7.5483,7.6962,7.8456,7.871,7.9037,7.9634,7.9786,8.0389,8.1664,8.1818,8.2718,8.5032,8.5255,8.5968,8.782,8.8785,8.9681,9.0608,9.1797,9.2538,9.2674,9.2881,9.2608,9.1698,9.1834,9.1865,9.141,9.0195,8.8959,8.8272,8.8196,8.8189,8.8059,8.8017,8.7832,8.7791,8.772,8.7609,8.7568,8.7599,8.759,8.7582,8.7594,8.7718,8.7984,8.8568,8.9103,8.9673,9.0447,9.1036,8.783,0.0,8.8193,8.7973,0.0,0.0,8.7142,8.6371,8.5963,8.5563,8.5164,8.4788,8.4792,8.52,8.52,8.5861,8.6999,8.7394,8.8014,8.8785,8.9193,8.9367,8.94,8.9372,8.9367,8.94,8.94,8.9615,9.0032,9.0844,9.1661,9.251,9.3869,9.5005,9.593,9.663,9.6225,9.4804,9.4859,9.4301,9.3156,9.3123,9.29,9.2486,0.0,0.0,0.0,0.0,0.0,0.0,0.0,0.0,0.0,0.0,0.0,7.7122,7.6594,7.63,7.6231,7.6155,7.664,7.779,7.8164,7.7927,7.6806,7.7727,7.8718,7.9534,7.9948,8.0361,8.0793,8.1458,8.2227,8.3038,8.3369,8.4191,8.5733,8.627,8.6923,8.8207,8.9585,9.0658,9.1145,9.2181,9.2843,9.2938,9.262,9.2208,9.1803,9.1798,9.1484,9.0372,8.9679,8.891,8.8248,8.8092,8.8092,8.8092,8.8092,8.8092,8.8092,8.8092,8.8092,8.8088,8.8013,8.7954,8.7942,8.7782,8.7891,8.8684,8.9144,8.9728,9.0606,9.1139,9.1402,8.94,8.94,8.94,8.9037,8.8418,8.839,8.8014,8.7422,0.0,0.0,0.0,8.5527,8.5673,8.6407,8.6448,8.7146,8.839,8.8573,8.8968,8.9624,9.0285,9.0322,8.9845,9.0363,9.0326,8.9845,8.9803,9.0253,9.1023,9.1767,9.2583,9.3584,9.5028,9.5819,9.6059,9.7029,9.6885,9.5607,9.5456,9.4627,9.3066,9.2988,9.2988,9.2988,9.139,9.0503,9.0466,8.8942,8.7349,8.571,8.4792,8.3343,8.1173,8.0128,7.9332,7.8759,7.8558,7.8427,7.8314,7.8227,7.8465,7.9139,7.9839,7.9992,7.9388,7.9737,8.0194,8.0562,8.1215,8.1723,8.2025,8.3069,8.3831,8.3983,8.448,8.5168,8.6127,8.6811,8.7578,8.8613,9.0155,9.126,9.1462,9.2359,9.2988,9.2881,9.2286,9.1539,9.1349,9.1172,9.0667,8.9402,8.9138,8.9058,8.8396,8.8092,8.8092,8.8092,8.8092,8.8092,8.8092,8.8092,8.8092,8.8092,8.8057,8.799,8.7945,8.7754,8.8138,8.9462,8.9728,9.0092,9.1264,9.1516,9.1508,8.94,8.94,8.94,8.9322,8.9221,8.9216,8.9179,8.8959,8.7606,8.7316,8.7835,8.7733,8.8124,8.889,8.8886,8.9033,8.929,8.9959,9.0331,0.0,9.0546,9.0918,9.14,9.0881,9.0922,9.1436,9.1473,9.1909,9.268,9.2868,9.368,9.5011,9.5411,9.5988,9.6786,9.7188,9.6945,9.6172,9.566,9.4622,9.3029,9.2988,9.2988,9.2918,9.1357,9.0503,9.0466,8.8938,8.7312,8.5669,8.4694,8.3365,8.1708,8.0576,7.9881,7.9778,7.9652,7.9562,7.9547,7.952,7.986,8.0636,8.1391,8.155,8.0807,8.0779,8.1419,8.2721,8.299,8.3398,8.4088,8.4337,8.4733,8.532,8.5589,8.6232,8.7586,8.7912,8.8564,8.9968,9.0777,9.1523,9.2094,9.2647,9.2971,9.2872,9.2237,9.1242,9.0127,8.9648,8.9244,8.85,8.8313,8.825,8.8145,8.8092,8.8092,8.8092,8.8084,8.8068,8.8072,8.8068,8.8064,8.808,8.7838,8.7677,8.7599,8.7335,8.7771,8.8742,8.936,9.009,9.1027,9.153,9.1885,9.0693,9.0693,9.0698,9.0436,9.0028,8.9583,8.94,8.9326,8.8629,8.8491,8.8817,8.8858,8.9037,8.9363,8.94,8.962,9.0065,9.0436,9.0844,9.1253,9.1257,9.1436,9.173,9.1436,9.1436,9.1808,9.2281,9.2716,9.312,9.3964,9.4997,9.6144,9.7021,9.7525,9.7647,9.7741,9.7258,9.615,9.5534,9.4711,9.3698,9.3215,9.2988,9.2996,9.1309,9.0403,9.0361,8.8719,8.7226,8.6037,8.5152,8.4106,8.2952,8.1907,8.1287,8.132,8.1177,8.1097,8.1093,8.1093,8.1273,8.1632,8.2402,8.2692,8.2362,8.2284,8.2618,8.3348,8.3793,8.4201,8.4568,8.5017,8.5416,8.5755,8.6187,8.6921,8.7981,8.8638,8.9335,9.0422,9.1237,9.1818,9.2183,9.2586,9.2847,9.2785,9.2171,9.1093,8.957,8.9273,8.9013,8.8281,8.8092,8.8092,8.8092,8.8092,8.8092,8.8092,8.8006,8.7954,8.7946,8.7946,8.7874,8.7806,8.7701,8.7645,8.7567,8.7779,8.8268,8.8964,8.9813,9.056,9.1244,9.1714,9.1871,9.2028,9.2359,9.217,9.173,9.1097,9.0285,8.9955,8.995,8.995,8.995,8.9913,8.9771,8.9767,8.9955,8.995,9.0289,9.0844,9.106,9.1395,9.1767,9.1987,9.2097,9.2065,9.1918,9.1996,9.2354,9.2868,9.3262,9.3776,9.5098,9.6277,9.7268,9.8474,9.8888,9.8381,9.8238,9.7565,9.6501,9.5481,9.4686,9.4084,9.328,9.2868,9.2752,9.1144,9.0222,9.014,8.8462,8.7136,8.6352,8.5688,8.4963,8.4139,8.3356,8.2822,8.2663,8.2517,8.2484,8.2484,8.2631,8.2741,8.2741,8.3316,8.3683,8.3679,8.3862,8.3936,8.4013,8.4527,8.4935,8.5229,8.5673,8.6086,8.6122,8.6811,8.7573,8.8385,8.9188,8.9955,9.0789,9.1607,9.2109,9.2202,9.2483,9.2631,9.241,9.1981,9.1037,8.967,8.9262,8.8869,8.8281,8.8029,8.8025,8.8029,8.7982,8.7966,8.7974,8.783,8.775,8.7734,8.7734,8.7697,8.7563,8.7612,8.7698,8.7756,8.8111,8.8829,8.9637,9.0347,9.0978,9.1601,9.1753,9.1812,9.2684,9.3868,9.3267,9.2937,9.2753,9.1946,9.1546,9.1583,9.1583,9.1588,9.151,9.0812,9.0922,9.151,9.1546,9.1583,9.1767,9.2496,9.2469,9.1991,9.2611,9.2978,9.29,9.2212,9.2579,9.379,9.3455,9.3923,9.5208,9.6203,9.7378,9.8736,9.9061,9.9108,9.8949,9.8339,9.7963,9.7919,9.5737,9.4248,9.3646,9.2868,9.2461,9.2429,9.0897,9.003,9.003,8.8396,8.7132,8.6381,8.6123,8.559,8.4788,8.4501,8.4075,8.3373,8.3316,8.3275,8.3348,8.3944,8.4315,8.4384,8.4384,8.4495,8.4535,8.5159,8.5567,8.5567,8.5604,8.5967,8.6656,8.6803,8.6839,8.6913,8.7541,8.8422,8.9184,8.9991,9.0808,9.1583,9.1893,9.219,9.2318,9.2513,9.2425,9.2072,9.1857,9.1108,8.9697,8.9185,8.8729,8.8078,8.781,8.781,8.7802,8.7644,8.762,8.7583,8.755,8.753,8.7563,8.7526,8.7514,8.7505,8.7423,8.7581,8.812,8.8434,8.8827,9.0048,9.0609,9.0913,9.1555,9.1812,9.1812,9.3429,9.4034,9.389,9.379,9.3717,9.2905,9.2831,9.324,9.2758,9.2836,9.3203,9.2905,9.2716,9.2537,9.2028,9.2322,9.3203,9.2615,9.2721,9.3203,9.3198,9.334,9.3712,9.346,9.3685,9.4304,9.4442,9.5093,9.6313,9.7965,9.9181,9.98,10.0246,10.0283,9.9805,9.9035,9.8423,9.7954,9.5629,9.4237,9.3924,9.296,9.2414,9.229,9.1194,9.0543,9.0387,8.8827,8.7773,8.7393,8.6483,8.5747,8.5412,8.4899,8.4458,8.4127,8.4123,8.4087,8.4123,8.4421,8.4609,8.4609,8.5054,8.5311,8.5384,8.6485,8.7031,8.6591,8.6513,8.6656,8.6982,8.7019,8.7174,8.761,8.8018,8.8716,8.9996,9.0395,9.0918,9.1661,9.1876,9.1948,9.2047,9.2206,9.2331,9.2268,9.2199,9.1498,9.0016,8.97,8.9087,8.7965,8.7563,8.7542,8.7608,8.7559,8.7505,8.7485,8.7415,8.7389,8.7381,8.7389,8.7385,8.7385,8.7396,8.7644,8.832,8.8815,8.9294,9.04,9.1101,9.1436,9.1739,9.1812,9.1812,9.4184,9.4547,9.4618,9.4634,9.4556,9.3786,9.3753,9.4199,9.3675,9.3753,9.4267,9.4304,9.4121,9.3675,9.2868,9.3207,9.4047,9.3272,9.335,9.4231,9.3928,9.4079,9.4598,9.4382,9.4529,9.5002,9.5543,9.646,9.7713,9.9328,10.0434,10.0691,10.121,10.1205,10.0586,9.9654,9.8809,9.809,9.5841,9.452,9.4199,9.3183,9.2478,9.2174,9.1314,9.0829,9.0756,8.9341,8.8528,8.8495,8.7178,8.6448,8.6412,8.571,8.5155,8.4939,8.4943,8.4907,8.4943,8.5123,8.527,8.5302,8.582,8.6122,8.6375,8.7399,8.7876,8.7468,8.7496,8.7565,8.7019,8.7202,8.7614,8.8133,8.8532,8.9376,9.04,9.073,9.1179,9.1698,9.1822,9.1835,9.1903,9.2083,9.2325,9.2519,9.2491,9.1947,9.0423,8.996,8.9368,8.7763,8.7314,8.7285,8.7386,8.7357,8.7369,8.7336,8.7259,8.7233,8.7241,8.7262,8.7313,8.7359,8.7469,8.7963,8.8834,8.9398,8.9955,9.073,9.1363,9.1771,9.1812,9.1812,9.1812,9.4848,9.608,9.5682,9.546,9.5386,9.4593,9.4272,9.4488,9.4304,9.4304,9.4405,9.4368,9.4735,9.5253,9.4477,9.4226,9.4451,9.4877,9.4809,9.4524,9.5029,9.5391,9.5391,9.4708,9.5144,9.6502,9.6661,9.7799,9.9859,10.0251,10.0691,10.1394,10.1467,10.1467,10.1179,9.9837,9.9098,9.8731,9.6566,9.507,9.4304,9.352,9.2666,9.1936,9.1092,9.0688,9.0569,8.9817,8.9363,8.9363,8.8463,8.8027,8.7986,8.7247,8.6477,8.5824,8.5755,8.5755,8.5829,8.6371,8.6798,8.6876,8.6872,8.6949,8.7101,8.7908,8.8312,8.8133,8.878,8.867,8.7496,8.7794,8.8202,8.8426,8.9601,9.0367,9.0624,9.1285,9.1698,9.1776,9.1812,9.1876,9.2047,9.2283,9.2344,9.2338,9.2242,9.166,9.0452,8.975,8.9018,8.7953,8.7301,8.7109,8.7262,8.7204,8.7089,8.7077,8.7106,8.7057,8.7105,8.716,8.7241,8.748,8.7901,8.8514,8.9384,9.016,9.0775,9.1326,9.1551,9.1812,9.1812,9.1812,9.1812,9.5589,9.6367,9.6305,9.6277,9.6171,9.541,9.5341,9.5772,9.529,9.5293,9.5595,9.5654,9.5718,9.5832,9.554,9.555,9.5749,9.5112,9.5112,9.5694,9.5611,9.6052,9.6947,9.6732,9.7126,9.8093,9.8126,9.8727,10.0019,10.0731,10.121,10.1436,10.1509,10.1509,10.121,9.9911,9.9098,9.8841,9.6749,9.5354,9.4955,9.3781,9.2937,9.2611,9.1799,9.1363,9.1358,9.0583,9.0179,9.0175,8.8899,8.8206,8.8133,8.7431,8.688,8.6623,8.6582,8.6587,8.6623,8.6803,8.7243,8.7688,8.7766,8.7973,8.8556,8.9221,8.9519,8.9262,8.9702,8.9592,8.8927,8.8817,8.9188,8.9707,9.0253,9.0844,9.1289,9.1624,9.1812,9.1812,9.1812,9.1881,9.202,9.2056,9.2065,9.2167,9.2131,9.1563,9.0732,9.0348,8.9861,8.8886,8.814,8.7787,8.7835,8.734,8.7023,8.7027,8.7027,8.7036,8.7103,8.7243,8.7381,8.8048,8.8477,8.9133,9.0035,9.0823,9.1454,9.1551,9.1812,9.1812,9.1812,9.1812,9.1812,9.6046,9.6394,9.6604,9.6727,9.6617,9.6108,9.6143,9.6562,9.6323,9.6211,9.6337,9.6788,9.6812,9.6504,9.6661,9.6922,9.7085,9.5896,9.5974,9.7137,9.6687,9.7022,9.7879,9.8057,9.8355,9.8853,9.9133,9.9594,10.0393,10.1141,10.1504,10.1509,10.1509,10.1509,10.1284,10.0141,9.9397,9.8773,9.7231,9.6093,9.5428,9.4189,9.334,9.301,9.2244,9.1812,9.1812,9.1248,9.0844,9.0477,8.9298,8.8344,8.7839,8.7316,8.7019,8.7019,8.7019,8.7129,8.7353,8.739,8.7757,8.8491,8.8601,8.8854,8.94,9.0138,9.0253,9.0101,9.0505,9.0698,9.0367,9.0179,9.0289,9.062,9.0803,9.1179,9.1702,9.1776,9.1812,9.1812,9.1812,9.1876,9.1962,9.1885,9.1894,9.1989,9.2007,9.1604,9.0866,9.0682,9.0487,8.9582,8.894,8.8638,8.8481,8.8027,8.7316,8.717,8.7427,8.7358,8.7444,8.7571,8.7922,8.8585,8.9269,8.9875,9.0598,9.1389,9.1693,9.178,9.1812,9.1812,9.1812,9.1812,9.1849,9.6125,9.6365,9.6599,9.6725,9.6757,9.6669,9.6592,9.6712,9.7258,9.7014,9.6567,9.7646,9.7776,9.7401,9.7756,9.8255,9.8156,9.7432,9.7468,9.815,9.8171,9.8249,9.8473,9.8519,9.8582,9.8749,9.9566,10.0374,10.1017,10.131,10.1479,10.1494,10.1499,10.1509,10.1509,10.0618,9.9837,9.9061,9.808,9.7016,9.5611,9.474,9.3932,9.3198,9.2354,9.1881,9.1808,9.1734,9.1404,9.0693,8.9803,8.8629,8.7349,8.7019,8.7019,8.7092,8.7055,8.7431,8.8096,8.8238,8.8564,8.9253,8.94,8.9473,8.9808,9.0326,9.0693,9.073,9.1216,9.1666,9.1624,9.1588,9.1358,9.0849,9.1253,9.1698,9.1776,9.1812,9.1812,9.1812,9.1812,9.1812,9.1817,9.1822,9.1831,9.184,9.1808,9.1615,9.0964,9.0839,9.0331,8.9808,8.9514,8.9404,8.911,8.8743,8.7977,8.7431,8.7798,8.7986,8.8297,8.8466,8.8918,8.952,9.0182,9.0795,9.1068,9.1721,9.1753,9.1812,9.1812,9.1812,9.1812,9.1812,9.1959,9.5838,9.5961,9.6125,9.6659,9.7244,9.7125,9.7387,9.7986,9.8152,9.788,9.7621,9.7964,9.7959,9.7739,9.7899,9.8298,9.876,9.8553,9.8447,9.8438,9.8406,9.8724,9.9156,9.9405,9.9697,10.0016,10.0386,10.06,10.0776,10.1142,10.1286,10.1306,10.1438,10.1504,10.1472,10.0691,9.9916,9.9103,9.8305,9.7351,9.6355,9.5538,9.474,9.3937,9.312,9.2427,9.1845,9.1812,9.1657,9.1363,9.0138,8.8666,8.7386,8.7019,8.728,8.7761,8.7835,8.8161,8.889,8.9042,8.9372,9.0028,9.0216,9.051,9.0959,9.1216,9.1395,9.1404,9.1661,9.1812,9.1812,9.1812,9.1661,9.1432,9.1661,9.1812,9.1812,9.1812,9.1812,9.1812,9.1812,9.1812,9.1812,9.1812,9.1812,9.1812,9.1812,9.1624,9.1478,9.1331,9.14,9.1065,9.0693,9.0212,8.9996,8.9661,8.9037,8.8564,8.8679,8.8789,8.9068,8.9494,8.991,9.0336,9.1035,9.1416,9.1688,9.1812,9.1812,9.1812,9.1812,9.1812,9.1812,9.1849,9.1959,9.6235,9.5788,9.6575,9.7107,9.7484,9.7566,9.7973,9.8546,9.8683,9.8463,9.8128,9.8645,9.8643,9.839,9.8549,9.8942,9.9413,9.9413,9.9312,9.9086,9.9076,9.9367,9.9809,9.9978,10.0431,10.0975,10.1197,10.1208,10.1079,10.1424,10.1543,10.139,10.1362,10.1433,10.1457,10.0985,10.0356,9.9544,9.8778,9.7975,9.7089,9.6093,9.5249,9.4662,9.3671,9.2868,9.2317,9.1987,9.1657,9.1216,9.0065,8.889,8.7973,8.7936,8.8124,8.8491,8.872,8.9005,8.973,8.9849,9.0179,9.0886,9.1069,9.1257,9.1698,9.1812,9.1812,9.1812,9.1812,9.1812,9.1812,9.1812,9.1812,9.1812,9.1776,9.1812,9.1812,9.1812,9.1812,9.1812,9.1812,9.1812,9.1812,9.1812,9.1812,9.1812,9.1812,9.1812,9.1812,9.1776,9.1771,9.1734,9.1363,9.1065,9.0991,9.0583,9.006,8.9845,8.9739,8.9739,8.9821,9.0344,9.0816,9.1004,9.1518,9.1564,9.1812,9.1812,9.1812,9.1812,9.1812,9.1812,9.1812,9.1812,9.1886,9.719,9.6105,9.7637,9.7896,9.7563,9.8146,9.8438,9.8483,9.9022,9.8868,9.8489,9.9446,9.9683,9.9346,9.9672,9.9992,10.0174,10.0101,10.0076,10.0042,10.0053,10.0111,10.0171,10.021,10.0667,10.1384,10.1782,10.1953,10.18,10.205,10.205,10.139,10.1235,10.1276,10.1392,10.1452,10.1022,10.0172,9.9507,9.8741,9.7828,9.6534,9.557,9.5423,9.4143,9.334,9.3083,9.2427,9.1546,9.0661,8.995,8.9473,8.9363,8.94,8.929,8.94,8.9473,8.9886,9.0436,9.0661,9.0955,9.1546,9.1666,9.1812,9.1776,9.1812,9.1812,9.1812,9.1812,9.1812,9.1812,9.1812,9.1812,9.1812,9.1812,9.1812,9.1812,9.1812,9.1812,9.1812,9.1812,9.1812,9.1812,9.1812,9.1812,9.1812,9.1812,9.1812,9.1812,9.1812,9.1812,9.1734,9.162,9.1583,9.1363,9.1216,9.0767,9.0771,9.0661,9.0588,9.0583,9.1028,9.1363,9.1588,9.1698,9.1771,9.1812,9.1812,9.1812,9.1812,9.1812,9.1812,9.1812,9.1812,9.2028,9.7621,9.7305,9.7763,9.8253,9.8691,9.8839,9.9227,9.9831,9.9898,9.9743,9.9672,9.9992,10.0065,9.992,10.0065,10.0174,10.0174,10.0174,10.0174,10.0174,10.0174,10.0284,10.0404,10.0431,10.0948,10.1817,10.1988,10.18,10.1817,10.2183,10.1773,10.0812,10.1148,10.1235,10.1276,10.1428,10.1058,10.0393,10.0136,9.9255,9.8085,9.7534,9.6644,9.5496,9.5056,9.4515,9.4006,9.3198,9.2056,9.0734,9.0436,8.9991,8.9583,8.951,8.9771,9.0212,9.0322,9.0624,9.1253,9.1436,9.1588,9.1734,9.1812,9.1812,9.1812,9.1812,9.1812,9.1812,9.1812,9.1812,9.1812,9.1845,9.1845,9.1812,9.1881,9.1845,9.1812,9.1812,9.1812,9.1812,9.1812,9.1812,9.1812,9.1812,9.1812,9.1812,9.1812,9.1812,9.1812,9.1812,9.1812,9.1812,9.1734,9.1776,9.1734,9.1624,9.1514,9.1551,9.1514,9.1404,9.1363,9.1514,9.1661,9.1776,9.1771,9.1812,9.1812,9.1812,9.1812,9.1812,9.1812,9.1812,9.1812,9.1812,9.2248,9.8404,9.7861,9.8513,9.8957,9.9199,9.9406,9.9863,10.0266,10.024,10.0174,10.0174,10.0174,10.0174,10.0174,10.0174,10.0174,10.0174,10.0174,10.0174,10.0304,10.0646,10.0852,10.0885,10.089,10.1548,10.265,10.2711,10.2737,10.2784,10.2868,10.226,10.1435,10.1408,10.1404,10.124,10.1393,10.1284,10.0801,10.0508,9.9769,9.8971,9.82,9.7498,9.646,9.5937,9.5139,9.4341,9.3827,9.2831,9.151,9.106,9.0877,9.0468,9.04,9.0624,9.1101,9.1101,9.1331,9.1661,9.1812,9.1812,9.1812,9.1812,9.1812,9.1812,9.1812,9.1812,9.1812,9.1812,9.1812,9.1877,9.2097,9.2317,9.2391,9.2349,9.2207,9.1877,9.1812,9.1812,9.1812,9.1812,9.1812,9.1812,9.1812,9.1812,9.1812,9.1812,9.1812,9.1812,9.1812,9.1812,9.1812,9.1812,9.1812,9.1812,9.1698,9.1661,9.1776,9.1812,9.1812,9.1812,9.1812,9.1812,9.1812,9.1812,9.1812,9.1812,9.1812,9.1812,9.1812,9.1812,9.1845,9.1845,9.1991,9.2395,9.9346,9.8193,9.96,9.9775,9.9321,9.9884,10.0148,10.0179,10.0215,10.0174,10.0174,10.0174,10.0174,10.0174,10.0174,10.0174,10.0174,10.0174,10.0318,10.0658,10.1223,10.1739,10.1817,10.1698,10.2373,10.3475,10.3998,10.3987,10.3875,10.3989,10.3323,10.226,10.1977,10.1716,10.1424,10.1442,10.1459,10.1275,10.0823,10.0358,9.9797,9.8822,9.8012,9.7498,9.6387,9.5396,9.4745,9.4341,9.3639,9.1987,9.1959,9.1845,9.1767,9.1734,9.1734,9.1698,9.1661,9.1739,9.1849,9.1918,9.1991,9.2024,9.2028,9.1918,9.1991,9.1955,9.1881,9.2106,9.1955,9.2138,9.2359,9.2831,9.3161,9.3198,9.323,9.2827,9.217,9.1845,9.1812,9.1812,9.1812,9.1812,9.1812,9.1812,9.1812,9.1812,9.1812,9.1812,9.1812,9.1812,9.1812,9.1812,9.1812,9.1812,9.1812,9.1776,9.1776,9.1812,9.1812,9.1812,9.1812,9.1812,9.1812,9.1812,9.1812,9.1812,9.1812,9.1812,9.1812,9.1812,9.1812,9.1881,9.1987,9.2244,9.2574,9.9992,9.9703,10.0065,10.0101,9.9992,10.0137,10.0174,10.0174,10.0174,10.0174,10.0174,10.0174,10.0174,10.0174,10.0174,10.0174,10.021,10.0282,10.05,10.1235,10.1999,10.274,10.2971,10.2825,10.3143,10.3931,10.4282,10.4293,10.423,10.4227,10.376,10.2649,10.2093,10.1803,10.1789,10.145,10.1255,10.1244,10.1193,10.0785,10.0144,9.9359,9.8557,9.7975,9.6984,9.6088,9.5428,9.5244,9.4437,9.3267,9.279,9.2574,9.1955,9.1812,9.1812,9.1812,9.1845,9.1845,9.1923,9.2427,9.2827,9.2794,9.2794,9.2794,9.2753,9.2207,9.2248,9.2615,9.2827,9.3051,9.3496,9.3864,9.4047,9.4047,9.401,9.3749,9.2941,9.2248,9.1918,9.1808,9.1812,9.1812,9.1812,9.1812,9.1812,9.1812,9.1812,9.1812,9.1812,9.1812,9.1812,9.1812,9.1812,9.1812,9.1812,9.1812,9.1812,9.1812,9.1812,9.1812,9.1812,9.1812,9.1812,9.1812,9.1812,9.1812,9.1812,9.1808,9.1808,9.1808,9.1923,9.2285,9.2537,9.2648,9.3047,10.0174,10.0174,10.0174,10.0174,10.0174,10.0174,10.0174,10.0174,10.0174,10.0174,10.0174,10.0174,10.0174,10.0174,10.0174,10.0174,10.0318,10.0644,10.1405,10.2352,10.2985,10.3517,10.4102,10.4012,10.4134,10.4489,10.461,10.4598,10.457,10.4501,10.4179,10.3169,10.2498,10.217,10.1948,10.1482,10.1246,10.1229,10.1388,10.1183,10.0586,9.9979,9.9287,9.8484,9.7718,9.7016,9.6681,9.624,9.5433,9.4478,9.3854,9.3051,9.2028,9.1812,9.1812,9.1845,9.2244,9.2391,9.2611,9.3125,9.3634,9.3675,9.368,9.3418,9.3308,9.2909,9.2946,9.3161,9.3414,9.3859,9.4267,9.4745,9.4813,9.4887,9.485,9.4662,9.4143,9.3157,9.2207,9.195,9.1812,9.1812,9.1812,9.1959,9.1845,9.1877,9.1812,9.1812,9.1812,9.1812,9.1812,9.1812,9.1812,9.1812,9.1812,9.1812,9.1812,9.1812,9.1812,9.1812,9.1812,9.1812,9.1812,9.1812,9.1849,9.1812,9.1812,9.1808,9.2097,9.2391,9.2684,9.2978,9.3272,9.3607,9.4079,10.0174,10.0174,10.0174,10.0246,10.0349,10.0391,10.0536,10.0614,10.0427,10.0494,10.0391,10.0391,10.05,10.0427,10.0427,10.0391,10.0644,10.1472,10.2528,10.3372,10.3759,10.4194,10.4676,10.4724,10.4735,10.4882,10.493,10.4943,10.4861,10.488,10.4573,10.3852,10.3101,10.2575,10.2097,10.1419,10.1059,10.1033,10.1214,10.1198,10.0876,10.0346,9.9651,9.8951,9.841,9.7899,9.7588,9.7126,9.6428,9.557,9.485,9.3712,9.2615,9.1845,9.1812,9.184,9.2537,9.29,9.3161,9.3859,9.4483,9.4483,9.4488,9.4226,9.3854,9.39,9.39,9.4006,9.4258,9.4781,9.4745,9.5254,9.5648,9.5685,9.5685,9.5643,9.5276,9.4253,9.334,9.2537,9.2615,9.2694,9.2469,9.2432,9.217,9.1946,9.1881,9.1812,9.1812,9.1812,9.1812,9.1812,9.1812,9.1812,9.1812,9.1812,9.1812,9.1812,9.1812,9.1812,9.1812,9.1812,9.1812,9.1886,9.1918,9.1991,9.2253,9.2583,9.2872,9.3161,9.3455,9.3749,9.4157,9.4561,9.5217,10.0174,10.0174,10.0174,10.0566,10.1146,10.1188,10.155,10.2032,10.1436,10.1218,10.1171,10.1218,10.1188,10.1146,10.1182,10.1182,10.1586,10.2486,10.3361,10.3873,10.4302,10.4773,10.4845,10.4882,10.4918,10.4981,10.5062,10.5073,10.5004,10.506,10.49,10.4421,10.3314,10.2632,10.2289,10.1462,10.0675,10.0733,10.0866,10.086,10.0599,10.0193,9.9696,9.9128,9.8848,9.853,9.8066,9.776,9.7021,9.568,9.5391,9.4772,9.3786,9.2611,9.2065,9.2175,9.2868,9.3414,9.3524,9.451,9.5171,9.5318,9.5318,9.5281,9.4951,9.4708,9.474,9.5176,9.569,9.6245,9.6282,9.6502,9.6497,9.6534,9.646,9.6277,9.5721,9.5203,9.4735,9.401,9.39,9.368,9.3313,9.2941,9.2643,9.2313,9.2024,9.1881,9.1812,9.1812,9.1812,9.1812,9.1812,9.1812,9.1812,9.1812,9.1812,9.1812,9.1812,9.1812,9.1812,9.1812,9.1849,9.2102,9.2427,9.2684,9.2978,9.324,9.368,9.4006,9.4299,9.4593,9.5369,9.614,9.6906,10.0572,10.0324,10.1085,10.1416,10.1477,10.1845,10.2145,10.2344,10.2115,10.1694,10.1499,10.1705,10.1773,10.1622,10.1918,10.2207,10.2745,10.3252,10.3904,10.4338,10.4701,10.4882,10.4918,10.4918,10.5208,10.5303,10.5287,10.5087,10.4941,10.5016,10.5033,10.4566,10.3341,10.2699,10.2503,10.1333,10.0621,10.053,10.068,10.067,10.0524,10.0259,10.0078,9.9998,9.9599,9.9344,9.9105,9.8168,9.7613,9.6759,9.5937,9.5396,9.4735,9.3932,9.3093,9.3276,9.3827,9.4299,9.4474,9.5465,9.6057,9.613,9.6093,9.5868,9.5685,9.5543,9.5731,9.6167,9.6832,9.7314,9.7277,9.7645,9.7892,9.786,9.7603,9.7163,9.6795,9.6387,9.5951,9.5447,9.4786,9.4309,9.401,9.3639,9.323,9.279,9.2317,9.2102,9.1959,9.1812,9.1808,9.1918,9.1918,9.1918,9.1881,9.1849,9.1812,9.1812,9.1959,9.1959,9.1955,9.2065,9.2281,9.2574,9.29,9.3524,9.3377,9.3565,9.4189,9.496,9.5437,9.6025,9.6906,9.7713,9.8374,10.1079,10.0475,10.1984,10.2327,10.2015,10.2488,10.2622,10.2526,10.2612,10.2085,10.1376,10.1958,10.218,10.2098,10.2516,10.3046,10.3547,10.3584,10.4127,10.4701,10.4876,10.4918,10.5129,10.5192,10.5506,10.6174,10.5814,10.5239,10.5202,10.5008,10.4929,10.4561,10.3486,10.2763,10.2504,10.1467,10.0816,10.0507,10.0573,10.0584,10.0514,10.06,10.0693,10.0892,10.0374,10.0116,9.9661,9.9113,9.8452,9.7791,9.6937,9.6125,9.6047,9.529,9.4965,9.5222,9.5483,9.5437,9.5653,9.6167,9.6575,9.6575,9.6832,9.6575,9.6497,9.6791,9.7236,9.7309,9.7676,9.8158,9.8227,9.8668,9.8951,9.8883,9.8447,9.8085,9.7933,9.7603,9.7199,9.6507,9.5594,9.519,9.5075,9.4556,9.4221,9.3707,9.323,9.2872,9.2652,9.1955,9.1881,9.2024,9.2097,9.206,9.1991,9.1918,9.1849,9.1812,9.2138,9.2395,9.2395,9.2432,9.2794,9.3345,9.4148,9.4625,9.4221,9.4336,9.5474,9.6355,9.6795,9.7493,9.8374,9.8888,9.9365,10.1642,10.1015,10.214,10.2901,10.3332,10.3335,10.3297,10.3233,10.3075,10.2495,10.1734,10.1936,10.2485,10.3037,10.3401,10.3258,10.3197,10.3584,10.4236,10.4809,10.4961,10.5306,10.5807,10.5685,10.6214,10.6864,10.6715,10.6401,10.5988,10.5425,10.4985,10.4773,10.4054,10.3322,10.2727,10.1728,10.0973,10.041,10.0298,10.0267,10.0245,10.0284,10.0165,10.0151,10.0329,10.0286,9.9736,9.9548,9.9512,9.8805,9.8043,9.797,9.8259,9.719,9.7419,9.7451,9.6896,9.5501,9.5864,9.6546,9.7006,9.7153,9.7419,9.7608,9.7718,9.8075,9.8548,9.8841,9.8951,9.8956,9.8956,9.9098,9.9135,9.9208,9.914,9.8998,9.8888,9.8479,9.808,9.7755,9.6874,9.6617,9.647,9.5836,9.5208,9.4694,9.4185,9.3786,9.3386,9.2726,9.2432,9.2721,9.2758,9.2684,9.2726,9.2583,9.2432,9.218,9.2542,9.2946,9.3019,9.3203,9.379,9.4414,9.5217,9.5873,9.5832,9.6277,9.7163,9.7676,9.8043,9.8851,9.9842,10.0214,10.0324,10.2396,10.1356,10.2527,10.3288,10.3694,10.3939,10.4004,10.3838,10.3724,10.3161,10.2538,10.2939,10.3532,10.3948,10.4265,10.4236,10.4024,10.4169,10.4525,10.4927,10.5182,10.554,10.583,10.6126,10.6727,10.7377,10.7311,10.7244,10.6875,10.6258,10.56,10.5383,10.4375,10.3584,10.3052,10.1984,10.1332,10.0867,10.0505,10.021,10.0174,10.0201,10.0206,10.0281,10.0599,10.0297,10.0001,10.0026,9.9911,9.9135,9.8337,9.7975,9.808,9.7591,9.753,9.772,9.76,9.7339,9.7608,9.7743,9.7809,9.8019,9.8369,9.8552,9.8663,9.892,9.9172,9.9061,9.9544,9.9732,9.9916,10.0204,10.0393,10.0356,9.9952,9.9842,9.9654,9.9208,9.8805,9.8516,9.8195,9.7865,9.7383,9.657,9.5832,9.5286,9.4698,9.4153,9.3974,9.3758,9.3607,9.3717,9.3639,9.3529,9.3607,9.3611,9.3538,9.3391,9.3501,9.3827,9.3827,9.4121,9.4928,9.5479,9.6103,9.6681,9.7263,9.7814,9.8374,9.8814,9.9213,9.9879,10.0471,10.088,10.0917,10.2772,10.195,10.3095,10.3671,10.3841,10.422,10.4114,10.3802,10.3884,10.3398,10.3033,10.355,10.4072,10.4045,10.4213,10.4375,10.4489,10.4598,10.4733,10.4959,10.5366,10.5747,10.6089,10.6482,10.7286,10.8357,10.788,10.7979,10.81,10.7501,10.6584,10.6107,10.5057,10.4127,10.3475,10.2709,10.1943,10.1254,10.0572,10.0246,10.0174,10.0174,10.0259,10.0319,10.0385,10.024,9.991,9.9788,9.9411,9.8966,9.8104,9.78,9.818,9.7785,9.7959,9.8275,9.8505,9.8733,9.8916,9.9038,9.8993,9.9102,9.9397,9.9507,9.9764,9.969,9.9727,9.9916,10.0246,10.0545,10.0728,10.1132,10.1174,10.11,10.088,10.0728,10.0545,10.0136,9.9727,9.9402,9.9076,9.8636,9.808,9.719,9.6492,9.5873,9.5249,9.4666,9.4561,9.4634,9.4676,9.4708,9.4304,9.4263,9.452,9.4561,9.4524,9.4671,9.4781,9.4928,9.507,9.5694,9.6539,9.6979,9.7273,9.8007,9.8809,9.914,9.9433,9.969,9.9952,10.0361,10.088,10.1252,10.1399,10.2547,10.2963,10.3778,10.4108,10.4126,10.3956,10.3415,10.3039,10.333,10.3052,10.2595,10.3482,10.3437,10.2794,10.3501,10.3949,10.3856,10.3801,10.432,10.4867,10.5362,10.6077,10.6517,10.7104,10.7829,10.8816,10.8604,10.885,10.9233,10.8612,10.7417,10.6216,10.5745,10.4882,10.4127,10.3402,10.2413,10.158,10.0717,10.0313,10.0246,10.0154,10.0021,9.965,9.9444,9.9176,9.8599,9.8842,9.8695,9.8513,9.7923,9.7951,9.8478,9.8083,9.8359,9.9213,9.9347,9.9666,10.0021,9.9597,9.9105,9.9276,9.9764,10.0429,10.0838,10.1174,10.1289,10.1063,10.11,10.121,10.132,10.1467,10.1509,10.1436,10.1289,10.121,10.1137,10.1174,10.0765,10.0361,9.992,9.9407,9.8998,9.8217,9.763,9.7048,9.6355,9.5772,9.5584,9.5621,9.5662,9.5552,9.5002,9.5002,9.5433,9.5579,9.5768,9.6025,9.6208,9.6392,9.657,9.7305,9.7855,9.8484,9.8856,9.9627,10.0177,10.0214,10.0288,10.0393,10.0655,10.0953,10.1105,10.1362,10.1472,10.3047,10.3268,10.359,10.3888,10.4198,10.3901,10.3605,10.3383,10.3369,10.3286,10.2948,10.358,10.3614,10.3329,10.3592,10.4092,10.4282,10.4763,10.5012,10.556,10.6293,10.6865,10.7249,10.7514,10.8162,10.8752,10.884,10.9048,10.9316,10.9191,10.828,10.7236,10.6433,10.5491,10.4664,10.3873,10.2817,10.1798,10.1079,10.0747,10.0246,10.0221,10.0133,10.0091,10.0045,9.9404,9.8719,9.8979,9.8515,9.8026,9.7864,9.8303,9.876,9.8407,9.8884,9.978,9.9723,10.0154,10.0571,10.0203,10.0037,10.0386,10.0821,10.1174,10.1467,10.1509,10.1509,10.1472,10.1509,10.1509,10.1509,10.1509,10.1509,10.1509,10.1509,10.1509,10.1509,10.1509,10.1436,10.088,10.0471,10.0026,9.969,9.9282,9.8768,9.8259,9.753,9.6942,9.6795,9.6717,9.6832,9.7016,9.6575,9.6612,9.7079,9.7121,9.7126,9.7305,9.7561,9.7782,9.796,9.8217,9.8809,9.9548,10.0104,10.0398,10.0696,10.0953,10.1027,10.099,10.1137,10.1325,10.1472,10.1509,10.1509,10.3399,10.3399,10.3399,10.3605,10.3907,10.3747,10.3679,10.3642,10.3474,10.3399,10.3418,10.3667,10.3784,10.3864,10.4077,10.4552,10.4893,10.5284,10.5669,10.6197,10.6846,10.735,10.7466,10.7773,10.8222,10.8513,10.8788,10.9071,10.9338,10.9547,10.8811,10.7779,10.6826,10.5962,10.4845,10.4085,10.304,10.2062,10.1436,10.1001,10.0318,10.0215,10.0248,10.0242,10.0035,9.9545,9.8821,9.8749,9.8365,9.7964,9.7845,9.8234,9.8554,9.8832,9.9198,9.9509,9.985,10.0324,10.0514,10.0803,10.0923,10.1128,10.1276,10.142,10.1509,10.1509,10.1509,10.1509,10.1509,10.1509,10.1546,10.1509,10.1509,10.1509,10.1509,10.1509,10.1509,10.1509,10.1509,10.1325,10.099,10.0728,10.0613,10.0246,9.9617,9.9103,9.8442,9.8075,9.8149,9.8112,9.8185,9.8369,9.8437,9.8658,9.8951,9.8516,9.8154,9.8332,9.8621,9.9061,9.9318,9.9507,9.9769,10.0434,10.0843,10.099,10.11,10.1252,10.1362,10.1436,10.1509,10.1509,10.1509,10.1509,10.1509,10.3399,10.3399,10.3399,10.3412,10.3468,10.3418,10.3418,10.3449,10.3412,10.3399,10.3424,10.3655,10.3819,10.391,10.4183,10.4786,10.5507,10.5608,10.5882,10.6637,10.724,10.7252,10.7393,10.775,10.8209,10.85,10.8737,10.8977,10.9264,10.9504,10.9053,10.8292,10.7272,10.6252,10.4918,10.4121,10.3336,10.2581,10.1876,10.126,10.0686,10.0577,10.0611,10.0332,9.9991,9.96,9.8975,9.8561,9.8203,9.7872,9.7964,9.8367,9.8843,9.9038,9.9446,10.0004,10.0101,10.0201,10.0303,10.1007,10.1296,10.1347,10.1362,10.1459,10.1494,10.1509,10.1619,10.1724,10.1577,10.1614,10.1582,10.1509,10.1546,10.1651,10.1651,10.1509,10.1509,10.1509,10.1509,10.1509,10.1509,10.1436,10.1436,10.121,10.0471,9.9837,9.9282,9.9172,9.9323,9.9287,9.9255,9.9622,9.98,9.98,9.9837,9.947,9.9213,9.9392,9.9654,10.0094,10.0393,10.0581,10.0917,10.1362,10.1325,10.1284,10.1357,10.1472,10.1509,10.1509,10.1509,10.1509,10.1509,10.1509,10.1509,10.3399,10.3399,10.3399,10.3399,10.3399,10.3399,10.3399,10.3399,10.3399,10.3393,10.3412,10.3505,10.3875,10.4199,10.4501,10.509,10.6104,10.665,10.6957,10.7318,10.7778,10.7857,10.7884,10.7896,10.815,10.8287,10.8519,10.8807,10.901,10.9344,10.9101,10.8395,10.7272,10.5962,10.5135,10.4519,10.4127,10.3444,10.3004,10.26,10.1893,10.1711,10.1452,10.0934,10.0608,9.9992,9.916,9.8694,9.8441,9.8156,9.8296,9.8761,9.916,9.9377,9.9848,10.0174,10.0215,10.0262,10.042,10.0828,10.0986,10.1106,10.1214,10.1347,10.1474,10.1504,10.1761,10.2018,10.1834,10.2091,10.2826,10.1913,10.1761,10.2086,10.2081,10.1651,10.1509,10.1509,10.1509,10.1509,10.1509,10.1509,10.1509,10.1509,10.0953,10.0655,10.0136,10.0283,10.0508,10.0214,10.0104,10.0623,10.0917,10.0806,10.0655,10.0324,10.0251,10.0434,10.0655,10.099,10.1284,10.132,10.1357,10.1436,10.1472,10.1509,10.1509,10.1509,10.1509,10.1509,10.1509,10.1509,10.1509,10.1509,10.1509,10.3399,10.3429,10.3708,10.3636,10.3429,10.3399,10.3399,10.3464,10.3672,10.3815,10.3857,10.385,10.4243,10.4736,10.4839,10.5469,10.6666,10.6989,10.7605,10.7915,10.8165,10.816,10.8107,10.8104,10.811,10.8176,10.8378,10.8625,10.8916,10.9183,10.8792,10.7943,10.7018,10.6035,10.5274,10.4773,10.4447,10.3837,10.3433,10.3185,10.2581,10.2188,10.1815,10.1369,10.0934,10.0433,9.9708,9.9315,9.9165,9.8917,9.902,9.9413,9.9594,9.9811,10.0174,10.0174,10.0226,10.0262,10.0404,10.0449,10.073,10.1207,10.1116,10.1304,10.1562,10.1587,10.2209,10.2454,10.2255,10.2815,10.3398,10.2375,10.2291,10.2685,10.2286,10.1856,10.1834,10.1871,10.1546,10.1541,10.1509,10.1509,10.1509,10.1509,10.1325,10.1174,10.1063,10.1247,10.1394,10.1063,10.0728,10.1137,10.1436,10.1252,10.121,10.1215,10.121,10.1472,10.1509,10.1509,10.1472,10.1436,10.1472,10.1509,10.1546,10.1546,10.1509,10.1509,10.1656,10.1619,10.1509,10.1509,10.1509,10.1509,10.1509,10.3429,10.3565,10.4302,10.4159,10.3536,10.3536,10.3464,10.35,10.4302,10.4581,10.4545,10.451,10.4944,10.5473,10.5009,10.5717,10.7033,10.714,10.7666,10.8111,10.8222,10.8163,10.8117,10.8104,10.8104,10.8189,10.8345,10.8541,10.8878,10.9228,10.8715,10.7683,10.726,10.6216,10.5352,10.4809,10.4519,10.4127,10.3946,10.3656,10.3233,10.2425,10.2129,10.1695,10.1157,10.065,10.0143,9.9956,9.9992,9.9956,10.0065,10.0137,10.0174,10.0174,10.0174,10.021,10.021,10.0377,10.0471,10.0526,10.0991,10.1566,10.1308,10.1596,10.1921,10.2041,10.2568,10.308,10.3127,10.3477,10.3734,10.3362,10.3068,10.2879,10.2518,10.2386,10.2406,10.2196,10.1719,10.1577,10.1509,10.1509,10.1509,10.1509,10.1509,10.1436,10.132,10.1362,10.1472,10.1472,10.121,10.1252,10.1472,10.1472,10.1509,10.1509,10.1509,10.1509,10.1509,10.1509,10.1509,10.1509,10.1509,10.1509,10.1582,10.1656,10.1834,10.1908,10.1913,10.1876,10.2023,10.1582,10.1619,10.1546,10.1509,10.4266,10.4344,10.508,10.498,10.4302,10.423,10.3916,10.3607,10.4766,10.5116,10.4581,10.4581,10.5372,10.6407,10.5771,10.6646,10.7399,10.7965,10.8069,10.8228,10.8215,10.8137,10.8104,10.8104,10.8104,10.813,10.8254,10.8513,10.8916,10.929,10.8739,10.7538,10.7411,10.6361,10.5461,10.4882,10.4701,10.4561,10.4453,10.4272,10.4091,10.3656,10.3071,10.2352,10.1929,10.1307,10.0536,10.0391,10.0355,10.021,10.0246,10.0246,10.0174,10.0174,10.021,10.0277,10.0639,10.1079,10.1146,10.1592,10.2004,10.2247,10.2135,10.2381,10.2707,10.2884,10.3109,10.3613,10.3797,10.3954,10.4258,10.4153,10.4012,10.386,10.3342,10.2855,10.2818,10.2497,10.1994,10.1577,10.1546,10.1619,10.1582,10.1509,10.1509,10.1509,10.1509,10.1509,10.1509,10.1509,10.1509,10.1509,10.1509,10.1509,10.1509,10.1509,10.1509,10.1509,10.1509,10.1509,10.1509,10.1509,10.1509,10.1693,10.206,10.2233,10.2375,10.249,10.2679,10.2826,10.2894,10.2238,10.1729,10.1766,10.1724,10.4409,10.4344,10.5622,10.5723,10.5122,10.5045,10.4444,10.3892,10.5372,10.5622,10.4724,10.5265,10.6021,10.6657,10.6449,10.6919,10.815,10.8088,10.816,10.8179,10.8182,10.813,10.8104,10.8104,10.8104,10.8124,10.8261,10.8503,10.8941,10.9268,10.8908,10.7477,10.7519,10.6548,10.5534,10.5202,10.5171,10.499,10.4845,10.4882,10.4809,10.4634,10.3765,10.3227,10.284,10.1856,10.097,10.0867,10.0837,10.0577,10.0572,10.097,10.094,10.0934,10.1163,10.1344,10.1561,10.1845,10.1918,10.2219,10.2653,10.2943,10.3057,10.3374,10.3361,10.3401,10.397,10.4477,10.4277,10.4238,10.4608,10.4912,10.5029,10.5099,10.423,10.3357,10.3013,10.2724,10.2252,10.1704,10.1614,10.1724,10.1688,10.1582,10.1509,10.1509,10.1509,10.1509,10.1509,10.1509,10.1509,10.1509,10.1509,10.1509,10.1509,10.1509,10.1509,10.1509,10.1509,10.1509,10.1509,10.1619,10.1766,10.2165,10.271,10.2931,10.3182,10.3403,10.3591,10.3738,10.3738,10.3188,10.2679,10.2348,10.227,10.4165,10.3714,10.5813,10.6157,10.5651,10.5509,10.4694,10.3785,10.5807,10.6086,10.5158,10.6122,10.6735,10.7049,10.6877,10.7241,10.7949,10.8124,10.811,10.811,10.8124,10.8104,10.8104,10.8104,10.8104,10.8189,10.8371,10.8593,10.8979,10.928,10.898,10.7519,10.8038,10.7356,10.5859,10.5962,10.5962,10.5606,10.5316,10.5099,10.4773,10.4302,10.3728,10.3584,10.3052,10.2363,10.1918,10.1815,10.1934,10.1452,10.141,10.1996,10.1959,10.1959,10.2297,10.2514,10.2508,10.2653,10.2756,10.2979,10.3336,10.362,10.3843,10.4094,10.41,10.393,10.4392,10.4789,10.4665,10.4712,10.5025,10.5037,10.5097,10.5146,10.4672,10.407,10.3765,10.3379,10.2843,10.2396,10.2196,10.2233,10.1939,10.1834,10.1509,10.1509,10.1509,10.1509,10.1761,10.1761,10.1656,10.1656,10.1546,10.1546,10.1509,10.1509,10.1509,10.1509,10.1619,10.1761,10.1944,10.2018,10.2018,10.271,10.3403,10.3775,10.4027,10.4357,10.4541,10.4509,10.4399,10.41,10.3696,10.3329,10.3036,10.448,10.4379,10.4908,10.5009,10.4902,10.4866,10.4337,10.3643,10.5878,10.6336,10.5658,10.5907,10.6693,10.7484,10.7163,10.7419,10.7961,10.8104,10.8104,10.8104,10.8104,10.8104,10.8104,10.8104,10.811,10.8189,10.8397,10.8794,10.9208,10.939,10.9246,10.8298,10.8521,10.7791,10.662,10.6904,10.6801,10.6397,10.589,10.5491,10.5135,10.4773,10.4417,10.3946,10.3372,10.3052,10.2648,10.243,10.2442,10.2224,10.2333,10.2442,10.2369,10.255,10.2623,10.2689,10.3197,10.3372,10.3553,10.3807,10.4199,10.4411,10.4598,10.4706,10.4693,10.4505,10.4573,10.4924,10.5118,10.5203,10.5223,10.5131,10.5075,10.5072,10.5044,10.4749,10.4459,10.3976,10.3462,10.3183,10.292,10.2705,10.2412,10.205,10.1656,10.1509,10.1509,10.1656,10.227,10.2453,10.216,10.2055,10.1656,10.1582,10.1582,10.1688,10.1761,10.1981,10.2165,10.227,10.2417,10.282,10.3224,10.3623,10.4168,10.4577,10.5023,10.5532,10.5647,10.5395,10.517,10.4913,10.4829,10.4535,10.4137,10.4301,10.4088,10.4058,10.4487,10.5009,10.508,10.4623,10.4379,10.6057,10.6443,10.593,10.6443,10.7127,10.774,10.7413,10.7555,10.8104,10.8104,10.8104,10.8104,10.8104,10.8104,10.8104,10.811,10.8222,10.8313,10.8711,10.9109,10.9443,10.9523,10.9318,10.8702,10.866,10.8473,10.7628,10.7562,10.767,10.7266,10.6578,10.6107,10.5673,10.5316,10.4809,10.4266,10.4121,10.3765,10.3517,10.3263,10.3124,10.2979,10.2907,10.3444,10.3553,10.3734,10.3704,10.3776,10.4024,10.423,10.4375,10.4592,10.4954,10.499,10.5389,10.5497,10.5497,10.5309,10.4983,10.5214,10.5008,10.5083,10.5083,10.4985,10.4997,10.4983,10.4962,10.4775,10.4641,10.443,10.3981,10.3607,10.3586,10.3765,10.3471,10.3151,10.2784,10.2784,10.2605,10.2532,10.3004,10.3256,10.2925,10.2669,10.2458,10.2128,10.216,10.2191,10.2191,10.2412,10.2705,10.3041,10.3371,10.399,10.4504,10.4682,10.4976,10.5495,10.5977,10.6198,10.6271,10.6014,10.5831,10.572,10.5673,10.5637,10.5311,10.382,10.3422,10.3393,10.4136,10.5337,10.5509,10.5152,10.4902,10.6193,10.6556,10.6187,10.7413,10.7562,10.7526,10.7705,10.8026,10.8204,10.8175,10.814,10.8282,10.814,10.8104,10.8104,10.8117,10.8293,10.8577,10.8946,10.9307,10.9656,10.9674,10.9427,10.892,10.8914,10.901,10.8214,10.8111,10.8407,10.7894,10.7344,10.7018,10.6505,10.5854,10.5202,10.499,10.4918,10.4525,10.4308,10.4163,10.3951,10.3807,10.3589,10.4018,10.4525,10.4701,10.4737,10.4773,10.4887,10.4924,10.4918,10.5027,10.5135,10.528,10.589,10.6216,10.6252,10.6107,10.5781,10.5389,10.5183,10.4935,10.4935,10.4905,10.4953,10.4962,10.4911,10.4941,10.4927,10.4953,10.4672,10.4284,10.4394,10.464,10.4389,10.4063,10.3917,10.3917,10.3953,10.3995,10.4032,10.4137,10.4058,10.3875,10.3728,10.3398,10.2999,10.2847,10.2847,10.3104,10.3476,10.388,10.432,10.4944,10.5311,10.538,10.5752,10.6051,10.6198,10.6308,10.6386,10.6607,10.6607,10.6533,10.6533,10.6491,10.6418,10.3527,10.3393,10.3399,10.3607,10.3993,10.4552,10.4724,10.4873,10.6264,10.6806,10.6913,10.7526,10.7955,10.7883,10.799,10.8318,10.8782,10.8503,10.8681,10.8967,10.8354,10.8133,10.8124,10.8176,10.8429,10.8718,10.8996,10.927,10.9589,10.9644,10.9644,10.9457,10.9457,10.9523,10.9451,10.9348,10.9203,10.869,10.8298,10.7972,10.7429,10.6662,10.5642,10.5352,10.5244,10.4912,10.4731,10.4809,10.4737,10.4628,10.4634,10.4882,10.5166,10.557,10.5564,10.5528,10.5642,10.557,10.5564,10.5709,10.5817,10.5962,10.6542,10.7049,10.7085,10.7043,10.6614,10.5926,10.5606,10.5063,10.496,10.4924,10.4905,10.5062,10.5075,10.5279,10.5347,10.5658,10.5725,10.5411,10.5238,10.5233,10.5007,10.4645,10.4252,10.4252,10.4284,10.4362,10.4834,10.4976,10.5086,10.4976,10.4866,10.4352,10.3812,10.3691,10.3691,10.3948,10.4278,10.4798,10.5353,10.5904,10.6156,10.5972,10.6046,10.6308,10.6418,10.6643,10.6937,10.7194,10.7346,10.7346,10.7383,10.7199,10.6979]},{"header":{"parameterUnit":"m.s-1","parameterCategory":1,"la1":31.0,"la2":29.5877,"lo1":-88.7671,"lo2":-86.6584,"dy":0.0162,"dx":0.0185,"nx":115,"ny":88,"refTime":"2023-11-01T12:00:00:Z","depth":0,"parameterNumber":3,"parameterNumberName":"V-component_of_WINDS"},"data":[0.0,0.0,0.0,0.0,0.0,0.0,0.0,0.0,0.0,0.0,0.0,0.0,0.0,0.0,0.0,0.0,0.0,0.0,0.0,0.0,0.0,0.0,0.0,0.0,0.0,0.0,0.0,0.0,0.0,0.0,0.0,0.0,0.0,0.0,0.0,0.0,0.0,0.0,0.0,0.0,0.0,0.0,0.0,0.0,0.0,0.0,0.0,0.0,0.0,0.0,0.0,0.0,0.0,0.0,0.0,0.0,0.0,0.0,0.0,0.0,0.0,0.0,0.0,0.0,0.0,0.0,0.0,0.0,0.0,0.0,0.0,0.0,0.0,0.0,0.0,0.0,0.0,0.0,0.0,0.0,0.0,0.0,0.0,0.0,0.0,0.0,0.0,0.0,0.0,0.0,0.0,0.0,0.0,0.0,0.0,0.0,0.0,0.0,0.0,0.0,0.0,0.0,0.0,0.0,0.0,0.0,0.0,0.0,0.0,0.0,0.0,0.0,0.0,0.0,0.0,0.0,0.0,0.0,0.0,0.0,0.0,0.0,0.0,0.0,0.0,0.0,0.0,0.0,0.0,0.0,0.0,0.0,0.0,0.0,0.0,0.0,0.0,0.0,0.0,0.0,0.0,0.0,0.0,0.0,0.0,0.0,0.0,0.0,0.0,0.0,0.0,0.0,0.0,0.0,0.0,0.0,0.0,0.0,0.0,0.0,0.0,0.0,0.0,0.0,0.0,0.0,0.0,0.0,0.0,0.0,0.0,0.0,0.0,0.0,0.0,0.0,0.0,0.0,0.0,0.0,0.0,0.0,0.0,0.0,0.0,0.0,0.0,0.0,0.0,0.0,0.0,0.0,0.0,0.0,0.0,0.0,0.0,0.0,0.0,0.0,0.0,0.0,0.0,0.0,0.0,0.0,0.0,0.0,0.0,0.0,0.0,0.0,0.0,0.0,0.0,0.0,0.0,0.0,0.0,0.0,0.0,0.0,0.0,0.0,0.0,0.0,0.0,0.0,0.0,0.0,0.0,0.0,0.0,0.0,0.0,0.0,0.0,0.0,0.0,0.0,0.0,0.0,0.0,0.0,0.0,0.0,0.0,0.0,0.0,0.0,0.0,0.0,0.0,0.0,0.0,0.0,0.0,0.0,0.0,0.0,0.0,0.0,0.0,0.0,0.0,0.0,0.0,0.0,0.0,0.0,0.0,0.0,0.0,0.0,0.0,0.0,0.0,0.0,0.0,0.0,0.0,0.0,0.0,0.0,0.0,0.0,0.0,0.0,0.0,0.0,0.0,0.0,0.0,0.0,0.0,0.0,0.0,0.0,0.0,0.0,0.0,0.0,0.0,0.0,0.0,0.0,0.0,0.0,0.0,0.0,0.0,0.0,0.0,0.0,0.0,0.0,0.0,0.0,0.0,0.0,0.0,0.0,0.0,0.0,0.0,0.0,0.0,0.0,0.0,0.0,0.0,0.0,0.0,0.0,0.0,0.0,0.0,0.0,0.0,0.0,0.0,0.0,0.0,0.0,0.0,0.0,0.0,0.0,0.0,0.0,0.0,0.0,0.0,0.0,0.0,0.0,0.0,0.0,0.0,0.0,0.0,0.0,0.0,0.0,0.0,0.0,0.0,0.0,0.0,0.0,0.0,0.0,0.0,0.0,0.0,0.0,0.0,0.0,0.0,0.0,0.0,0.0,0.0,0.0,0.0,0.0,0.0,0.0,0.0,0.0,0.0,0.0,0.0,0.0,0.0,0.0,0.0,0.0,0.0,0.0,0.0,0.0,0.0,0.0,0.0,0.0,0.0,0.0,0.0,0.0,0.0,0.0,0.0,0.0,0.0,0.0,0.0,0.0,0.0,0.0,0.0,0.0,0.0,0.0,0.0,0.0,0.0,0.0,0.0,0.0,0.0,0.0,0.0,0.0,0.0,0.0,0.0,0.0,0.0,0.0,0.0,0.0,0.0,0.0,0.0,0.0,0.0,0.0,0.0,0.0,0.0,0.0,0.0,0.0,0.0,0.0,0.0,0.0,0.0,0.0,0.0,0.0,0.0,0.0,0.0,0.0,0.0,0.0,0.0,0.0,0.0,0.0,0.0,0.0,0.0,0.0,0.0,0.0,0.0,0.0,0.0,0.0,0.0,0.0,0.0,0.0,0.0,0.0,0.0,0.0,0.0,0.0,0.0,0.0,0.0,0.0,0.0,0.0,0.0,0.0,0.0,0.0,0.0,0.0,0.0,0.0,0.0,0.0,0.0,0.0,0.0,0.0,0.0,0.0,0.0,0.0,0.0,0.0,0.0,0.0,0.0,0.0,0.0,0.0,0.0,0.0,0.0,0.0,0.0,0.0,0.0,0.0,0.0,0.0,0.0,0.0,0.0,0.0,0.0,0.0,0.0,0.0,0.0,0.0,0.0,0.0,0.0,0.0,0.0,0.0,0.0,0.0,0.0,0.0,0.0,0.0,0.0,0.0,0.0,0.0,0.0,0.0,0.0,0.0,0.0,0.0,0.0,0.0,0.0,0.0,0.0,0.0,0.0,0.0,0.0,0.0,0.0,0.0,0.0,0.0,0.0,0.0,0.0,0.0,0.0,0.0,0.0,0.0,0.0,0.0,0.0,0.0,0.0,0.0,0.0,0.0,0.0,0.0,0.0,0.0,0.0,0.0,0.0,0.0,0.0,0.0,0.0,0.0,0.0,0.0,0.0,0.0,0.0,0.0,0.0,0.0,0.0,0.0,0.0,0.0,0.0,0.0,0.0,0.0,0.0,0.0,0.0,0.0,0.0,0.0,0.0,0.0,0.0,0.0,0.0,0.0,0.0,0.0,0.0,0.0,0.0,0.0,0.0,0.0,0.0,0.0,0.0,0.0,0.0,0.0,0.0,0.0,0.0,0.0,0.0,0.0,0.0,0.0,0.0,0.0,0.0,0.0,0.0,0.0,0.0,0.0,0.0,0.0,0.0,0.0,0.0,0.0,0.0,0.0,0.0,0.0,0.0,0.0,0.0,0.0,0.0,0.0,0.0,0.0,0.0,0.0,0.0,0.0,0.0,0.0,0.0,0.0,0.0,0.0,0.0,0.0,0.0,0.0,0.0,0.0,0.0,0.0,0.0,0.0,0.0,0.0,0.0,0.0,0.0,0.0,0.0,0.0,0.0,0.0,0.0,0.0,0.0,0.0,0.0,0.0,0.0,0.0,0.0,0.0,0.0,0.0,0.0,0.0,0.0,0.0,0.0,0.0,0.0,0.0,0.0,0.0,0.0,0.0,0.0,0.0,0.0,0.0,0.0,0.0,0.0,0.0,0.0,0.0,0.0,0.0,0.0,0.0,0.0,0.0,0.0,0.0,0.0,0.0,0.0,0.0,0.0,0.0,0.0,0.0,0.0,0.0,0.0,0.0,0.0,0.0,0.0,0.0,0.0,0.0,0.0,0.0,0.0,0.0,0.0,0.0,0.0,0.0,0.0,0.0,0.0,0.0,0.0,0.0,0.0,0.0,0.0,0.0,0.0,0.0,0.0,0.0,0.0,0.0,0.0,0.0,0.0,0.0,0.0,0.0,0.0,0.0,0.0,0.0,0.0,0.0,0.0,0.0,0.0,0.0,0.0,0.0,0.0,0.0,0.0,0.0,0.0,0.0,0.0,0.0,0.0,0.0,0.0,0.0,0.0,0.0,0.0,0.0,0.0,0.0,0.0,0.0,0.0,0.0,0.0,0.0,0.0,0.0,0.0,0.0,0.0,0.0,0.0,0.0,0.0,0.0,0.0,0.0,0.0,0.0,0.0,0.0,0.0,0.0,0.0,0.0,0.0,0.0,0.0,0.0,0.0,0.0,0.0,0.0,0.0,0.0,0.0,0.0,0.0,0.0,0.0,0.0,0.0,0.0,0.0,0.0,0.0,0.0,0.0,0.0,0.0,0.0,0.0,0.0,0.0,0.0,0.0,0.0,0.0,0.0,0.0,0.0,0.0,0.0,0.0,0.0,0.0,0.0,0.0,0.0,0.0,0.0,0.0,0.0,0.0,0.0,0.0,0.0,0.0,0.0,0.0,0.0,0.0,0.0,0.0,0.0,0.0,0.0,0.0,0.0,0.0,0.0,0.0,0.0,0.0,0.0,0.0,0.0,0.0,0.0,0.0,0.0,0.0,0.0,0.0,0.0,0.0,0.0,0.0,0.0,0.0,0.0,0.0,0.0,0.0,0.0,0.0,0.0,0.0,0.0,0.0,0.0,0.0,0.0,0.0,0.0,0.0,0.0,0.0,0.0,0.0,0.0,1.0086,0.0,0.0,0.0,0.0,0.0,0.0,0.0,0.0,0.0,0.0,0.0,0.0,0.0,0.0,0.0,0.0,0.0,0.0,0.0,0.0,0.0,0.0,0.0,0.0,0.0,0.0,0.0,0.0,0.0,0.0,0.0,0.0,0.0,0.0,0.0,0.0,0.0,0.0,0.0,0.0,0.0,0.0,0.0,0.0,0.0,0.0,0.0,0.0,0.0,0.0,0.0,0.0,0.0,0.0,0.0,0.0,0.0,0.0,0.0,0.0,0.0,0.0,0.0,0.0,0.0,0.0,0.0,0.0,0.0,0.0,0.0,0.0,0.0,0.0,0.0,0.0,0.0,0.0,0.0,0.0,0.0,0.0,0.0,0.0,0.0,0.0,0.0,0.0,0.0,0.0,0.0,0.0,0.0,0.0,0.0,0.0,0.0,0.0,0.0,0.0,0.0,0.0,0.0,0.0,0.0,0.0,0.0,0.0,0.0,0.0,1.137,1.0929,1.0834,1.0502,0.9862,0.0,0.0,0.0,0.0,0.0,0.0,0.0,0.0,0.0,0.0,0.0,0.0,0.0,0.0,0.0,0.0,0.0,0.0,0.0,0.0,0.0,0.0,0.0,0.0,0.0,0.0,0.0,0.0,0.0,0.0,0.0,0.0,0.0,0.0,0.0,0.0,0.0,0.0,0.0,0.0,0.0,0.0,0.0,0.0,0.0,0.0,0.0,0.0,0.0,0.0,0.0,0.0,0.0,0.0,0.0,0.0,0.0,0.0,0.0,0.0,0.0,0.0,0.0,0.0,0.0,0.0,0.0,0.0,0.0,0.0,0.0,0.0,0.0,0.0,0.0,0.0,0.0,0.0,0.0,0.0,0.0,0.0,0.0,0.0,0.0,0.0,0.0,0.0,0.0,0.0,0.0,0.0,0.0,0.0,0.0,0.0,0.0,0.0,0.0,0.0,0.0,0.0,0.0,0.0,0.0,0.0,0.0,0.0,0.0,0.0,0.0,0.0,1.0715,1.0269,0.9566,0.0,0.0,0.0,0.0,0.0,0.0,0.0,0.0,0.0,0.0,0.0,0.0,0.0,0.0,0.0,0.0,0.0,0.0,0.0,0.0,0.0,0.0,0.0,0.0,0.0,0.0,0.0,0.0,0.0,0.0,0.0,0.0,0.0,0.0,0.0,0.0,0.0,0.0,0.0,0.0,0.0,0.0,0.0,0.0,0.0,0.0,0.0,0.0,0.0,0.0,0.0,0.0,0.0,0.0,0.0,0.0,0.0,0.0,0.0,0.0,0.0,0.0,0.0,0.0,0.0,0.0,0.0,0.0,0.0,0.0,0.0,0.0,0.0,0.0,0.0,0.0,0.0,0.0,0.0,0.0,0.0,0.0,0.0,0.0,0.0,0.0,0.0,0.0,0.0,0.0,0.0,0.0,0.0,0.0,0.0,0.0,0.0,0.0,0.0,0.0,0.0,0.0,0.0,0.0,0.0,0.0,0.0,0.0,0.0,0.0,1.0634,1.0721,1.0239,0.0,0.9047,0.0,0.0,0.0,0.0,0.0,0.0,0.0,0.0,0.0,0.0,0.0,0.0,0.0,0.0,0.0,0.0,0.0,0.0,0.0,0.0,0.0,0.0,0.0,0.0,0.0,0.0,0.0,0.0,0.0,0.0,0.0,0.0,0.0,0.0,0.0,0.0,0.0,0.0,0.0,0.0,0.0,0.0,0.0,0.0,0.0,0.0,0.0,0.0,0.0,0.0,0.0,0.0,0.0,0.0,0.0,0.0,0.0,0.0,0.0,0.0,0.0,0.0,0.0,0.0,0.0,0.0,0.0,0.0,0.0,0.0,0.0,0.0,0.0,0.0,0.0,0.0,0.0,0.0,0.0,0.0,0.0,0.0,0.0,0.0,0.0,0.0,0.0,0.0,0.0,0.0,0.0,0.0,0.0,0.0,0.0,0.0,0.0,0.0,0.0,0.0,0.0,0.0,0.0,0.0,0.0,0.0,0.0,0.0,0.0,0.0,1.0408,1.0232,0.9555,0.9104,0.0,0.0,0.0,0.0,0.0,0.0,0.0,0.0,0.0,0.0,0.0,0.0,0.0,0.0,0.0,0.0,0.0,0.0,0.0,0.0,0.0,0.0,0.0,0.0,0.0,0.0,0.0,0.0,0.0,0.0,0.0,0.0,0.0,0.0,0.0,0.0,0.0,0.0,0.0,0.0,0.0,0.0,0.0,0.0,0.0,0.0,0.0,0.0,0.0,0.0,0.0,0.0,0.0,0.0,0.0,0.0,0.0,0.0,0.0,0.0,0.0,0.0,0.0,0.0,0.0,0.0,0.0,0.0,0.0,0.0,0.0,0.0,0.0,0.0,0.0,0.0,0.0,0.0,0.0,0.0,0.0,0.0,0.0,0.0,0.0,0.0,0.0,0.0,0.0,0.0,0.0,0.0,0.0,0.0,0.0,0.0,0.0,0.0,0.0,0.0,0.0,0.0,0.0,0.0,0.0,0.0,0.0,0.0,0.0,0.0,1.0329,1.0085,0.9786,0.9197,0.8896,0.8947,0.0,0.0,0.0,0.0,0.0,0.0,0.0,0.0,0.0,0.0,0.0,0.0,0.0,0.0,0.0,0.0,0.0,0.0,0.0,0.0,0.0,0.0,0.0,0.0,0.0,0.0,0.0,0.0,0.0,0.0,0.0,0.0,0.0,0.0,0.0,0.0,0.0,0.0,0.0,0.0,0.0,0.0,0.0,0.0,0.0,0.0,0.0,0.0,0.0,0.0,0.0,0.0,0.0,0.0,0.0,0.0,0.0,0.0,0.0,0.0,0.0,0.0,0.0,0.0,0.0,0.0,0.0,0.0,0.0,0.0,0.0,0.0,0.0,0.0,0.0,0.0,0.0,0.0,0.0,0.0,0.0,0.0,0.0,0.0,0.0,0.0,0.0,0.0,0.0,0.0,0.0,0.0,0.0,0.0,0.0,0.0,0.0,0.0,0.0,0.0,0.0,0.0,0.0,0.0,0.0,0.0,0.0,0.0,1.0456,0.9869,0.9531,0.9512,0.9367,0.9229,0.0,0.0,0.0,0.0,0.0,0.0,0.0,0.0,0.0,0.0,0.0,0.0,0.0,0.0,0.0,0.0,0.0,0.0,0.0,0.0,0.0,0.0,0.0,0.0,0.0,0.0,0.0,0.0,0.0,0.0,0.0,0.0,0.0,0.0,0.0,0.0,0.0,0.0,0.0,0.0,0.0,0.0,0.0,0.0,0.0,0.0,0.0,0.0,0.0,0.0,0.0,0.0,0.0,0.0,0.0,0.0,0.0,0.0,0.0,0.0,0.0,0.0,0.0,0.0,0.0,0.0,0.0,0.0,0.0,0.0,0.0,0.0,0.0,0.0,0.0,0.0,0.0,0.0,0.0,0.0,0.0,0.0,0.0,0.0,0.0,0.0,0.0,0.0,0.0,0.0,0.0,0.0,0.0,0.0,0.0,0.0,0.0,0.0,0.0,0.0,0.0,0.0,0.0,0.0,0.0,0.0,0.0,0.0,0.0,0.996,0.9661,0.9395,0.9186,0.8999,0.9006,0.0,0.0,0.0,0.0,0.0,0.0,0.0,0.0,0.0,0.0,0.0,0.0,0.0,0.0,0.0,0.0,0.0,0.0,0.0,0.0,0.0,0.0,0.0,0.0,0.0,0.0,0.0,0.0,0.0,0.0,0.0,0.0,0.0,0.0,0.0,0.0,0.0,0.0,0.0,0.0,0.0,0.0,0.0,0.0,0.0,0.0,0.0,0.0,0.0,0.0,0.0,0.0,0.0,0.0,0.0,0.0,0.0,0.0,0.0,0.0,0.0,0.0,0.0,0.0,0.0,0.0,0.0,0.0,0.0,0.0,0.0,0.0,0.0,0.0,0.0,0.0,0.0,0.0,0.0,0.0,0.0,0.0,0.0,0.0,0.0,0.0,0.0,0.0,0.0,0.0,0.0,0.0,0.0,0.0,0.0,0.0,0.0,0.0,0.0,0.0,0.0,0.0,0.0,0.0,0.0,0.0,0.0,0.0,0.0,0.9739,0.0,0.9473,0.9229,0.9047,0.9064,0.0,0.0,0.0,0.0,0.0,0.0,0.0,0.0,0.0,0.0,0.0,0.0,0.0,0.0,0.0,0.0,0.0,0.0,0.0,0.0,0.0,0.0,0.0,0.0,0.0,0.0,0.0,0.0,0.0,0.0,0.0,0.0,0.0,0.0,0.0,0.0,0.0,0.0,0.0,0.0,0.0,0.0,0.0,0.0,0.0,0.0,0.0,0.0,0.0,0.0,0.0,0.0,0.0,0.0,0.0,0.0,0.0,0.0,0.0,0.0,0.0,0.0,0.0,0.0,0.0,0.0,0.0,0.0,0.0,0.0,0.0,0.0,0.0,0.0,0.0,0.0,0.0,0.0,0.0,0.0,0.0,0.0,0.0,0.0,0.0,0.0,0.0,0.0,0.0,0.0,0.0,0.0,0.0,0.0,0.0,0.0,0.0,0.0,0.0,0.0,0.0,0.0,0.0,0.0,0.0,0.0,0.0,0.0,0.9798,0.9792,0.9787,0.9753,0.9682,0.9548,0.9441,0.0,0.0,0.0,0.0,0.0,0.0,0.0,0.0,0.0,0.0,0.0,0.0,0.0,0.0,0.0,0.0,0.0,0.0,0.0,0.0,0.0,0.0,0.0,0.0,0.0,0.0,0.0,0.0,0.0,0.0,0.0,0.0,0.0,0.0,0.0,0.0,0.0,0.0,0.0,0.0,0.0,0.0,0.0,0.0,0.0,0.0,0.0,0.0,0.0,0.0,0.0,0.0,0.0,0.0,0.0,0.0,0.0,0.0,0.0,0.0,0.0,0.0,0.0,0.0,0.0,0.0,0.0,0.0,0.0,0.0,0.0,0.0,0.0,0.0,0.0,0.0,0.0,0.0,0.0,0.0,0.0,0.0,0.0,0.0,0.0,0.0,0.0,0.0,0.0,0.0,0.0,0.0,0.0,0.0,0.0,0.0,0.0,0.0,0.0,0.0,0.0,0.0,0.0,0.0,0.0,0.0,0.0,0.0,0.0,0.9545,0.9801,0.9841,0.9655,0.9536,0.9546,0.0,0.0,0.0,0.0,0.0,0.0,0.0,0.0,0.0,0.0,0.0,0.0,0.0,0.0,0.0,0.0,0.0,0.0,0.0,0.0,0.0,0.0,0.0,0.0,0.0,0.0,0.0,0.0,0.0,0.0,0.0,0.0,0.0,0.0,0.0,0.0,0.0,0.0,0.0,0.0,0.0,0.0,0.0,0.0,0.0,0.0,0.0,0.0,0.0,0.0,0.0,0.0,0.0,0.0,0.0,0.0,0.0,0.0,0.0,0.0,0.0,0.0,0.0,0.0,0.0,0.0,0.0,0.0,0.0,0.0,0.0,0.0,0.0,0.0,0.0,0.0,0.0,0.0,0.0,0.0,0.0,0.0,0.0,0.0,0.0,0.0,0.0,0.0,0.0,0.0,0.0,0.0,0.0,0.0,0.0,0.0,0.0,0.0,0.0,0.0,0.0,0.0,0.0,0.0,0.0,0.0,0.0,0.0,0.0,1.0756,1.0794,1.0732,1.0525,1.0444,1.0182,0.9788,0.0,0.0,0.0,0.0,0.0,0.0,0.0,0.0,0.0,0.0,0.0,0.0,0.0,0.0,0.0,0.0,0.0,0.0,0.0,0.0,0.0,0.0,0.0,0.0,0.0,0.0,0.0,0.0,0.0,0.0,0.0,0.0,0.0,0.0,0.0,0.0,0.0,0.0,0.0,0.0,0.0,0.0,0.0,0.0,0.0,0.0,0.0,0.0,0.0,0.0,0.0,0.0,0.0,0.0,0.0,0.0,0.0,0.0,0.0,0.0,0.0,0.0,0.0,0.0,0.0,0.0,0.0,0.0,0.0,0.0,0.0,0.0,0.0,0.0,0.0,0.0,0.0,0.0,0.0,0.0,0.0,0.0,0.0,0.0,0.0,0.0,0.0,0.0,0.0,0.0,0.0,0.0,0.0,0.0,0.0,0.0,0.0,0.0,0.0,0.0,0.0,0.0,0.0,0.0,0.0,0.0,0.0,0.0,1.3121,1.2723,1.2445,1.2293,1.2062,1.1299,0.0,0.0,0.0,0.0,0.0,0.0,0.0,0.0,0.0,0.0,0.0,0.0,0.0,0.0,0.0,0.0,0.0,0.0,0.0,0.0,0.0,0.0,0.0,0.0,0.0,0.0,0.0,0.0,0.0,0.0,0.0,0.0,0.0,0.0,0.0,0.0,0.0,0.0,0.0,0.0,0.0,0.0,0.0,0.0,0.0,0.0,0.0,0.0,0.0,0.0,0.0,0.0,0.0,0.0,0.0,0.0,0.0,0.0,0.0,0.0,0.0,0.0,0.0,0.0,0.0,0.0,0.0,0.0,0.0,0.0,0.0,0.0,0.0,0.0,0.0,0.0,0.0,0.0,0.0,0.0,0.0,0.0,0.0,0.0,0.0,0.0,0.0,0.0,0.0,0.0,0.0,0.0,0.0,0.0,0.0,0.0,0.0,0.0,0.0,0.0,0.0,0.0,0.0,0.0,0.0,0.0,0.0,0.0,0.0,1.446,1.5594,1.5683,1.4625,1.3186,1.222,0.0,0.0,0.0,0.0,0.0,0.0,0.0,0.0,0.0,0.0,0.0,0.0,0.0,0.0,0.0,0.0,0.0,0.0,0.0,0.0,0.0,0.0,0.0,0.0,0.0,0.0,0.0,0.0,0.0,0.0,0.0,0.0,0.0,0.0,0.0,0.0,0.0,0.0,0.0,0.0,0.0,0.0,0.0,0.0,0.0,0.0,0.0,0.0,0.0,0.0,0.0,0.0,0.0,0.0,0.0,0.0,0.0,0.0,0.0,0.0,0.0,0.0,0.0,0.0,0.0,0.0,0.0,0.0,0.0,0.0,0.0,0.0,0.0,0.0,0.0,0.0,0.0,0.0,0.0,0.0,0.0,0.0,0.0,0.0,0.0,0.0,0.0,0.0,0.0,0.0,0.0,0.0,0.0,0.0,0.0,0.0,0.0,0.0,0.0,0.0,0.0,0.0,0.0,0.0,0.0,0.0,0.0,0.0,1.4501,1.5584,1.7836,1.8657,1.7911,1.5186,1.3363,0.0,0.0,0.0,0.0,0.0,0.0,0.0,0.0,0.0,0.0,0.0,0.0,0.0,0.0,0.0,0.0,0.0,0.0,0.0,0.0,0.0,0.0,0.0,0.0,0.0,0.0,0.0,0.0,0.0,0.0,0.0,0.0,0.0,0.0,0.0,0.0,0.0,0.0,0.0,0.0,0.0,0.0,0.0,0.0,0.0,0.0,0.0,0.0,0.0,0.0,0.0,0.0,0.0,0.0,0.0,0.0,0.0,0.0,0.0,0.0,0.0,0.0,0.0,0.0,0.0,0.0,0.0,0.0,0.0,0.0,0.0,0.0,0.0,0.0,0.0,0.0,0.0,0.0,0.0,0.0,0.0,0.0,0.0,0.0,0.0,0.0,0.0,0.0,0.0,0.0,0.0,0.0,0.0,0.0,0.0,0.0,0.0,0.0,0.0,0.0,0.0,0.0,0.0,0.0,0.0,0.0,0.0,0.0,1.5957,1.6754,1.9585,2.1166,2.1221,1.7473,1.4607,0.0,0.0,0.0,0.0,0.0,0.0,0.0,0.0,0.0,0.0,0.0,0.0,0.0,0.0,0.0,0.0,0.0,0.0,0.0,0.0,0.0,0.0,0.0,0.0,0.0,0.0,0.0,0.0,0.0,0.0,0.0,0.0,0.0,0.0,0.0,0.0,0.0,0.0,0.0,0.0,0.0,0.0,0.0,0.0,0.0,0.0,0.0,0.0,0.0,0.0,0.0,0.0,0.0,0.0,0.0,0.0,0.0,0.0,0.0,0.0,0.0,0.0,0.0,0.0,0.0,0.0,0.0,0.0,0.0,0.0,0.0,0.0,0.0,0.0,0.0,0.0,0.0,0.0,0.0,0.0,0.0,0.0,0.0,0.0,0.0,0.0,0.0,0.0,0.0,0.0,0.0,0.0,0.0,0.0,0.0,0.0,0.0,0.0,0.0,0.0,0.0,0.0,0.0,0.0,0.0,0.0,0.0,0.0,1.6961,1.8974,2.0764,2.1848,2.212,1.8115,1.5539,0.0,0.0,0.0,0.0,0.0,0.0,0.0,0.0,0.0,0.0,0.0,0.0,0.0,0.0,0.0,0.0,0.0,0.0,0.0,0.0,0.0,0.0,0.0,0.0,0.0,0.0,0.0,0.0,0.0,0.0,0.0,0.0,0.0,0.0,0.0,0.0,0.0,0.0,0.0,0.0,0.0,0.0,0.0,0.0,0.0,0.0,0.0,0.0,1.5795,0.0,0.0,0.0,0.0,0.0,0.0,0.0,0.0,0.0,0.0,0.0,0.0,0.0,0.0,0.0,0.0,0.0,0.0,0.0,0.0,0.0,0.0,0.0,0.0,0.0,0.0,0.0,0.0,0.0,0.0,0.0,0.0,0.0,0.0,0.0,0.0,0.0,0.0,0.0,0.0,0.0,0.0,0.0,0.0,0.0,0.0,0.0,0.0,0.0,0.0,0.0,0.0,0.0,0.0,0.0,0.0,0.0,0.0,0.0,1.7632,1.9794,2.1427,2.2317,2.2285,1.9262,1.6897,0.0,0.0,0.0,0.0,0.0,0.0,0.0,0.0,0.0,0.0,0.0,0.0,0.0,0.0,0.0,0.0,0.0,0.0,0.0,0.0,0.0,0.0,0.0,0.0,0.0,0.0,0.0,0.0,0.0,0.0,0.0,0.0,0.0,0.0,0.0,0.0,0.0,0.0,0.0,0.0,0.0,0.0,0.0,0.0,0.0,0.0,0.0,0.0,0.0,0.0,0.0,0.0,0.0,0.0,0.0,0.0,0.0,0.0,0.0,0.0,0.0,0.0,0.0,0.0,0.0,0.0,0.0,0.0,0.0,0.0,0.0,0.0,0.0,0.0,0.0,0.0,0.0,0.0,0.0,0.0,0.0,0.0,0.0,0.0,0.0,0.0,0.0,0.0,0.0,0.0,0.0,0.0,0.0,0.0,0.0,0.0,0.0,0.0,0.0,0.0,0.0,0.0,0.0,0.0,0.0,0.0,0.0,1.6256,1.8291,2.0413,2.1961,2.2658,2.2457,2.0325,1.8134,0.0,0.0,0.0,0.0,0.0,0.0,0.0,0.0,0.0,0.0,0.0,0.0,0.0,0.0,0.0,0.0,0.0,0.0,0.0,0.0,0.0,0.0,0.0,0.0,0.0,0.0,0.0,0.0,0.0,0.0,0.0,0.0,0.0,0.0,0.0,0.0,0.0,0.0,0.0,1.0898,1.1346,0.0,0.0,0.0,0.0,0.0,0.0,0.0,0.0,1.6252,0.0,0.0,0.0,0.0,0.0,0.0,0.0,0.0,0.0,0.0,0.0,0.0,0.0,0.0,0.0,0.0,0.0,0.0,0.0,0.0,0.0,0.0,0.0,0.0,0.0,0.0,0.0,0.0,0.0,0.0,0.0,0.0,0.0,0.0,0.0,0.0,0.0,0.0,0.0,0.0,0.0,0.0,0.0,0.0,0.0,0.0,0.0,0.0,0.0,0.0,0.0,0.0,0.0,0.0,0.0,0.0,1.6615,1.7499,1.942,2.2422,2.28,2.2932,2.2829,2.0392,1.8282,1.6659,0.0,0.0,0.0,0.0,0.0,0.0,0.0,0.0,0.0,0.0,0.0,0.0,0.0,0.0,0.0,0.0,0.0,0.0,0.0,0.0,0.0,0.0,0.0,0.0,0.0,0.0,0.0,0.0,0.0,0.0,0.0,0.0,0.0,0.0,0.0,0.0,0.0,0.0,0.0,1.1871,1.2386,0.0,0.0,0.0,0.0,0.0,0.0,0.0,0.0,1.6459,0.0,0.0,0.0,0.0,0.0,0.0,0.0,0.0,0.0,0.0,0.0,0.0,0.0,0.0,0.0,0.0,0.0,0.0,0.0,0.0,0.0,0.0,0.0,0.0,0.0,0.0,0.0,0.0,0.0,0.0,0.0,0.0,0.0,0.0,0.0,0.0,0.0,0.0,0.0,0.0,0.0,0.0,0.0,0.0,0.0,0.0,0.0,0.0,0.0,0.0,0.0,0.0,0.0,0.0,0.0,1.7283,1.8615,2.0527,2.3029,2.3168,2.3099,2.2967,2.0801,1.8914,0.0,0.0,0.0,0.0,0.0,0.0,0.0,0.0,0.0,0.0,0.0,0.0,0.0,0.0,0.0,0.0,0.0,0.0,0.0,0.0,0.0,0.0,0.0,0.0,0.0,0.0,0.0,0.0,0.0,0.0,0.0,0.0,0.0,0.0,0.0,0.0,0.0,0.0,0.0,0.0,1.2278,1.2927,1.4582,0.0,0.0,0.0,0.0,0.0,0.0,1.6629,1.6819,0.0,0.0,0.0,0.0,0.0,0.0,0.0,0.0,0.0,0.0,0.0,0.0,0.0,0.0,0.0,0.0,0.0,0.0,0.0,0.0,0.0,0.0,0.0,0.0,0.0,0.0,0.0,0.0,0.0,0.0,0.0,0.0,0.0,0.0,0.0,0.0,0.0,0.0,0.0,0.0,0.0,0.0,0.0,0.0,0.0,0.0,0.0,0.0,0.0,0.0,0.0,0.0,0.0,0.0,0.0,1.7736,1.9526,2.1399,2.3258,2.3322,2.3216,2.2964,2.0867,1.9146,0.0,0.0,0.0,0.0,0.0,0.0,0.0,0.0,0.0,0.0,0.0,0.0,0.0,0.0,0.0,0.0,0.0,0.0,0.0,0.0,0.0,0.0,0.0,0.0,0.0,0.0,0.0,0.0,0.0,0.0,0.0,0.0,0.0,0.0,0.0,0.0,0.0,0.0,0.0,0.0,0.0,1.3538,1.4984,1.4935,0.0,0.0,0.0,0.0,1.6075,1.6981,0.0,0.0,0.0,0.0,0.0,0.0,0.0,0.0,0.0,0.0,0.0,0.0,0.0,0.0,0.0,0.0,0.0,0.0,0.0,0.0,0.0,0.0,0.0,0.0,0.0,0.0,0.0,0.0,0.0,0.0,0.0,0.0,0.0,0.0,0.0,0.0,0.0,0.0,0.0,0.0,0.0,0.0,0.0,0.0,0.0,0.0,0.0,0.0,0.0,0.0,0.0,0.0,0.0,0.0,0.0,0.0,1.8539,2.0116,2.1764,2.3463,2.3375,2.319,2.2973,1.9855,1.803,0.0,0.0,0.0,0.0,0.0,0.0,0.0,0.0,0.0,0.0,0.0,0.0,0.0,0.0,0.0,0.0,0.0,0.0,0.0,0.0,0.0,0.0,0.0,0.0,0.0,0.0,0.0,0.0,0.0,0.0,0.0,0.0,0.0,0.0,0.0,0.0,0.0,0.0,0.0,0.0,0.0,1.3937,1.5352,1.5022,1.486,0.0,0.0,0.0,1.6797,1.8111,0.0,0.0,0.0,0.0,0.0,0.0,0.0,0.0,0.0,0.0,0.0,0.0,0.0,0.0,0.0,0.0,0.0,0.0,0.0,0.0,0.0,0.0,0.0,0.0,0.0,0.0,0.0,0.0,0.0,0.0,0.0,0.0,0.0,0.0,0.0,0.0,0.0,0.0,0.0,0.0,0.0,0.0,0.0,0.0,0.0,0.0,0.0,0.0,0.0,0.0,0.0,0.0,0.0,0.0,0.0,0.0,1.8748,2.1077,2.2709,2.3555,2.3511,2.3313,2.3008,2.0279,1.8504,0.0,0.0,0.0,0.0,0.0,0.0,0.0,0.0,0.0,0.0,0.0,0.0,0.0,0.0,0.0,0.0,0.0,0.0,0.0,0.0,0.0,0.0,0.0,0.0,0.0,0.0,0.0,0.0,0.0,0.0,0.0,0.0,0.0,0.0,0.0,0.0,0.0,0.0,0.0,0.0,0.0,0.0,1.5451,1.5408,0.0,0.0,0.0,1.6936,1.6848,0.0,0.0,0.0,0.0,0.0,0.0,0.0,0.0,0.0,0.0,0.0,0.0,0.0,0.0,0.0,0.0,0.0,0.0,0.0,0.0,0.0,0.0,0.0,0.0,0.0,0.0,0.0,0.0,0.0,0.0,0.0,0.0,0.0,0.0,0.0,0.0,0.0,0.0,0.0,0.0,0.0,0.0,0.0,0.0,0.0,0.0,0.0,0.0,0.0,0.0,0.0,0.0,0.0,0.0,0.0,0.0,0.0,1.8822,2.1818,2.3445,2.3586,2.3678,2.348,2.2961,2.0872,0.0,0.0,0.0,0.0,0.0,0.0,0.0,0.0,0.0,0.0,0.0,0.0,0.0,0.0,0.0,0.0,0.0,0.0,0.0,0.0,0.0,0.0,0.0,0.0,0.0,0.0,0.0,0.0,0.0,0.0,0.0,0.0,0.0,0.0,0.0,0.0,0.0,0.0,0.0,0.0,0.0,0.0,1.5082,1.5793,1.6047,1.6635,0.0,0.0,1.7403,1.7333,1.8827,1.9416,0.0,0.0,0.0,0.0,0.0,0.0,0.0,0.0,0.0,0.0,0.0,0.0,0.0,0.0,0.0,0.0,0.0,0.0,0.0,0.0,0.0,0.0,0.0,0.0,0.0,0.0,0.0,0.0,0.0,0.0,0.0,0.0,0.0,0.0,0.0,0.0,0.0,0.0,0.0,0.0,0.0,0.0,0.0,0.0,0.0,0.0,0.0,0.0,0.0,0.0,0.0,0.0,0.0,0.0,0.0,1.908,2.2013,2.359,2.3609,2.3846,2.3657,2.2995,2.1262,1.9838,0.0,0.0,0.0,0.0,0.0,0.0,0.0,0.0,0.0,0.0,0.0,0.0,0.0,0.0,0.0,0.0,0.0,0.0,0.0,0.0,0.0,0.0,0.0,0.0,0.0,0.0,0.0,0.0,0.0,0.0,0.0,0.0,0.0,0.0,0.0,0.0,0.0,0.0,0.0,0.0,0.0,1.596,1.6624,1.6998,1.7714,0.0,0.0,1.7831,1.8871,2.0183,2.0423,1.8534,0.0,0.0,0.0,0.0,0.0,0.0,0.0,0.0,0.0,0.0,0.0,0.0,0.0,0.0,0.0,0.0,0.0,0.0,0.0,0.0,0.0,0.0,0.0,0.0,0.0,0.0,0.0,0.0,0.0,0.0,0.0,0.0,0.0,0.0,0.0,0.0,0.0,0.0,0.0,0.0,0.0,0.0,0.0,0.0,0.0,0.0,0.0,0.0,0.0,0.0,0.0,0.0,0.0,1.9455,1.9476,2.2361,2.3776,2.3628,2.3865,2.3689,2.303,2.1704,2.0319,0.0,0.0,0.0,0.0,0.0,0.0,0.0,0.0,0.0,0.0,0.0,0.0,0.0,0.0,0.0,0.0,0.0,0.0,0.0,0.0,0.0,0.0,0.0,0.0,0.0,0.0,0.0,0.0,1.6416,1.5821,1.4648,0.0,0.0,0.0,0.0,0.0,0.0,0.0,0.0,0.0,0.0,1.667,1.8078,1.8449,0.0,0.0,1.9659,1.9202,1.9299,1.9936,1.9822,1.8152,1.8338,0.0,0.0,0.0,0.0,0.0,0.0,0.0,0.0,0.0,0.0,0.0,0.0,0.0,0.0,0.0,0.0,0.0,0.0,0.0,0.0,0.0,0.0,0.0,0.0,0.0,0.0,0.0,0.0,0.0,0.0,0.0,0.0,0.0,0.0,0.0,0.0,0.0,0.0,0.0,0.0,0.0,0.0,0.0,0.0,0.0,0.0,0.0,0.0,0.0,0.0,0.0,0.0,2.0034,1.989,2.2664,2.3973,2.3739,2.3963,2.3746,2.3005,2.2084,2.0962,0.0,0.0,0.0,0.0,0.0,0.0,0.0,0.0,0.0,0.0,0.0,0.0,0.0,0.0,0.0,0.0,0.0,0.0,0.0,0.0,0.0,0.0,0.0,0.0,0.0,0.0,0.0,0.0,1.7332,1.6592,1.52,0.0,0.0,0.0,0.0,0.0,0.0,0.0,0.0,0.0,0.0,1.763,1.8691,1.8966,1.9331,2.0087,1.9599,1.9205,1.9359,1.9546,1.9216,1.7996,0.0,0.0,0.0,0.0,0.0,0.0,0.0,0.0,0.0,0.0,0.0,0.0,0.0,0.0,0.0,0.0,0.0,0.0,0.0,0.0,0.0,0.0,0.0,0.0,0.0,0.0,0.0,0.0,0.0,0.0,0.0,0.0,0.0,0.0,0.0,0.0,0.0,0.0,0.0,0.0,0.0,0.0,0.0,0.0,0.0,0.0,0.0,0.0,0.0,0.0,0.0,0.0,0.0,0.0,2.0349,2.2947,2.4194,2.3992,2.4171,2.3865,2.3014,2.2403,2.178,2.1117,0.0,0.0,0.0,0.0,0.0,0.0,0.0,0.0,0.0,0.0,0.0,0.0,0.0,0.0,0.0,0.0,0.0,0.0,0.0,0.0,0.0,0.0,0.0,0.0,0.0,0.0,1.7515,1.6889,1.6365,0.0,0.0,0.0,0.0,0.0,0.0,0.0,0.0,0.0,0.0,1.7662,1.8863,1.8159,1.8221,1.8512,1.8799,1.7732,1.7433,1.916,1.9252,1.8903,0.0,0.0,0.0,0.0,0.0,0.0,0.0,0.0,0.0,0.0,0.0,0.0,0.0,0.0,0.0,0.0,0.0,0.0,0.0,0.0,0.0,0.0,0.0,0.0,0.0,0.0,0.0,0.0,0.0,0.0,0.0,0.0,0.0,0.0,0.0,0.0,0.0,0.0,0.0,0.0,2.5339,2.5421,0.0,0.0,0.0,0.0,0.0,0.0,0.0,0.0,0.0,0.0,0.0,0.0,2.1275,2.1338,2.3263,2.4203,2.3992,2.4058,2.3821,2.3225,2.2731,2.1955,2.0839,0.0,0.0,0.0,0.0,0.0,0.0,0.0,0.0,0.0,0.0,0.0,0.0,0.0,0.0,0.0,0.0,0.0,0.0,0.0,0.0,0.0,0.0,0.0,0.0,0.0,1.9229,0.0,0.0,0.0,0.0,0.0,0.0,0.0,0.0,0.0,0.0,0.0,1.4939,1.6375,1.7247,1.8005,1.8762,1.9002,1.9405,0.0,0.0,0.0,0.0,0.0,0.0,0.0,0.0,0.0,0.0,0.0,0.0,0.0,0.0,2.3624,2.265,2.2774,2.3111,2.339,0.0,0.0,0.0,0.0,0.0,0.0,0.0,0.0,0.0,0.0,0.0,0.0,0.0,0.0,0.0,0.0,2.4639,0.0,0.0,0.0,0.0,0.0,0.0,0.0,0.0,2.6054,2.6516,2.6793,2.6936,2.6762,0.0,2.5894,2.4741,0.0,0.0,0.0,0.0,0.0,0.0,0.0,0.0,2.2279,2.2023,2.3856,2.4625,2.4122,2.4109,2.3808,2.3225,2.2926,2.2253,2.1198,2.0659,1.997,0.0,0.0,0.0,0.0,0.0,0.0,0.0,0.0,0.0,0.0,0.0,0.0,0.0,0.0,0.0,0.0,0.0,0.0,0.0,0.0,0.0,0.0,0.0,1.9704,0.0,0.0,0.0,0.0,0.0,0.0,0.0,0.0,0.0,1.5913,1.5972,1.6714,1.8287,1.8435,1.8536,1.8898,0.0,0.0,0.0,0.0,0.0,0.0,0.0,1.8409,1.8446,1.922,2.0342,2.1976,2.3321,2.4274,2.4531,0.0,0.0,2.366,2.3639,2.3867,2.412,2.4661,2.5037,2.4862,2.5265,2.5515,0.0,0.0,0.0,0.0,0.0,0.0,0.0,0.0,2.5317,2.5527,0.0,0.0,0.0,0.0,0.0,0.0,0.0,0.0,0.0,0.0,2.7102,2.756,2.7576,2.742,2.7308,0.0,2.6687,2.6258,2.5878,2.3776,0.0,0.0,0.0,0.0,0.0,0.0,2.3812,2.2573,2.4705,2.5371,2.4417,2.4345,2.3934,2.3105,2.2998,2.2726,2.2266,2.2172,2.17,2.0801,1.9953,0.0,0.0,0.0,0.0,0.0,0.0,0.0,0.0,0.0,0.0,0.0,0.0,0.0,0.0,0.0,0.0,0.0,0.0,0.0,0.0,1.9992,0.0,0.0,0.0,0.0,0.0,0.0,0.0,0.0,0.0,0.0,1.9153,1.8831,1.9266,2.0918,0.0,0.0,0.0,0.0,1.8754,1.7341,1.7049,1.7228,1.7716,1.8207,1.8697,1.9161,0.0,0.0,2.4294,2.4487,2.4609,2.525,2.5526,2.5449,2.5073,2.4765,2.4592,2.4615,2.5196,2.5613,2.5715,2.6195,2.6547,2.7872,0.0,0.0,0.0,0.0,2.7382,2.7261,2.6794,2.6894,2.6951,2.6887,2.6374,0.0,0.0,0.0,0.0,0.0,0.0,2.6738,2.7725,2.8395,2.8898,2.921,2.939,2.9255,2.8837,2.8421,2.8186,2.8059,2.6974,2.5473,2.362,0.0,0.0,0.0,0.0,2.4575,2.5073,2.5495,2.5633,2.5503,2.5192,2.4752,2.4174,2.3979,2.37,2.3285,2.3257,2.2896,2.2161,2.1452,0.0,0.0,0.0,0.0,0.0,0.0,0.0,0.0,0.0,0.0,0.0,0.0,0.0,0.0,0.0,0.0,0.0,0.0,0.0,2.0759,2.0598,2.0293,0.0,0.0,0.0,0.0,0.0,0.0,0.0,0.0,0.0,2.2831,2.0958,1.9497,0.0,0.0,1.8633,1.8144,1.8445,1.8991,1.9723,0.0,0.0,0.0,2.0495,2.0895,2.1491,2.3458,2.5267,2.6225,2.6595,2.6777,2.6808,2.6994,2.7041,2.6723,2.6154,2.5811,2.5987,2.6337,2.6666,2.6846,2.7201,2.744,2.8605,2.8191,2.8453,2.8233,2.775,2.8119,2.8029,2.7657,2.7669,2.77,2.763,2.7185,2.6971,2.6897,2.6507,0.0,0.0,0.0,2.7996,2.9031,2.9446,2.9869,3.0251,3.0471,3.0364,3.0029,2.9797,2.9662,2.9555,2.8857,2.7553,0.0,0.0,0.0,2.4696,2.5572,2.6036,2.6064,2.6402,2.6345,2.5847,2.5409,2.4992,2.4626,2.4511,2.4243,2.3852,2.4209,2.3906,2.2869,2.2564,2.1794,0.0,0.0,0.0,0.0,0.0,0.0,0.0,0.0,0.0,0.0,0.0,1.9633,0.0,0.0,0.0,0.0,2.12,2.1369,2.1248,2.1017,0.0,0.0,0.0,0.0,0.0,0.0,0.0,2.1705,2.2654,2.3655,2.4586,2.3272,2.2047,2.1637,2.0969,2.0274,1.9596,0.0,2.0484,2.0795,2.0612,2.0551,2.0969,2.1575,2.2472,2.389,2.5315,2.6583,2.7251,2.7469,2.7462,2.7438,2.7523,2.7583,2.7438,2.7088,2.6872,2.7052,2.7294,2.7581,2.7959,2.8085,2.8209,2.9395,2.9169,2.9403,2.9266,2.8859,2.8859,2.8651,2.831,2.8008,2.7997,2.8205,2.7657,2.7529,2.7715,2.737,0.0,0.0,2.8356,2.9057,3.0022,3.0323,3.0591,3.0822,3.0833,3.082,3.0782,3.0795,3.0673,3.0448,2.9814,2.9238,2.8713,2.8109,2.7274,2.6363,2.7845,2.782,2.6169,2.7447,2.7355,2.5823,2.5422,2.5083,2.4829,2.4889,2.472,2.4272,2.5071,2.4857,2.338,2.3423,2.2811,2.1315,0.0,0.0,0.0,0.0,0.0,0.0,0.0,0.0,0.0,0.0,0.0,0.0,0.0,0.0,0.0,2.1942,0.0,2.1964,2.1476,0.0,0.0,0.0,2.1314,2.2366,2.2662,2.3168,2.4069,0.0,0.0,0.0,0.0,2.6035,2.6247,2.5279,2.3926,2.2269,2.272,2.2718,2.1235,2.0984,2.0971,2.1214,2.224,2.3923,2.6063,2.6512,2.6887,2.765,2.7535,2.7294,2.745,2.7487,2.7499,2.7475,2.7679,2.7848,2.7848,2.8017,2.8316,2.8755,2.8725,2.8825,3.0257,3.0379,3.0436,3.0014,2.934,2.934,2.9398,2.9459,2.9189,2.8978,2.8794,2.8444,2.8224,2.8098,2.8188,2.855,2.9132,2.9424,3.0028,3.0865,3.0982,3.1049,3.1106,3.1104,3.0986,3.0808,3.0795,3.0862,3.1012,3.1093,3.0966,3.0639,3.0527,2.9665,2.8111,2.8247,2.8476,2.8759,2.8585,2.809,2.731,2.7186,2.6902,2.6441,2.6842,2.6746,2.6087,2.6079,2.5926,2.55,2.4372,2.3606,2.3366,2.1274,0.0,0.0,0.0,0.0,0.0,0.0,0.0,0.0,0.0,2.0209,1.9964,0.0,2.1091,0.0,2.2126,2.2803,2.314,2.2886,0.0,0.0,2.2903,2.3137,2.391,2.487,2.5514,2.5589,2.6788,2.7592,2.7521,2.7962,2.8366,2.8505,2.6402,2.465,2.4223,2.4095,2.3914,2.3355,2.3596,2.3829,2.3426,2.481,2.6418,2.7842,2.8045,2.8153,2.8379,2.8319,2.8174,2.8065,2.8174,2.8222,2.8029,2.821,2.8379,2.8391,2.8307,2.8294,2.8643,2.8825,2.9104,3.066,3.0795,3.0795,3.0593,3.0247,3.0125,3.0165,3.0287,3.0152,2.9833,2.9373,2.8956,2.8789,2.8807,2.9058,2.9524,3.0085,3.0356,3.0824,3.141,3.1533,3.1531,3.1436,3.1545,3.1463,3.1219,3.1194,3.133,3.1586,3.1796,3.1825,3.1712,3.1622,3.1014,2.9936,2.9487,2.9491,2.9902,2.9168,2.8585,2.8178,2.8165,2.7974,2.7555,2.7704,2.75,2.6909,2.6835,2.6538,2.6016,2.5191,2.4388,2.367,2.1852,2.0539,0.0,0.0,0.0,0.0,0.0,0.0,0.0,0.0,0.0,0.0,0.0,2.2175,0.0,0.0,0.0,2.3698,2.3842,2.405,2.4301,2.4662,2.5197,2.601,2.6843,2.7513,2.7988,2.8616,2.9076,2.9266,2.9359,2.9442,2.9549,2.8242,2.702,2.6364,2.6135,2.5734,2.4674,2.5099,2.5574,2.5366,2.6331,2.7441,2.8356,2.8488,2.8427,2.8415,2.8319,2.8186,2.8077,2.8234,2.8379,2.8246,2.8618,2.8969,2.9115,2.9209,2.9304,2.9464,2.9407,2.9554,3.0887,3.0902,3.0914,3.1049,3.1251,3.1009,3.0889,3.0849,3.082,3.0501,2.9971,2.9453,2.9395,2.9671,2.9913,3.0327,3.0862,3.1131,3.1436,3.1754,3.1996,3.2008,3.1821,3.1998,3.1996,3.1819,3.1831,3.1953,3.217,3.221,3.2248,3.2333,3.2082,3.1832,3.1597,3.1082,3.0638,3.0248,2.9493,2.8979,2.8712,2.8714,2.8575,2.8311,2.8096,2.7801,2.7366,2.7437,2.6993,2.5949,2.5897,2.5159,2.3572,2.2423,2.1511,0.0,2.0447,0.0,0.0,0.0,0.0,0.0,0.0,0.0,0.0,2.3314,2.3714,2.4276,2.4913,2.5017,2.4355,2.4885,2.5447,2.584,2.6503,2.7302,2.8193,2.8622,2.9289,3.0475,3.0066,2.9948,3.0479,3.0243,2.994,2.9876,2.9908,2.942,2.8441,2.8139,2.7489,2.5631,2.5893,2.6484,2.7038,2.7284,2.7634,2.8404,2.8439,2.8246,2.8294,2.8101,2.7933,2.7957,2.822,2.8401,2.8365,2.8988,2.9509,2.9672,3.0013,3.0366,3.049,3.0213,3.0277,3.1301,3.1527,3.1527,3.1565,3.1619,3.1565,3.137,3.1117,3.0889,3.0728,3.0633,3.0515,3.0499,3.0553,3.062,3.0822,3.1132,3.145,3.1756,3.2036,3.2078,3.221,3.2395,3.2209,3.2222,3.242,3.242,3.246,3.2502,3.273,3.295,3.3173,3.2959,3.2827,0.0,0.0,0.0,0.0,2.9942,2.9532,2.9261,2.9249,2.9132,2.8875,2.9017,0.0,2.8642,2.826,2.7852,2.7388,2.6447,0.0,0.0,0.0,0.0,0.0,0.0,0.0,0.0,0.0,0.0,0.0,2.4561,2.4338,2.416,2.4549,2.5181,2.6013,2.624,2.6493,2.6923,2.7084,2.7374,2.787,2.8384,2.8887,2.937,3.0151,3.0826,3.1099,3.1182,3.1222,3.1171,3.0952,3.0584,3.0168,3.0165,2.9992,2.9505,2.9079,2.8456,2.7539,2.7105,2.7277,2.8163,2.8272,2.8296,2.8572,2.8572,2.8512,2.8512,2.8476,2.8439,2.8439,2.8846,2.9121,2.9145,2.9601,2.9843,2.9546,2.9769,3.0138,3.0768,3.0675,3.0764,3.1995,0.0,3.214,3.206,0.0,0.0,3.1717,3.1436,3.1301,3.1142,3.0984,3.0873,3.0862,3.0997,3.0997,3.1238,3.1652,3.1822,3.2062,3.2342,3.2477,3.2568,3.2594,3.2556,3.2568,3.2594,3.2594,3.2687,3.2797,3.3079,3.3348,3.3642,3.3558,3.3512,3.3471,3.2757,3.1876,3.0818,3.0521,3.0214,2.9819,2.9795,2.9723,2.9605,0.0,0.0,0.0,0.0,0.0,0.0,0.0,0.0,0.0,0.0,0.0,2.4814,2.4922,2.5068,2.5276,2.5504,2.5899,2.6524,2.6878,2.6726,2.5897,2.6586,2.7189,2.7459,2.7577,2.7695,2.7881,2.8347,2.8753,2.9036,2.9625,3.0111,3.0439,3.1027,3.1517,3.1642,3.1614,3.1507,3.1412,3.0913,3.0531,3.024,3.008,2.996,2.9815,2.9578,2.9147,2.8521,2.7725,2.7567,2.8368,2.8596,2.8596,2.8596,2.8596,2.8596,2.8596,2.8596,2.8596,2.8608,2.8836,2.9016,2.9052,2.9411,2.9822,3.0158,3.0504,3.1088,3.1891,3.1549,3.1263,3.2594,3.2594,3.2594,3.2448,3.2209,3.2171,3.2062,3.186,0.0,0.0,0.0,3.1129,3.1183,3.145,3.1451,3.1705,3.2171,3.2238,3.2409,3.2662,3.2903,3.2916,3.2742,3.2917,3.2904,3.2742,3.2741,3.2877,3.3158,3.34,3.3669,3.4004,3.4031,3.402,3.3928,3.3159,3.2241,3.1252,3.1087,3.0732,3.0225,3.0214,3.0214,3.0214,2.9695,2.9392,2.938,2.8886,2.8355,2.7836,2.7627,2.703,2.5996,2.618,2.61,2.559,2.5952,2.6348,2.6679,2.7055,2.7557,2.8231,2.8825,2.8745,2.776,2.853,2.899,2.8776,2.8922,2.889,2.8619,2.9302,2.9841,2.9882,3.0462,3.0972,3.1308,3.1597,3.1889,3.2129,3.176,3.1437,3.1451,3.0749,3.0214,3.0165,2.9972,2.9743,2.9695,2.961,2.9391,2.886,2.8145,2.788,2.8416,2.8596,2.8596,2.8596,2.8596,2.8596,2.8596,2.8596,2.8596,2.8596,2.8704,2.8908,2.892,2.9495,3.0066,3.09,3.1444,3.2055,3.2837,3.2365,3.1914,3.2594,3.2594,3.2594,3.2579,3.2515,3.2527,3.2514,3.2433,3.1926,3.1808,3.1983,3.1919,3.2102,3.2395,3.2407,3.246,3.2554,3.277,3.2892,0.0,3.2984,3.3105,3.3267,3.3092,3.3093,3.328,3.3293,3.3466,3.3747,3.3801,3.4082,3.4537,3.458,3.4478,3.4215,3.3657,3.2923,3.2033,3.1342,3.0745,3.0213,3.0214,3.0214,3.0177,2.967,2.9392,2.938,2.8898,2.8343,2.7836,2.7928,2.7717,2.7129,2.7671,2.8006,2.7945,2.8304,2.8554,2.8597,2.8673,2.8882,2.9262,2.9586,2.9606,2.9249,2.9326,2.9622,3.0044,3.0103,3.0239,3.0398,3.0514,3.0683,3.0896,3.1072,3.1359,3.1865,3.1998,3.2262,3.2746,3.1993,3.1514,3.1654,3.0873,3.0264,3.019,2.9997,2.9646,2.9284,2.9115,2.897,2.8729,2.8548,2.8488,2.856,2.8596,2.8596,2.8596,2.862,2.8668,2.8656,2.8668,2.868,2.8632,2.9244,2.9722,2.9829,3.0713,3.1122,3.1303,3.1548,3.1944,3.2458,3.2441,3.2609,3.3038,3.3038,3.3025,3.2944,3.2809,3.2661,3.2594,3.2567,3.2313,3.2235,3.2368,3.2369,3.2448,3.2581,3.2594,3.2674,3.2823,3.2944,3.3079,3.3213,3.3201,3.328,3.3387,3.328,3.328,3.3401,3.3587,3.376,3.3907,3.4215,3.4576,3.4964,3.5298,3.5165,3.4594,3.4327,3.3696,3.2712,3.1849,3.1102,3.043,3.0273,3.0214,3.0188,2.9944,2.9824,2.9824,2.9564,2.9225,2.884,2.8776,2.8576,2.8209,2.8603,2.8835,2.8859,2.9258,2.9479,2.949,2.949,2.9568,2.9724,3.0005,3.0123,3.0003,2.9987,3.0096,3.0375,3.0524,3.066,3.0793,3.093,3.1089,3.1186,3.137,3.1637,3.2036,3.2289,3.2543,3.2869,3.2449,3.2093,3.2234,3.1302,3.0644,3.0582,3.0198,2.9598,2.9103,2.9006,2.8922,2.8644,2.8596,2.8596,2.8596,2.8596,2.8596,2.8596,2.886,2.9016,2.904,2.904,2.9136,2.9339,2.9651,2.9818,3.0045,3.0627,3.1122,3.1613,3.1791,3.2138,3.2662,3.2971,3.3112,3.3481,3.3601,3.3547,3.3387,3.3185,3.2903,3.2782,3.2795,3.2795,3.2795,3.2781,3.2716,3.2728,3.2782,3.2795,3.2891,3.3079,3.3171,3.3279,3.34,3.348,3.3521,3.3495,3.3441,3.3455,3.3614,3.3801,3.3974,3.4161,3.4642,3.5057,3.5418,3.5872,3.5763,3.5095,3.5029,3.4475,3.3493,3.2615,3.1797,3.101,3.0703,3.0581,3.0557,3.0441,3.0366,3.0365,3.0204,2.9977,2.9733,2.9622,2.9449,2.9202,2.9428,2.9532,2.9514,2.9804,3.0009,3.0009,3.0062,3.0102,3.0102,3.035,3.0484,3.0495,3.0562,3.0589,3.0604,3.0791,3.0927,3.1034,3.1183,3.1306,3.1319,3.1597,3.1901,3.2183,3.2489,3.2782,3.3002,3.2806,3.2561,3.2297,3.1605,3.0924,3.0598,3.0275,2.9772,2.9176,2.9165,2.9237,2.8897,2.8788,2.88,2.8788,2.8932,2.898,2.8956,2.9268,2.9507,2.9555,2.9555,2.9663,2.9937,2.9914,3.0023,3.0337,3.0743,3.1292,3.1935,3.2271,3.2594,3.317,3.3324,3.3389,3.3734,3.4136,3.3961,3.3841,3.3774,3.348,3.332,3.3334,3.3334,3.3321,3.3307,3.3053,3.3093,3.3307,3.332,3.3334,3.34,3.368,3.3642,3.3468,3.3708,3.3841,3.3827,3.3548,3.3682,3.4122,3.4015,3.4214,3.4682,3.503,3.5458,3.5952,3.6086,3.6072,3.5938,3.5671,3.5218,3.4645,3.3785,3.2956,3.2188,3.1807,3.1668,3.1643,3.1173,3.0931,3.0931,3.0397,2.9989,2.977,3.0155,3.0257,3.0064,3.0404,3.0549,3.0307,3.035,3.0348,3.0375,3.0566,3.0688,3.0726,3.0726,3.0767,3.0768,3.0996,3.1131,3.1131,3.1144,3.1289,3.1567,3.162,3.1634,3.166,3.1876,3.2197,3.2502,3.2796,3.3065,3.3334,3.2936,3.2448,3.2084,3.1517,3.0799,3.0249,3.0401,3.0181,2.9469,2.9773,3.0025,2.9511,2.9328,2.9328,2.9351,2.9698,2.977,2.9877,2.9973,3.0032,3.0057,3.0044,3.008,3.0224,3.0462,3.0719,3.107,3.1588,3.2111,3.2525,3.2811,3.3005,3.3295,3.3389,3.3389,3.454,3.4706,3.4304,3.4122,3.4096,3.3814,3.3788,3.3922,3.3761,3.3775,3.3909,3.3814,3.376,3.3681,3.3481,3.3588,3.3909,3.3695,3.3748,3.3909,3.3921,3.3988,3.4108,3.4002,3.407,3.4309,3.4388,3.4655,3.507,3.5672,3.6099,3.634,3.6487,3.65,3.6326,3.6046,3.5671,3.5244,3.4437,3.3805,3.3404,3.2378,3.1807,3.1806,3.1749,3.1716,3.1689,3.1414,3.123,3.1135,3.1011,3.0865,3.0758,3.0796,3.0753,3.0633,3.0644,3.0631,3.0644,3.074,3.0795,3.0795,3.0944,3.1037,3.1064,3.1465,3.1677,3.1517,3.1502,3.1567,3.1699,3.1712,3.1742,3.1915,3.205,3.2304,3.2784,3.2943,3.3105,3.3348,3.3213,3.3013,3.2737,3.2285,3.1567,3.0775,3.0737,3.0615,3.0242,3.0326,3.0187,2.9967,3.0057,3.0117,2.9925,2.9949,3.0104,3.0163,3.0366,3.0558,3.0582,3.0558,3.057,3.057,3.0774,3.101,3.1208,3.1915,3.2542,3.2931,3.3172,3.328,3.3362,3.3389,3.3389,3.5199,3.5232,3.4701,3.443,3.4416,3.4135,3.4109,3.4256,3.4095,3.4109,3.4296,3.4309,3.4243,3.4095,3.3801,3.3896,3.4216,3.3948,3.3962,3.4283,3.4201,3.4242,3.4416,3.4323,3.4377,3.4563,3.4789,3.5124,3.5565,3.6153,3.654,3.6633,3.6806,3.682,3.6579,3.6286,3.5979,3.5672,3.4883,3.4402,3.414,3.3041,3.2337,3.2259,3.235,3.2429,3.2403,3.2297,3.2249,3.2223,3.173,3.1451,3.1438,3.1196,3.1007,3.0915,3.0904,3.089,3.0904,3.0982,3.1036,3.1061,3.1236,3.1319,3.1425,3.181,3.1984,3.1849,3.1886,3.1925,3.1712,3.1779,3.1903,3.2078,3.2237,3.2544,3.2931,3.3051,3.3187,3.3361,3.3364,3.3326,3.3138,3.2636,3.1945,3.1378,3.134,3.124,3.1108,3.0893,3.0813,3.0434,3.0772,3.0856,3.045,3.0533,3.0497,3.0593,3.0927,3.1118,3.1095,3.1035,3.0892,3.0761,3.0921,3.1163,3.1512,3.2139,3.2782,3.3051,3.3253,3.3388,3.3389,3.3389,3.3389,3.5433,3.5818,3.5092,3.4789,3.4762,3.4429,3.4283,3.4376,3.4309,3.4309,3.4375,3.4362,3.4495,3.4787,3.4518,3.4295,3.4363,3.4562,3.4522,3.4389,3.4602,3.4749,3.4749,3.4456,3.4629,3.5124,3.5256,3.5671,3.6407,3.6473,3.6633,3.6873,3.69,3.69,3.6779,3.6353,3.6099,3.5966,3.5177,3.4603,3.4309,3.3952,3.3556,3.3277,3.3084,3.2938,3.2922,3.2704,3.2581,3.2581,3.2198,3.2026,3.2024,3.1769,3.1488,3.1224,3.1186,3.1186,3.1213,3.1436,3.1632,3.1647,3.1659,3.1674,3.1715,3.2009,3.2157,3.2078,3.2354,3.2314,3.1886,3.1981,3.2116,3.2185,3.2612,3.2905,3.2999,3.3239,3.3361,3.3375,3.3389,3.3213,3.2737,3.2184,3.2008,3.1907,3.2184,3.2191,3.1504,3.1851,3.181,3.1308,3.1277,3.1463,3.1035,3.1082,3.1402,3.1438,3.1355,3.1606,3.1475,3.1321,3.1095,3.1005,3.1222,3.148,3.1831,3.2329,3.2927,3.324,3.3308,3.3389,3.3389,3.3389,3.3389,3.6454,3.594,3.532,3.5057,3.5004,3.4697,3.4657,3.4844,3.4683,3.4905,3.5326,3.5392,3.5669,3.6143,3.6033,3.5561,3.4909,3.4603,3.4603,3.483,3.4829,3.499,3.5271,3.5178,3.5351,3.5779,3.614,3.6545,3.6992,3.6866,3.6806,3.6873,3.6899,3.6899,3.6806,3.638,3.6099,3.6006,3.5244,3.4736,3.4576,3.4148,3.3841,3.3708,3.3426,3.3253,3.3266,3.2998,3.285,3.2863,3.237,3.2104,3.2078,3.1836,3.1635,3.1542,3.154,3.1528,3.1542,3.162,3.1781,3.1929,3.1944,3.206,3.2286,3.2515,3.261,3.2516,3.2677,3.2637,3.2408,3.2368,3.2489,3.2664,3.2877,3.3079,3.3227,3.3334,3.3389,3.3389,3.3389,3.3201,3.2812,3.2712,3.2687,3.2398,3.2498,3.2466,3.2353,3.2383,3.2236,3.2064,3.1944,3.1884,3.1753,3.1628,3.1701,3.1689,3.1689,3.1665,3.1595,3.1552,3.14,3.1274,3.1467,3.1837,3.2215,3.2679,3.323,3.3308,3.3389,3.3389,3.3389,3.3389,3.3389,3.6899,3.598,3.5415,3.5191,3.5151,3.4951,3.5082,3.5414,3.5386,3.5688,3.6244,3.6489,3.6754,3.7014,3.715,3.6796,3.6027,3.5527,3.5541,3.6001,3.5865,3.5974,3.6246,3.6327,3.6422,3.6653,3.691,3.7237,3.7442,3.7109,3.6913,3.6899,3.6899,3.6899,3.6833,3.6433,3.6193,3.5966,3.5404,3.499,3.4762,3.4282,3.3988,3.3867,3.3574,3.3389,3.3389,3.3226,3.3079,3.2945,3.253,3.2182,3.1971,3.1808,3.1712,3.1712,3.1712,3.1753,3.1821,3.1834,3.1968,3.2235,3.2276,3.2381,3.2594,3.2849,3.2877,3.2836,3.2983,3.3025,3.2905,3.285,3.2891,3.3011,3.3078,3.3187,3.3349,3.3375,3.3389,3.3389,3.3389,3.3213,3.2975,3.3188,3.3163,3.29,3.285,3.2931,3.2904,3.2726,3.246,3.255,3.2372,3.2289,3.215,3.2026,3.1808,3.1754,3.1848,3.1809,3.18,3.1792,3.1743,3.1628,3.1804,3.2199,3.2612,3.3066,3.326,3.3363,3.3389,3.3389,3.3389,3.3389,3.3402,3.6584,3.6059,3.5428,3.531,3.5336,3.5349,3.556,3.6024,3.6348,3.6664,3.7069,3.7529,3.7625,3.7511,3.7785,3.7794,3.7725,3.7431,3.7338,3.7523,3.7577,3.7591,3.7662,3.7541,3.7596,3.7706,3.7536,3.7606,3.7894,3.7328,3.6982,3.6941,3.6927,3.6899,3.6899,3.6606,3.6353,3.6086,3.5698,3.5311,3.4829,3.4482,3.4189,3.3921,3.3614,3.3428,3.3401,3.3374,3.3254,3.3038,3.2741,3.2313,3.1833,3.1712,3.1712,3.1739,3.1726,3.1836,3.2064,3.213,3.2262,3.2541,3.2594,3.2621,3.2729,3.2904,3.3038,3.3051,3.32,3.3335,3.3334,3.3321,3.3266,3.3066,3.3213,3.3361,3.3375,3.3389,3.3389,3.3389,3.3389,3.3389,3.3376,3.3364,3.3339,3.3314,3.3288,3.3246,3.3094,3.2979,3.2892,3.2729,3.2622,3.2582,3.2475,3.2341,3.2048,3.1836,3.1969,3.2024,3.2083,3.2076,3.2089,3.2031,3.2268,3.2641,3.2921,3.3299,3.3324,3.3389,3.3389,3.3389,3.3389,3.3389,3.3442,3.733,3.7121,3.6584,3.6275,3.6162,3.648,3.6669,3.6742,3.7187,3.768,3.8132,3.8327,3.8556,3.8793,3.8919,3.9077,3.9292,3.9178,3.8702,3.7972,3.7836,3.7989,3.8063,3.7739,3.785,3.833,3.8346,3.8554,3.8747,3.8004,3.7508,3.7452,3.7093,3.6913,3.6886,3.6633,3.6366,3.6086,3.5765,3.5418,3.507,3.4802,3.4482,3.4176,3.3907,3.3641,3.3415,3.3389,3.336,3.3253,3.2849,3.2326,3.1846,3.1712,3.1794,3.1956,3.1983,3.2115,3.2395,3.2436,3.2556,3.2809,3.2864,3.2971,3.3106,3.32,3.3279,3.3254,3.3348,3.3389,3.3389,3.3389,3.3348,3.3293,3.3348,3.3389,3.3389,3.3389,3.3389,3.3389,3.3389,3.3389,3.3389,3.3389,3.3389,3.3389,3.3389,3.3334,3.3281,3.3228,3.3267,3.3159,3.3038,3.2876,3.2784,3.2675,3.2448,3.2262,3.229,3.233,3.2363,3.2449,3.2447,3.2531,3.2783,3.2991,3.3273,3.3389,3.3389,3.3389,3.3389,3.3389,3.3389,3.3402,3.3442,3.7923,3.7672,3.7374,3.7079,3.6857,3.73,3.7547,3.769,3.8097,3.8553,3.8978,3.9262,3.9479,3.969,3.9816,3.9991,4.0181,4.0181,3.97,3.8891,3.8809,3.8923,3.908,3.8754,3.8882,3.9315,3.9068,3.904,3.9371,3.8474,3.7824,3.7452,3.73,3.7107,3.6927,3.674,3.6527,3.6246,3.5952,3.5645,3.5338,3.499,3.4683,3.4469,3.4108,3.3801,3.3601,3.348,3.336,3.32,3.2823,3.2395,3.206,3.2047,3.2102,3.2235,3.2291,3.2423,3.2714,3.273,3.285,3.308,3.3146,3.3201,3.3361,3.3389,3.3389,3.3389,3.3389,3.3389,3.3389,3.3389,3.3389,3.3389,3.3375,3.3389,3.3389,3.3389,3.3389,3.3389,3.3389,3.3389,3.3389,3.3389,3.3389,3.3389,3.3389,3.3389,3.3389,3.3375,3.3388,3.3374,3.3253,3.3159,3.3132,3.2998,3.2835,3.2742,3.269,3.269,3.2692,3.2855,3.2928,3.2982,3.3169,3.3157,3.3389,3.3389,3.3389,3.3389,3.3389,3.3389,3.3389,3.3389,3.3415,3.8376,3.7826,3.7877,3.7747,3.7527,3.7859,3.8296,3.8716,3.9053,3.9335,3.9652,4.01,4.0243,4.0138,4.027,4.0415,4.0489,4.0459,4.0417,4.0293,4.0265,4.0225,4.0075,3.998,4.0098,4.0304,3.9613,3.928,3.9348,3.8695,3.7917,3.7452,3.7646,3.7535,3.7107,3.6941,3.6753,3.646,3.6233,3.5939,3.5591,3.515,3.4829,3.4775,3.4294,3.3988,3.3894,3.3641,3.332,3.3012,3.2795,3.2621,3.2581,3.2594,3.2554,3.2594,3.2621,3.2743,3.2944,3.3012,3.3119,3.332,3.3335,3.3389,3.3375,3.3389,3.3389,3.3389,3.3389,3.3389,3.3389,3.3389,3.3389,3.3389,3.3389,3.3389,3.3389,3.3389,3.3389,3.3389,3.3389,3.3389,3.3389,3.3389,3.3389,3.3389,3.3389,3.3389,3.3389,3.3389,3.3389,3.3374,3.3347,3.3334,3.3253,3.32,3.3064,3.3052,3.3012,3.2985,3.2998,3.3146,3.3253,3.3321,3.3361,3.3388,3.3389,3.3389,3.3389,3.3389,3.3389,3.3389,3.3389,3.3389,3.3481,3.9194,3.9036,3.905,3.8873,3.872,3.9199,3.9384,3.945,3.9918,4.0093,4.027,4.0415,4.0445,4.0386,4.0445,4.0489,4.0489,4.0489,4.0489,4.0489,4.0489,4.0215,3.9914,3.9846,3.9812,3.9738,3.9837,3.978,3.9738,3.9224,3.8876,3.8872,3.8101,3.7756,3.7535,3.7121,3.6767,3.654,3.6446,3.6126,3.5685,3.5485,3.519,3.4802,3.4642,3.4415,3.4215,3.3921,3.352,3.3039,3.2944,3.2796,3.2661,3.2634,3.2716,3.2876,3.2916,3.2999,3.3213,3.328,3.3321,3.3374,3.3389,3.3389,3.3389,3.3389,3.3389,3.3389,3.3389,3.3389,3.3389,3.3415,3.3415,3.3389,3.3428,3.3415,3.3389,3.3389,3.3389,3.3389,3.3389,3.3389,3.3389,3.3389,3.3389,3.3389,3.3389,3.3389,3.3389,3.3389,3.3389,3.3389,3.3374,3.3375,3.3374,3.3334,3.3294,3.3308,3.3294,3.3254,3.3253,3.3294,3.3348,3.3375,3.3388,3.3389,3.3389,3.3389,3.3389,3.3389,3.3389,3.3389,3.3389,3.3389,3.3561,3.9758,3.9538,3.9802,3.9746,3.9561,3.9989,4.011,4.005,4.0325,4.0489,4.0489,4.0489,4.0489,4.0489,4.0489,4.0489,4.0489,4.0489,4.0489,4.0478,4.0361,4.0268,4.0185,4.0171,4.0209,4.0289,4.0346,4.0388,4.0374,4.0052,3.9783,3.9319,3.8737,3.8197,3.7742,3.7217,3.6833,3.6673,3.6566,3.6313,3.5992,3.5712,3.5471,3.5124,3.4963,3.4642,3.4323,3.4136,3.3788,3.3307,3.3171,3.3104,3.297,3.2931,3.2999,3.3172,3.3172,3.3228,3.3348,3.3389,3.3389,3.3389,3.3389,3.3389,3.3389,3.3389,3.3389,3.3389,3.3389,3.3389,3.344,3.3521,3.3601,3.3627,3.3627,3.3561,3.344,3.3389,3.3389,3.3389,3.3389,3.3389,3.3389,3.3389,3.3389,3.3389,3.3389,3.3389,3.3389,3.3389,3.3389,3.3389,3.3389,3.3389,3.3389,3.3361,3.3348,3.3375,3.3389,3.3389,3.3389,3.3389,3.3389,3.3389,3.3389,3.3389,3.3389,3.3389,3.3389,3.3389,3.3389,3.3415,3.3415,3.3468,3.3615,4.0138,3.9657,4.0241,4.0328,4.0097,4.0372,4.0447,4.0475,4.049,4.0489,4.0489,4.0489,4.0489,4.0489,4.0489,4.0489,4.0489,4.0489,4.0547,4.0541,4.0496,4.0574,4.1008,4.0782,4.0988,4.1282,4.113,4.0945,4.0803,4.0832,4.0391,3.9783,3.9433,3.8806,3.8142,3.7424,3.7038,3.6971,3.6728,3.6636,3.6462,3.606,3.5658,3.5471,3.5097,3.4736,3.447,3.4323,3.4082,3.348,3.3442,3.3415,3.34,3.3374,3.3374,3.3361,3.3348,3.3362,3.3402,3.3441,3.3468,3.3494,3.3481,3.3441,3.3468,3.3455,3.3428,3.3495,3.3455,3.3521,3.3601,3.3788,3.3908,3.3921,3.3947,3.38,3.3547,3.3415,3.3389,3.3389,3.3389,3.3389,3.3389,3.3389,3.3389,3.3389,3.3389,3.3389,3.3389,3.3389,3.3389,3.3389,3.3389,3.3389,3.3389,3.3375,3.3375,3.3389,3.3389,3.3389,3.3389,3.3389,3.3389,3.3389,3.3389,3.3389,3.3389,3.3389,3.3389,3.3389,3.3389,3.3428,3.348,3.3574,3.3694,4.0415,4.0298,4.0445,4.0459,4.0415,4.0474,4.0489,4.0489,4.0489,4.0489,4.0489,4.0489,4.0489,4.0489,4.0489,4.0489,4.0503,4.0533,4.062,4.0886,4.1081,4.1331,4.1489,4.112,4.0954,4.1087,4.0619,4.059,4.086,4.0761,4.0562,4.0823,4.0103,3.9557,3.8834,3.7962,3.759,3.7508,3.7081,3.6947,3.6992,3.6409,3.5872,3.5645,3.5284,3.5003,3.4762,3.4696,3.4401,3.3961,3.3787,3.3694,3.3455,3.3389,3.3389,3.3389,3.3415,3.3415,3.3429,3.3641,3.38,3.3774,3.3774,3.3774,3.3774,3.3561,3.3561,3.3695,3.38,3.3868,3.4016,3.4149,3.4216,3.4216,3.4202,3.4122,3.3828,3.3561,3.3441,3.3401,3.3389,3.3389,3.3389,3.3389,3.3389,3.3389,3.3389,3.3389,3.3389,3.3389,3.3389,3.3389,3.3389,3.3389,3.3389,3.3389,3.3389,3.3389,3.3389,3.3389,3.3389,3.3389,3.3389,3.3389,3.3389,3.3389,3.3389,3.3401,3.3401,3.3401,3.3429,3.3575,3.3681,3.3721,3.3881,4.0489,4.0489,4.0489,4.0489,4.0489,4.0489,4.0489,4.0489,4.0489,4.0489,4.0489,4.0489,4.0489,4.0489,4.0489,4.0489,4.0547,4.0679,4.0986,4.1353,4.156,4.1807,4.2027,4.1727,4.1529,4.1588,4.1388,4.1417,4.1488,4.1345,4.1415,4.152,4.0779,3.9908,3.9182,3.8322,3.7839,3.7659,3.7231,3.7109,3.7373,3.676,3.6153,3.5845,3.5551,3.5311,3.5204,3.5043,3.4749,3.4402,3.4175,3.3868,3.3481,3.3389,3.3389,3.3415,3.3574,3.3627,3.3708,3.3895,3.4094,3.4095,3.4082,3.4002,3.3961,3.3802,3.3815,3.3908,3.4014,3.4162,3.4296,3.447,3.4509,3.4536,3.4523,3.4469,3.4294,3.3921,3.3561,3.3467,3.3389,3.3389,3.3389,3.3442,3.3415,3.344,3.3389,3.3389,3.3389,3.3389,3.3389,3.3389,3.3389,3.3389,3.3389,3.3389,3.3389,3.3389,3.3389,3.3389,3.3389,3.3389,3.3389,3.3389,3.3402,3.3389,3.3389,3.3401,3.3521,3.3627,3.3734,3.3841,3.3948,3.4056,3.4242,4.0489,4.0489,4.0489,4.0518,4.0576,4.0576,4.0635,4.0651,4.0591,4.0634,4.0576,4.0576,4.062,4.0591,4.0591,4.0576,4.0679,4.1029,4.144,4.1749,4.1938,4.2113,4.2275,4.2261,4.2233,4.2392,4.2062,4.2134,4.2234,4.2291,4.1902,4.1811,4.1166,4.0373,3.9447,3.8598,3.8225,3.8183,3.7701,3.7632,3.7936,3.7346,3.6748,3.6275,3.6047,3.5738,3.5565,3.5351,3.5097,3.4829,3.4523,3.4108,3.3695,3.3415,3.3389,3.3427,3.3681,3.3827,3.3908,3.4162,3.4389,3.4389,3.4376,3.4295,3.4175,3.4162,3.4162,3.4215,3.4322,3.4483,3.447,3.467,3.4843,3.4856,3.4856,3.4856,3.4722,3.4335,3.3988,3.3681,3.3695,3.3709,3.3642,3.3628,3.3547,3.348,3.3428,3.3389,3.3389,3.3389,3.3389,3.3389,3.3389,3.3389,3.3389,3.3389,3.3389,3.3389,3.3389,3.3389,3.3389,3.3389,3.3389,3.3415,3.3441,3.3468,3.3549,3.3669,3.3788,3.3908,3.4015,3.4122,3.4256,3.4403,3.4656,4.0489,4.0489,4.0489,4.0663,4.0898,4.0898,4.1045,4.1207,4.1015,4.0927,4.094,4.0927,4.0898,4.0898,4.0912,4.0912,4.106,4.1439,4.1777,4.1968,4.2157,4.2348,4.2377,4.2392,4.2406,4.2249,4.2048,4.202,4.2192,4.1948,4.2033,4.2073,4.1578,4.0865,4.0245,3.968,3.9119,3.8968,3.8514,3.8527,3.8774,3.8304,3.7523,3.6924,3.6666,3.6288,3.5738,3.5551,3.5298,3.4869,3.4749,3.4509,3.4135,3.3708,3.3495,3.3535,3.3801,3.4014,3.4054,3.4428,3.4669,3.4722,3.4722,3.4709,3.4589,3.4456,3.4482,3.4656,3.4843,3.503,3.5044,3.5124,3.5137,3.515,3.5124,3.5057,3.4869,3.4695,3.4495,3.4202,3.4162,3.4082,3.3949,3.3828,3.3734,3.3613,3.3494,3.3428,3.3389,3.3389,3.3389,3.3389,3.3389,3.3389,3.3389,3.3389,3.3389,3.3389,3.3389,3.3389,3.3389,3.3389,3.3402,3.3508,3.3641,3.3734,3.3841,3.3922,3.4082,3.4215,3.4322,3.4429,3.4697,3.4977,3.5271,4.065,4.0534,4.0841,4.0959,4.1016,4.1148,4.1448,4.1789,4.1419,4.1313,4.1379,4.1285,4.1119,4.1074,4.1177,4.1294,4.1528,4.1733,4.1996,4.2172,4.2318,4.2392,4.2406,4.2406,4.2523,4.2495,4.2222,4.2091,4.2349,4.2163,4.212,4.2131,4.172,4.1119,4.0555,3.99,3.9683,3.9489,3.9105,3.9022,3.9503,3.8894,3.8166,3.7606,3.7223,3.6789,3.6194,3.5685,3.5498,3.5217,3.4963,3.4736,3.4495,3.4189,3.3869,3.3935,3.4136,3.4322,3.4415,3.4776,3.4977,3.5003,3.499,3.4923,3.4856,3.4789,3.4843,3.5017,3.5244,3.5404,3.5391,3.5525,3.5645,3.5618,3.5525,3.5364,3.5231,3.5097,3.4923,3.471,3.447,3.4296,3.4202,3.4082,3.3947,3.3787,3.3601,3.3508,3.3442,3.3389,3.3401,3.3441,3.3441,3.3441,3.3428,3.3402,3.3389,3.3389,3.3442,3.3442,3.3455,3.3495,3.3587,3.3694,3.3827,3.4054,3.4001,3.4055,3.4282,3.4563,3.4736,3.495,3.5271,3.5565,3.5805,4.1063,4.0786,4.1221,4.131,4.1249,4.1538,4.1935,4.2271,4.2061,4.2008,4.2088,4.1907,4.1673,4.1461,4.1468,4.1617,4.1836,4.185,4.207,4.2318,4.2406,4.2406,4.2508,4.2667,4.2828,4.2947,4.3004,4.2653,4.2538,4.2393,4.2378,4.2246,4.1778,4.1275,4.0765,4.0305,3.9935,3.9654,3.9379,3.9352,3.953,3.9311,3.8637,3.8004,3.7716,3.7292,3.6381,3.6059,3.5818,3.5578,3.5297,3.5016,3.5003,3.4683,3.455,3.4643,3.4724,3.4736,3.483,3.5017,3.5151,3.5151,3.5244,3.5151,3.5137,3.5244,3.5391,3.5418,3.5551,3.5712,3.5752,3.5912,3.6046,3.6006,3.5832,3.5685,3.5645,3.5525,3.5378,3.5111,3.4764,3.4617,3.459,3.4416,3.4308,3.4121,3.3947,3.3788,3.3708,3.3455,3.3428,3.3494,3.3521,3.3507,3.3468,3.3441,3.3402,3.3389,3.3521,3.3615,3.3615,3.3628,3.3774,3.3975,3.4282,3.4455,3.4308,3.4336,3.475,3.507,3.5231,3.5485,3.5805,3.5992,3.6166,4.1955,4.1632,4.1462,4.1558,4.1847,4.2358,4.2655,4.281,4.319,4.3259,4.3053,4.2974,4.2778,4.2466,4.199,4.1719,4.1661,4.185,4.2114,4.2362,4.2507,4.2697,4.2917,4.3422,4.347,4.3532,4.3794,4.353,4.299,4.2611,4.245,4.2348,4.2041,4.1663,4.126,4.0811,4.07,4.0425,4.0285,4.0256,4.0311,4.0215,3.9456,3.8632,3.8277,3.7729,3.6517,3.6233,3.6219,3.5992,3.5685,3.5658,3.5778,3.5404,3.5458,3.5484,3.5297,3.4789,3.4936,3.523,3.5337,3.5391,3.5458,3.5511,3.5551,3.5712,3.5899,3.6006,3.6046,3.6032,3.6032,3.6099,3.6113,3.6139,3.6099,3.6032,3.5992,3.5859,3.5698,3.5565,3.5244,3.5151,3.5097,3.4896,3.4682,3.4495,3.4295,3.4135,3.3975,3.3735,3.3628,3.3748,3.3761,3.3734,3.3735,3.3669,3.3628,3.3522,3.3668,3.3815,3.3842,3.3909,3.4122,3.4349,3.4656,3.491,3.4909,3.5057,3.5364,3.5551,3.5685,3.5979,3.634,3.6459,3.65,4.2889,4.1418,4.1961,4.2059,4.1994,4.2738,4.3296,4.3593,4.3862,4.3989,4.3955,4.3811,4.3514,4.3023,4.2457,4.2114,4.2012,4.207,4.2231,4.2593,4.2897,4.3261,4.3583,4.4196,4.4481,4.4237,4.4193,4.3943,4.3401,4.2948,4.2699,4.2611,4.2187,4.185,4.1603,4.1221,4.0957,4.0753,4.0607,4.0503,4.0489,4.042,3.9883,3.862,3.8664,3.7811,3.6815,3.6406,3.638,3.6113,3.5792,3.5872,3.6153,3.6124,3.6177,3.6673,3.6658,3.6242,3.5738,3.5938,3.5872,3.5752,3.5819,3.5885,3.5925,3.6019,3.6126,3.6086,3.6246,3.6299,3.6366,3.6487,3.654,3.6527,3.638,3.634,3.6286,3.6139,3.5992,3.5872,3.5725,3.5605,3.5444,3.5164,3.4909,3.4696,3.4482,3.4269,3.4189,3.4096,3.4056,3.4096,3.4082,3.4042,3.4056,3.4043,3.4016,3.3963,3.4003,3.4136,3.4136,3.4243,3.4536,3.4737,3.4964,3.5204,3.5431,3.5631,3.5805,3.5965,3.6126,3.6353,3.6553,3.6686,3.6699,4.3806,4.1823,4.2736,4.2876,4.2565,4.3386,4.3943,4.4279,4.4582,4.4724,4.4683,4.4371,4.3841,4.3197,4.2585,4.2187,4.2216,4.226,4.2448,4.2823,4.3375,4.3886,4.4385,4.5062,4.5368,4.4935,4.4961,4.452,4.3915,4.3416,4.308,4.2904,4.2479,4.207,4.1807,4.1513,4.122,4.0942,4.065,4.0518,4.0489,4.0489,3.9857,3.917,3.8676,3.8181,3.706,3.6829,3.6721,3.6572,3.6314,3.6459,3.6891,3.6834,3.7037,3.7524,3.7797,3.7638,3.7045,3.6829,3.6612,3.6315,3.6193,3.6233,3.6326,3.63,3.6313,3.6366,3.6487,3.658,3.6646,3.6793,3.6793,3.6766,3.6686,3.6646,3.658,3.6446,3.6313,3.6179,3.6045,3.5885,3.5698,3.5404,3.515,3.491,3.4683,3.4456,3.4403,3.443,3.443,3.4456,3.4309,3.4309,3.4402,3.4403,3.4389,3.4443,3.4483,3.4536,3.4603,3.483,3.5137,3.5297,3.5404,3.5672,3.5979,3.6099,3.6206,3.63,3.638,3.6513,3.6686,3.6806,3.6859,4.4722,4.3556,4.3934,4.4057,4.4015,4.4713,4.4782,4.4669,4.5466,4.5612,4.5293,4.4627,4.394,4.3253,4.2673,4.2196,4.201,4.1938,4.2529,4.3153,4.3693,4.4414,4.518,4.5895,4.6188,4.556,4.5559,4.5174,4.4445,4.3899,4.3416,4.2948,4.2757,4.2392,4.207,4.1777,4.141,4.1073,4.0708,4.0561,4.0518,4.0433,4.0031,3.9379,3.9047,3.8661,3.7771,3.7571,3.7408,3.7338,3.713,3.7278,3.7648,3.7589,3.7849,3.8457,3.8868,3.8695,3.8207,3.7563,3.6761,3.641,3.6326,3.6553,3.6687,3.6793,3.6819,3.6753,3.6766,3.6806,3.6846,3.69,3.6899,3.6873,3.6819,3.6806,3.678,3.6793,3.666,3.6513,3.6353,3.6166,3.6032,3.5778,3.5565,3.5337,3.507,3.4844,3.479,3.4803,3.4803,3.4763,3.4563,3.4563,3.4749,3.4803,3.4857,3.495,3.5017,3.5084,3.5164,3.5431,3.5631,3.5845,3.5965,3.6246,3.6446,3.6459,3.6486,3.654,3.662,3.6713,3.6752,3.6846,3.6886,4.5526,4.512,4.5261,4.4869,4.4246,4.4841,4.5032,4.5053,4.5669,4.5952,4.5751,4.5088,4.4617,4.4193,4.3673,4.3083,4.2829,4.2993,4.3313,4.3826,4.4504,4.5361,4.6251,4.6818,4.7188,4.6513,4.6305,4.5815,4.4966,4.4341,4.3782,4.3343,4.3036,4.2655,4.2304,4.1968,4.1557,4.1161,4.0855,4.0737,4.0518,4.0476,4.0171,3.9537,3.944,3.8828,3.8003,3.7979,3.777,3.7629,3.7613,3.7997,3.8437,3.8376,3.8765,3.9367,3.9723,3.9483,3.8952,3.8496,3.8166,3.7237,3.6961,3.6793,3.69,3.6899,3.6899,3.6886,3.6899,3.6899,3.6899,3.6899,3.6899,3.6899,3.6899,3.6899,3.6899,3.6899,3.6873,3.6686,3.6553,3.6406,3.63,3.6166,3.5979,3.5778,3.5498,3.5284,3.5231,3.5217,3.5244,3.5311,3.5151,3.5164,3.5364,3.5364,3.5351,3.5431,3.5525,3.5605,3.5685,3.5778,3.5979,3.6233,3.6419,3.6526,3.6619,3.6713,3.674,3.6726,3.678,3.6833,3.6886,3.6899,3.6899,4.5986,4.5986,4.5986,4.552,4.4827,4.5195,4.535,4.5435,4.5816,4.5986,4.5943,4.5379,4.511,4.4926,4.443,4.3909,4.3599,4.3778,4.4074,4.4634,4.5405,4.6312,4.7024,4.7492,4.7636,4.7165,4.6528,4.586,4.5219,4.4608,4.4032,4.3563,4.3211,4.2845,4.2377,4.207,4.1631,4.1236,4.1015,4.0839,4.0547,4.049,4.0408,3.9898,3.9784,3.9431,3.8818,3.8681,3.8484,3.8327,3.8311,3.8603,3.8961,3.9321,3.967,4.0047,4.0247,4.0009,3.953,3.8679,3.8473,3.7371,3.7081,3.6914,3.6899,3.6899,3.6899,3.6899,3.6899,3.6899,3.6913,3.6899,3.6899,3.6899,3.6899,3.6899,3.6899,3.6899,3.6899,3.6833,3.6726,3.6646,3.662,3.6487,3.6273,3.6086,3.5845,3.5712,3.5738,3.5725,3.5752,3.5819,3.5859,3.5939,3.6046,3.5872,3.5725,3.5805,3.5926,3.6086,3.618,3.6233,3.6313,3.654,3.6673,3.6726,3.6766,3.6806,3.6846,3.6873,3.6899,3.6899,3.6899,3.6899,3.6899,4.5986,4.5986,4.5986,4.5957,4.583,4.5943,4.5943,4.5873,4.5957,4.5986,4.5929,4.5407,4.5226,4.5114,4.4777,4.4361,4.4158,4.4522,4.4876,4.5299,4.6074,4.693,4.7482,4.7833,4.786,4.7195,4.6647,4.6083,4.5398,4.4817,4.4268,4.3753,4.3358,4.2962,4.2406,4.2084,4.1734,4.1413,4.1177,4.0928,4.068,4.0636,4.0554,4.0409,4.0209,3.9925,3.9596,3.9369,3.921,3.9093,3.9177,3.9431,3.9716,3.9857,4.01,4.0388,4.0459,4.042,4.0271,3.8252,3.748,3.7342,3.73,3.7038,3.6941,3.6899,3.6939,3.6993,3.694,3.6953,3.6926,3.6899,3.6913,3.6966,3.6966,3.6899,3.6899,3.6899,3.6899,3.6899,3.6899,3.6873,3.6873,3.6806,3.6553,3.6353,3.6166,3.6126,3.6166,3.6153,3.6126,3.6259,3.634,3.634,3.6353,3.622,3.6126,3.6206,3.6286,3.6447,3.654,3.6593,3.6699,3.6846,3.6833,3.6833,3.686,3.6886,3.6899,3.6899,3.6899,3.6899,3.6899,3.6899,3.6899,4.5986,4.5986,4.5986,4.5986,4.5986,4.5986,4.5986,4.5986,4.5986,4.6,4.5957,4.5746,4.5875,4.5916,4.5811,4.5337,4.4953,4.5666,4.6039,4.5692,4.6601,4.73,4.7822,4.7986,4.7992,4.7683,4.715,4.6484,4.5904,4.5205,4.4461,4.3915,4.3358,4.2845,4.2494,4.2245,4.207,4.1778,4.1616,4.1469,4.1135,4.1062,4.0973,4.0796,4.0664,4.0415,4.0079,3.9875,3.9773,3.9642,3.9714,3.9918,4.0079,4.0167,4.0357,4.0489,4.049,4.027,3.9873,3.872,3.8197,3.7991,3.7701,3.7342,3.6996,3.6913,3.7007,3.71,3.7033,3.7127,3.7394,3.7046,3.7007,3.7141,3.7155,3.6966,3.6899,3.6899,3.6899,3.6899,3.6899,3.6899,3.6899,3.6899,3.6713,3.662,3.6446,3.65,3.6566,3.6459,3.6419,3.6593,3.6699,3.6659,3.662,3.65,3.6473,3.654,3.662,3.6726,3.6833,3.6846,3.686,3.6873,3.6886,3.6899,3.6899,3.6899,3.6899,3.6899,3.6899,3.6899,3.6899,3.6899,3.6899,4.5986,4.6016,4.6157,4.6125,4.6016,4.5986,4.5986,4.6031,4.6141,4.6204,4.6206,4.622,4.6395,4.6632,4.6592,4.6425,4.5827,4.6555,4.6805,4.6382,4.7084,4.768,4.7991,4.8096,4.8081,4.7933,4.7476,4.6809,4.6127,4.5592,4.4699,4.3783,4.3255,4.2874,4.2567,4.2348,4.2216,4.1953,4.1806,4.169,4.1413,4.1238,4.112,4.0972,4.0796,4.0577,4.0285,4.011,4.0065,3.9949,4.0007,4.0181,4.0254,4.0342,4.0489,4.0489,4.0462,4.027,3.9914,3.9695,3.9298,3.9151,3.8515,3.7907,3.7437,3.7367,3.7375,3.7385,3.7249,3.7422,3.765,3.7261,3.7263,3.7438,3.7277,3.7088,3.7033,3.7047,3.6913,3.6926,3.6899,3.6899,3.6899,3.6899,3.6833,3.6793,3.6753,3.682,3.6873,3.6753,3.6646,3.678,3.6873,3.6806,3.6806,3.6792,3.6806,3.6886,3.6899,3.6899,3.6886,3.6873,3.6886,3.6899,3.6913,3.6913,3.6899,3.6899,3.6953,3.6939,3.6899,3.6899,3.6899,3.6899,3.6899,4.6016,4.6093,4.6455,4.6392,4.6063,4.6063,4.6031,4.6047,4.6455,4.6597,4.6581,4.6565,4.6741,4.6994,4.6787,4.6637,4.6748,4.7282,4.7251,4.7306,4.7636,4.7963,4.8066,4.8096,4.8096,4.7904,4.755,4.7002,4.6216,4.5383,4.4476,4.3695,4.3387,4.2948,4.2582,4.2362,4.2245,4.207,4.1997,4.188,4.1676,4.1382,4.1279,4.1103,4.087,4.0665,4.046,4.0401,4.0415,4.0401,4.0445,4.0474,4.0489,4.0489,4.0489,4.0503,4.0503,4.0507,4.0482,4.0344,4.0339,4.0056,3.9429,3.8792,3.8376,3.8167,3.8205,3.806,3.7934,3.7887,3.7868,3.7748,3.7641,3.7588,3.744,3.7345,3.7289,3.7181,3.7007,3.694,3.6899,3.6899,3.6899,3.6899,3.6899,3.6873,3.6846,3.6846,3.6886,3.6886,3.6806,3.6806,3.6886,3.6886,3.6899,3.6899,3.6899,3.6899,3.6899,3.6899,3.6899,3.6899,3.6899,3.6899,3.6926,3.6953,3.7033,3.706,3.7046,3.7033,3.7086,3.6926,3.6939,3.6913,3.6899,4.6439,4.6457,4.6819,4.6757,4.6455,4.6423,4.6266,4.6095,4.6662,4.6835,4.6597,4.6597,4.6932,4.7393,4.7092,4.7047,4.7274,4.7541,4.7499,4.7622,4.7845,4.8022,4.8096,4.8096,4.8096,4.8037,4.7756,4.7165,4.6127,4.5234,4.4313,4.3533,4.3431,4.3006,4.2626,4.2392,4.2318,4.2246,4.2202,4.2129,4.2055,4.188,4.166,4.1353,4.115,4.0915,4.0635,4.0576,4.0562,4.0503,4.0518,4.0518,4.0489,4.0489,4.0503,4.0546,4.0693,4.0855,4.0898,4.1046,4.1067,4.0986,4.0635,4.0119,3.9602,3.9252,3.9209,3.8981,3.8711,3.8625,3.8705,3.865,3.8469,3.8316,3.8141,3.7993,3.7868,3.7496,3.728,3.694,3.6913,3.6939,3.6926,3.6899,3.6899,3.6899,3.6899,3.6899,3.6899,3.6899,3.6899,3.6899,3.6899,3.6899,3.6899,3.6899,3.6899,3.6899,3.6899,3.6899,3.6899,3.6899,3.6899,3.6966,3.7099,3.7194,3.7261,3.7288,3.734,3.7394,3.7434,3.718,3.6979,3.6993,3.6993,4.6503,4.6457,4.7043,4.7105,4.6821,4.6803,4.6519,4.6222,4.6932,4.7043,4.666,4.6884,4.7204,4.7504,4.7394,4.7394,4.7605,4.7842,4.7873,4.7829,4.7919,4.8037,4.8096,4.8096,4.8096,4.8051,4.7742,4.709,4.6068,4.4981,4.4002,4.3475,4.3475,4.3065,4.2655,4.2538,4.2509,4.2435,4.2377,4.2392,4.2362,4.2275,4.1924,4.169,4.1501,4.112,4.0811,4.0753,4.0725,4.0636,4.065,4.0811,4.0782,4.0796,4.0856,4.0929,4.1017,4.1148,4.1177,4.1267,4.1442,4.1559,4.1589,4.1324,4.0829,4.0405,4.0236,4.0007,3.9653,3.9427,3.9551,3.9633,3.9432,3.9246,3.9003,3.8772,3.8355,3.7897,3.7485,3.7049,3.6953,3.6993,3.698,3.6926,3.6899,3.6899,3.6899,3.6899,3.6899,3.6899,3.6899,3.6899,3.6899,3.6899,3.6899,3.6899,3.6899,3.6899,3.6899,3.6899,3.6899,3.6939,3.6993,3.7153,3.7368,3.7448,3.7555,3.7635,3.7688,3.7742,3.7742,3.7541,3.734,3.722,3.7207,4.6377,4.6143,4.7094,4.7282,4.7074,4.701,4.663,4.6174,4.7108,4.725,4.6837,4.7266,4.7521,4.7679,4.7585,4.7729,4.7868,4.8051,4.8081,4.8081,4.8051,4.8096,4.8096,4.8096,4.8096,4.7904,4.7491,4.6883,4.5978,4.4951,4.4031,4.3475,4.365,4.3358,4.2787,4.2845,4.2845,4.2684,4.2567,4.2479,4.2348,4.2157,4.1909,4.185,4.1603,4.1325,4.1177,4.112,4.1136,4.0973,4.0973,4.1193,4.1178,4.1178,4.1282,4.137,4.1384,4.1442,4.15,4.1574,4.1734,4.1865,4.1939,4.1941,4.1614,4.13,4.1088,4.0931,4.0604,4.0375,4.0431,4.0402,4.0244,4.0115,3.9934,3.9429,3.8796,3.8267,3.7686,3.7317,3.7181,3.7194,3.7087,3.7033,3.6899,3.6899,3.6899,3.6899,3.7007,3.7007,3.6953,3.6953,3.6913,3.6913,3.6899,3.6899,3.6899,3.6899,3.6939,3.7007,3.7073,3.71,3.71,3.7368,3.7635,3.7755,3.7863,3.7983,3.805,3.8022,3.7982,3.7889,3.7742,3.7609,3.7502,4.6535,4.6473,4.6725,4.6787,4.674,4.6724,4.6471,4.6111,4.714,4.7361,4.7059,4.717,4.752,4.7855,4.7712,4.7809,4.8032,4.8096,4.8096,4.8096,4.8096,4.8096,4.8096,4.8096,4.8081,4.7904,4.7431,4.6513,4.5532,4.4683,4.4103,4.3738,4.3811,4.3533,4.3094,4.3226,4.3167,4.3021,4.2816,4.2655,4.2494,4.2348,4.2187,4.1997,4.1749,4.1603,4.1456,4.1368,4.134,4.1253,4.1296,4.134,4.1311,4.1384,4.1413,4.1457,4.1661,4.1749,4.1822,4.1924,4.2099,4.2201,4.226,4.2304,4.2232,4.2073,4.1902,4.1761,4.1589,4.1374,4.1217,4.1131,4.1059,4.0959,4.0816,4.0062,3.9283,3.8568,3.7929,3.7667,3.7476,3.7382,3.7275,3.7127,3.6953,3.6899,3.6899,3.6953,3.7207,3.7274,3.7167,3.7113,3.6953,3.6926,3.6926,3.698,3.7007,3.7087,3.7153,3.7207,3.7261,3.7408,3.7555,3.7716,3.793,3.8063,3.8209,3.841,3.8436,3.8328,3.8262,3.8169,3.8171,3.8064,3.7903,4.6745,4.636,4.633,4.652,4.6787,4.6819,4.6598,4.6473,4.7219,4.7409,4.7215,4.7409,4.7696,4.7952,4.7823,4.7887,4.8096,4.8096,4.8096,4.8096,4.8096,4.8096,4.8096,4.8081,4.783,4.7623,4.6706,4.5771,4.4966,4.4563,4.4133,4.3884,4.3884,4.3826,4.3519,4.3475,4.3519,4.3372,4.3094,4.2904,4.2728,4.2567,4.2362,4.2143,4.2084,4.1924,4.1807,4.1705,4.1632,4.1574,4.1544,4.1778,4.1822,4.1895,4.1866,4.1895,4.2012,4.2128,4.2187,4.2274,4.2421,4.2435,4.2597,4.264,4.264,4.2481,4.2349,4.2193,4.2077,4.1891,4.1891,4.1819,4.179,4.1718,4.1561,4.1074,3.9906,3.8802,3.8216,3.7758,3.7702,3.7783,3.7676,3.7528,3.7394,3.7394,3.7314,3.7287,3.7474,3.7582,3.7462,3.7368,3.726,3.714,3.7167,3.7195,3.7195,3.7275,3.7382,3.7488,3.7608,3.7849,3.8036,3.8117,3.8224,3.8397,3.8556,3.8636,3.8663,3.857,3.8503,3.8463,3.8478,3.8465,3.833,4.6767,4.603,4.6,4.6347,4.6916,4.701,4.6851,4.674,4.7298,4.7442,4.7312,4.7823,4.7872,4.7856,4.7936,4.8079,4.8158,4.8127,4.8111,4.8175,4.8111,4.8096,4.8096,4.8066,4.7668,4.7017,4.6157,4.5294,4.4443,4.4294,4.4177,4.3972,4.3987,4.406,4.3738,4.368,4.3782,4.3592,4.3387,4.3255,4.3065,4.2801,4.2538,4.2435,4.2406,4.2231,4.2143,4.2085,4.1983,4.1924,4.1836,4.2026,4.2231,4.2318,4.2333,4.2348,4.2377,4.2392,4.2406,4.245,4.2494,4.2553,4.2816,4.2948,4.2962,4.2904,4.2772,4.2597,4.248,4.2363,4.2363,4.2334,4.232,4.2191,4.2005,4.1718,4.036,3.9077,3.8486,3.7956,3.7996,3.8118,3.801,3.7876,3.7823,3.7823,3.7836,3.7835,3.7848,3.7903,3.789,3.7823,3.777,3.765,3.7489,3.7449,3.7449,3.7543,3.7662,3.7809,3.7969,3.8197,3.833,3.8371,3.8491,3.8583,3.8636,3.8676,3.8689,3.8769,3.8769,3.8742,3.8742,3.8743,3.8717,4.6178,4.6,4.5986,4.6095,4.6284,4.6566,4.666,4.6709,4.7329,4.7553,4.7601,4.7856,4.8047,4.8015,4.8063,4.8191,4.8397,4.8255,4.8335,4.8462,4.8207,4.8126,4.8051,4.7933,4.7357,4.6691,4.6038,4.5383,4.4608,4.4369,4.4264,4.4206,4.4206,4.425,4.4221,4.4162,4.4104,4.3914,4.3738,4.3606,4.3387,4.3094,4.2699,4.2582,4.2538,4.2421,4.2347,4.2362,4.2333,4.2289,4.2275,4.2392,4.2523,4.267,4.2684,4.2669,4.2699,4.267,4.2684,4.2743,4.2787,4.2845,4.3079,4.3284,4.3299,4.3299,4.3109,4.2831,4.2684,4.2465,4.2407,4.2392,4.2334,4.2048,4.1804,4.1288,4.0356,3.9422,3.8677,3.8399,3.8303,3.8318,3.8252,3.8104,3.7929,3.7929,3.7956,3.7969,3.8157,3.8224,3.8264,3.8224,3.8184,3.7997,3.7768,3.7757,3.7757,3.785,3.797,3.8143,3.8329,3.853,3.8638,3.8571,3.8597,3.8676,3.8717,3.8782,3.8889,3.8982,3.9021,3.9021,3.9034,3.8968,3.8888]}]]